[[{"header":{"parameterUnit":"m.s-1","parameterCategory":1,"la1":30.6,"la2":29.2853,"lo1":-89.7004,"lo2":-87.6739,"dy":0.0162,"dx":0.0183,"nx":112,"ny":82,"refTime":"2026-05-24T00:00:00:Z","depth":0,"parameterNumber":2,"parameterNumberName":"U-component_of_WINDS"},"data":[0.0,0.0,0.0,0.0,0.0,0.0,0.0,0.0,0.0,0.0,0.0,0.0,0.0,0.0,0.0,0.0,0.0,0.0,0.0,0.0,0.0,0.0,0.0,0.0,0.0,0.0,0.0,0.0,0.0,0.0,0.0,0.0,0.0,0.0,0.0,0.0,0.0,0.0,0.0,0.0,0.0,0.0,0.0,0.0,0.0,0.0,0.0,0.0,0.0,0.0,0.0,0.0,0.0,0.0,0.0,0.0,0.0,0.0,0.0,0.0,0.0,0.0,0.0,0.0,0.0,0.0,0.0,0.0,0.0,0.0,0.0,0.0,0.0,0.0,0.0,0.0,0.0,0.0,0.0,0.0,0.0,0.0,0.0,0.0,0.0,0.0,0.0,0.0,0.0,0.0,-0.6731,-0.8379,-0.9389,-0.997,-1.0097,-0.9747,-0.935,-0.8921,0.0,0.0,0.0,0.0,0.0,0.0,0.0,0.0,0.0,0.0,0.0,0.0,0.0,0.0,0.0,0.0,0.0,0.0,0.0,0.0,0.0,0.0,0.0,0.0,0.0,0.0,0.0,0.0,0.0,0.0,0.0,0.0,0.0,0.0,0.0,0.0,0.0,0.0,0.0,0.0,0.0,0.0,0.0,0.0,0.0,0.0,0.0,0.0,0.0,0.0,0.0,0.0,0.0,0.0,0.0,0.0,0.0,0.0,0.0,0.0,0.0,0.0,0.0,0.0,0.0,0.0,0.0,0.0,0.0,0.0,0.0,0.0,0.0,0.0,0.0,0.0,0.0,0.0,0.0,0.0,0.0,0.0,0.0,0.0,0.0,0.0,0.0,0.0,0.0,0.0,0.0,0.0,0.0,0.0,0.0,0.0,0.0,0.0,0.0,0.0,0.0,0.0,0.0,0.0,-0.8016,-0.9564,-0.9944,-1.0097,-1.0084,-1.0133,-0.9797,-0.8968,0.0,0.0,0.0,0.0,0.0,0.0,0.0,0.0,0.0,0.0,0.0,0.0,0.0,0.0,0.0,0.0,0.0,0.0,0.0,0.0,0.0,0.0,0.0,0.0,0.0,0.0,0.0,0.0,0.0,0.0,0.0,0.0,0.0,0.0,0.0,0.0,0.0,0.0,0.0,0.0,0.0,0.0,0.0,0.0,0.0,0.0,0.0,0.0,0.0,0.0,0.0,0.0,0.0,0.0,0.0,0.0,0.0,0.0,0.0,0.0,0.0,0.0,0.0,0.0,0.0,0.0,0.0,0.0,0.0,0.0,0.0,0.0,0.0,0.0,0.0,0.0,0.0,0.0,0.0,0.0,0.0,0.0,0.0,0.0,0.0,0.0,0.0,0.0,0.0,0.0,0.0,0.0,0.0,0.0,0.0,0.0,0.0,0.0,0.0,0.0,0.0,0.0,0.0,-0.7663,-0.8864,-0.9843,-1.0046,-1.0084,-1.0084,-1.0211,-0.9888,-0.892,-0.7544,0.0,0.0,0.0,0.0,0.0,0.0,0.0,0.0,0.0,0.0,0.0,0.0,0.0,0.0,0.0,0.0,0.0,0.0,0.0,0.0,0.0,0.0,0.0,0.0,0.0,0.0,0.0,0.0,0.0,0.0,0.0,0.0,0.0,0.0,0.0,0.0,0.0,0.0,0.0,0.0,0.0,0.0,0.0,0.0,0.0,0.0,0.0,0.0,0.0,0.0,0.0,0.0,0.0,0.0,0.0,0.0,0.0,0.0,0.0,0.0,0.0,0.0,0.0,0.0,0.0,0.0,0.0,0.0,0.0,0.0,0.0,0.0,0.0,0.0,0.0,0.0,0.0,0.0,0.0,0.0,0.0,0.0,0.0,0.0,0.0,0.0,0.0,0.0,0.0,0.0,0.0,0.0,0.0,0.0,0.0,0.0,0.0,0.0,0.0,0.0,0.0,0.0,-0.8597,-0.9364,-0.9843,-1.0021,-1.0097,-1.0097,-1.007,-0.9697,-0.8811,-0.7579,0.0,0.0,0.0,0.0,0.0,0.0,0.0,0.0,0.0,0.0,0.0,0.0,0.0,0.0,0.0,0.0,0.0,0.0,0.0,0.0,0.0,0.0,0.0,0.0,0.0,0.0,0.0,0.0,0.0,0.0,0.0,0.0,0.0,0.0,0.0,0.0,0.0,0.0,0.0,0.0,0.0,0.0,0.0,0.0,0.0,0.0,0.0,0.0,0.0,0.0,0.0,0.0,0.0,0.0,0.0,0.0,0.0,0.0,0.0,0.0,0.0,0.0,0.0,0.0,0.0,0.0,0.0,0.0,0.0,0.0,0.0,0.0,0.0,0.0,0.0,0.0,0.0,0.0,0.0,0.0,0.0,0.0,0.0,0.0,0.0,0.0,0.0,0.0,0.0,0.0,0.0,0.0,0.0,0.0,0.0,0.0,0.0,0.0,0.0,0.0,0.0,0.0,-0.8826,-0.9314,-0.9843,-0.997,-1.0021,-1.0021,-0.9624,-0.9153,-0.8633,-0.714,0.0,0.0,0.0,0.0,0.0,0.0,0.0,0.0,0.0,0.0,0.0,0.0,0.0,0.0,0.0,0.0,0.0,0.0,0.0,0.0,0.0,0.0,0.0,0.0,0.0,0.0,0.0,0.0,0.0,0.0,0.0,0.0,0.0,0.0,0.0,0.0,0.0,0.0,0.0,0.0,0.0,0.0,0.0,0.0,0.0,0.0,0.0,0.0,0.0,0.0,0.0,0.0,0.0,0.0,0.0,0.0,0.0,0.0,0.0,0.0,0.0,0.0,0.0,0.0,0.0,0.0,0.0,0.0,0.0,0.0,0.0,0.0,0.0,0.0,0.0,0.0,0.0,0.0,0.0,0.0,0.0,0.0,0.0,0.0,0.0,0.0,0.0,0.0,0.0,0.0,0.0,0.0,0.0,0.0,0.0,0.0,0.0,0.0,0.0,0.0,0.0,0.0,-0.9272,-0.9792,-0.9995,-1.0085,-1.0123,-1.0123,-0.9706,-0.9249,-0.8825,0.0,0.0,0.0,0.0,0.0,0.0,0.0,0.0,0.0,0.0,0.0,0.0,0.0,0.0,0.0,0.0,0.0,0.0,0.0,0.0,0.0,0.0,0.0,0.0,0.0,0.0,0.0,0.0,0.0,0.0,0.0,0.0,0.0,0.0,0.0,0.0,0.0,0.0,0.0,0.0,0.0,0.0,0.0,0.0,0.0,0.0,0.0,0.0,0.0,0.0,0.0,0.0,0.0,0.0,0.0,0.0,0.0,0.0,0.0,0.0,0.0,0.0,0.0,0.0,0.0,0.0,0.0,0.0,0.0,0.0,0.0,0.0,0.0,0.0,0.0,0.0,0.0,0.0,0.0,0.0,0.0,0.0,0.0,0.0,0.0,0.0,0.0,0.0,0.0,0.0,0.0,0.0,0.0,0.0,0.0,0.0,0.0,0.0,0.0,0.0,0.0,0.0,-0.8658,-0.9662,-1.0298,-1.0298,-1.0336,-1.0349,-1.0349,-0.992,-0.9435,-0.8988,0.0,0.0,0.0,0.0,0.0,0.0,0.0,0.0,0.0,0.0,0.0,0.0,0.0,0.0,0.0,0.0,0.0,0.0,0.0,0.0,0.0,0.0,0.0,0.0,0.0,0.0,0.0,0.0,0.0,0.0,0.0,0.0,0.0,0.0,0.0,0.0,0.0,0.0,0.0,0.0,0.0,0.0,0.0,0.0,0.0,0.0,0.0,0.0,0.0,0.0,0.0,0.0,0.0,0.0,0.0,0.0,0.0,0.0,0.0,0.0,0.0,0.0,0.0,0.0,0.0,0.0,0.0,0.0,0.0,0.0,0.0,0.0,0.0,0.0,0.0,0.0,0.0,0.0,0.0,0.0,0.0,0.0,0.0,0.0,0.0,0.0,0.0,0.0,0.0,0.0,0.0,0.0,0.0,0.0,0.0,0.0,0.0,0.0,0.0,0.0,0.0,0.0,-0.8855,-1.0003,-1.0705,-1.0705,-1.0705,-1.0705,-1.0705,-1.0208,-0.9659,0.0,0.0,0.0,0.0,0.0,0.0,0.0,0.0,0.0,0.0,0.0,0.0,0.0,0.0,0.0,0.0,0.0,0.0,0.0,0.0,0.0,0.0,0.0,0.0,0.0,0.0,0.0,0.0,0.0,0.0,0.0,0.0,0.0,0.0,0.0,0.0,0.0,0.0,0.0,0.0,0.0,0.0,0.0,0.0,0.0,0.0,0.0,0.0,0.0,0.0,0.0,0.0,0.0,0.0,0.0,0.0,0.0,0.0,0.0,0.0,0.0,0.0,0.0,0.0,0.0,0.0,0.0,0.0,0.0,0.0,0.0,0.0,0.0,0.0,0.0,0.0,0.0,0.0,0.0,0.0,0.0,0.0,0.0,0.0,0.0,0.0,0.0,0.0,0.0,0.0,0.0,0.0,0.0,0.0,0.0,0.0,0.0,0.0,0.0,0.0,0.0,0.0,0.0,-0.8994,-1.0151,-1.0825,-1.0825,-1.0825,-1.0825,-1.0825,-1.0308,-0.9772,-0.9345,0.0,0.0,0.0,0.0,0.0,0.0,0.0,0.0,0.0,0.0,0.0,0.0,0.0,0.0,0.0,0.0,0.0,0.0,0.0,0.0,0.0,0.0,0.0,0.0,0.0,0.0,0.0,0.0,0.0,0.0,0.0,0.0,0.0,0.0,0.0,0.0,0.0,0.0,0.0,0.0,0.0,0.0,0.0,0.0,0.0,0.0,0.0,0.0,0.0,0.0,0.0,0.0,0.0,0.0,0.0,0.0,0.0,0.0,0.0,0.0,0.0,0.0,0.0,0.0,0.0,0.0,0.0,0.0,0.0,0.0,0.0,0.0,0.0,0.0,0.0,0.0,0.0,0.0,0.0,0.0,0.0,0.0,0.0,0.0,0.0,0.0,0.0,0.0,0.0,0.0,0.0,0.0,0.0,0.0,0.0,0.0,0.0,0.0,0.0,0.0,0.0,0.0,-0.954,-1.0547,-1.1132,-1.1132,-1.1357,-1.14,-1.116,-1.1028,-1.0563,-0.9623,0.0,0.0,0.0,0.0,0.0,0.0,0.0,0.0,0.0,0.0,0.0,0.0,0.0,0.0,0.0,0.0,0.0,0.0,0.0,0.0,0.0,0.0,0.0,0.0,0.0,0.0,0.0,0.0,0.0,0.0,0.0,0.0,0.0,0.0,0.0,0.0,0.0,0.0,0.0,0.0,0.0,0.0,0.0,0.0,0.0,0.0,0.0,0.0,0.0,0.0,0.0,0.0,0.0,0.0,0.0,0.0,0.0,0.0,0.0,0.0,0.0,0.0,0.0,0.0,0.0,0.0,0.0,0.0,0.0,0.0,0.0,0.0,0.0,0.0,0.0,0.0,0.0,0.0,0.0,0.0,0.0,0.0,0.0,0.0,0.0,0.0,0.0,0.0,0.0,0.0,0.0,0.0,0.0,0.0,0.0,0.0,0.0,0.0,0.0,0.0,0.0,0.0,-1.0184,-1.1046,-1.1489,-1.1489,-1.1989,-1.2091,-1.1547,-1.2004,-1.1592,-0.991,0.0,0.0,0.0,0.0,0.0,0.0,0.0,0.0,0.0,0.0,0.0,0.0,0.0,0.0,0.0,0.0,0.0,0.0,0.0,0.0,0.0,0.0,0.0,0.0,0.0,0.0,0.0,0.0,0.0,0.0,0.0,0.0,0.0,0.0,0.0,0.0,0.0,0.0,0.0,0.0,0.0,0.0,0.0,0.0,0.0,0.0,0.0,0.0,0.0,0.0,0.0,0.0,0.0,0.0,0.0,0.0,0.0,0.0,0.0,0.0,-0.9967,-1.0012,0.0,0.0,0.0,0.0,0.0,0.0,0.0,0.0,0.0,0.0,0.0,0.0,0.0,0.0,0.0,0.0,0.0,0.0,0.0,0.0,0.0,0.0,0.0,0.0,0.0,0.0,0.0,0.0,0.0,0.0,0.0,0.0,0.0,0.0,0.0,0.0,0.0,0.0,0.0,0.0,-0.9671,-1.0791,-1.1489,-1.1489,-1.162,-1.1649,-1.1504,-1.162,-1.1125,-0.9791,-0.9065,0.0,0.0,0.0,0.0,0.0,0.0,0.0,0.0,0.0,0.0,0.0,0.0,0.0,0.0,0.0,0.0,0.0,0.0,0.0,0.0,0.0,0.0,0.0,0.0,0.0,0.0,0.0,0.0,0.0,0.0,0.0,0.0,0.0,0.0,0.0,0.0,0.0,0.0,0.0,0.0,0.0,0.0,0.0,0.0,0.0,0.0,0.0,0.0,0.0,0.0,0.0,0.0,0.0,0.0,0.0,0.0,0.0,0.0,0.0,-1.2186,-1.2,0.0,0.0,0.0,0.0,0.0,0.0,0.0,0.0,0.0,0.0,0.0,0.0,0.0,0.0,0.0,0.0,0.0,0.0,0.0,0.0,0.0,0.0,0.0,0.0,0.0,0.0,0.0,0.0,0.0,0.0,0.0,0.0,0.0,0.0,0.0,0.0,0.0,0.0,0.0,0.0,-1.0384,-1.1336,-1.1815,-1.1533,-1.2042,-1.2158,-1.1547,-1.178,-1.1424,-1.021,-0.9606,0.0,0.0,0.0,0.0,0.0,0.0,0.0,0.0,0.0,0.0,0.0,0.0,0.0,0.0,0.0,0.0,0.0,0.0,0.0,0.0,0.0,0.0,0.0,0.0,0.0,0.0,0.0,0.0,0.0,0.0,0.0,0.0,0.0,0.0,0.0,0.0,0.0,0.0,0.0,0.0,0.0,0.0,0.0,0.0,0.0,0.0,0.0,0.0,0.0,0.0,0.0,0.0,0.0,-1.3227,-1.3227,-1.3227,-1.3227,-1.3581,-1.4166,-1.4236,-1.3917,-1.324,-1.1635,0.0,0.0,0.0,0.0,0.0,0.0,0.0,0.0,0.0,0.0,0.0,0.0,0.0,0.0,0.0,0.0,0.0,0.0,0.0,0.0,0.0,0.0,-1.2826,-1.1734,-1.1479,-1.097,-0.9022,0.0,0.0,0.0,0.0,0.0,0.0,0.0,0.0,0.0,0.0,0.0,-1.1328,-1.211,-1.2371,-1.1873,-1.2667,-1.2798,-1.1751,-1.2018,-1.1788,-1.069,-1.0156,-0.9419,0.0,0.0,0.0,0.0,0.0,0.0,0.0,0.0,0.0,0.0,0.0,0.0,0.0,0.0,0.0,0.0,0.0,0.0,0.0,0.0,0.0,0.0,0.0,0.0,0.0,0.0,0.0,0.0,0.0,0.0,0.0,0.0,-0.2853,-0.4257,0.0,0.0,0.0,0.0,0.0,0.0,0.0,0.0,0.0,0.0,0.0,0.0,0.0,-1.1274,-1.1176,-1.1546,-1.2962,-1.5372,-1.5372,-1.5372,-1.5372,-1.5372,-1.5416,-1.5544,-1.5956,0.0,-1.5865,-1.4396,0.0,0.0,0.0,0.0,0.0,0.0,0.0,0.0,0.0,0.0,0.0,0.0,0.0,0.0,0.0,0.0,0.0,0.0,0.0,0.0,0.0,0.0,-1.2607,-1.1976,-1.1844,-1.1754,-1.1503,-1.0504,-0.9565,-0.9276,-0.8684,-0.8236,0.0,0.0,0.0,0.0,0.0,0.0,-1.1299,-1.2417,-1.3147,-1.3061,-1.2737,-1.2468,-1.2308,-1.1943,-1.1403,-1.0731,-1.0673,-1.0364,-0.9758,-0.9232,0.0,0.0,0.0,0.0,0.0,0.0,0.0,0.0,0.0,0.0,0.0,0.0,0.0,0.0,0.0,0.0,0.0,0.0,0.0,0.0,0.0,0.0,0.0,0.0,0.0,0.0,0.0,0.0,0.0,-0.3321,-0.4543,-0.6241,-0.6805,-0.6732,0.0,0.0,0.0,0.0,0.0,0.0,0.0,0.0,0.0,-1.1291,-1.2044,-1.2904,-1.3912,-1.4076,-1.4743,-1.5792,-1.5792,-1.6587,-1.8031,-1.8031,-1.8031,-1.8079,-1.8874,-1.9258,-1.9074,-1.7128,-1.5612,-1.4446,0.0,0.0,0.0,0.0,-1.3067,-1.2898,-1.2898,-1.2898,-1.3118,-1.4493,0.0,0.0,0.0,0.0,0.0,0.0,0.0,-1.6435,-1.5502,-1.4755,-1.4159,-1.3703,-1.3303,-1.2956,-1.2737,-1.2173,-1.1607,-1.1122,-1.0637,-1.0368,-1.0699,-1.0554,0.0,0.0,0.0,-1.2218,-1.2241,-1.3115,-1.3639,-1.3349,-1.3402,-1.3339,-1.3041,-1.2859,-1.2526,-1.1859,-1.1911,-1.1548,-1.0538,-1.0276,-0.9523,0.0,0.0,0.0,0.0,0.0,0.0,0.0,0.0,0.0,0.0,0.0,0.0,0.0,0.0,0.0,0.0,0.0,0.0,0.0,0.0,0.0,0.0,0.0,0.0,0.0,0.0,0.0,0.0,-0.4499,-0.5945,-0.7708,-0.8937,-0.8828,0.0,0.0,0.0,0.0,0.0,0.0,-0.9371,-1.1578,-1.305,-1.348,-1.3592,-1.4553,-1.6337,-1.6819,-1.6919,-1.6642,-1.6781,-1.8026,-2.0207,-2.0207,-2.0207,-2.0258,-2.1068,-2.1423,-2.1287,-1.9524,-1.7366,-1.5244,-1.5616,-1.5896,-1.6092,-1.5863,-1.5515,-1.5209,-1.5209,-1.5209,-1.5543,-1.7454,-1.8043,-1.7669,-1.5553,0.0,0.0,0.0,0.0,-1.8331,-1.7278,-1.6401,-1.5729,-1.5426,-1.4923,-1.4426,-1.41,-1.3898,-1.3502,-1.2613,-1.217,-1.2087,-1.2623,-1.236,0.0,-1.2802,-1.3011,-1.3137,-1.3234,-1.3856,-1.417,-1.3796,-1.4081,-1.415,-1.3806,-1.3742,-1.3456,-1.2784,-1.2854,-1.2388,-1.1233,-1.1056,-1.0197,-0.8545,0.0,0.0,0.0,0.0,0.0,0.0,0.0,0.0,0.0,0.0,0.0,0.0,0.0,0.0,0.0,0.0,0.0,0.0,0.0,0.0,0.0,0.0,0.0,0.0,0.0,0.0,0.0,0.0,0.0,-0.8344,-1.0886,0.0,0.0,0.0,0.0,-0.9303,-1.0953,-1.1796,-1.138,-1.3659,-1.5182,-1.5636,-1.6102,-1.6789,-1.7788,-1.9568,-1.9915,-1.8831,-1.9339,-2.0192,-2.1326,-2.1326,-2.1326,-2.1326,-2.1375,-2.1423,-2.141,-2.1287,-1.9849,-1.7785,-1.8166,-1.8335,-1.8335,-1.8335,-1.8048,-1.7706,-1.7706,-1.7706,-1.7799,-1.8319,-1.8478,-1.8054,-1.5923,-1.5196,0.0,0.0,-1.8849,-1.8769,-1.8712,-1.7675,-1.6607,-1.6529,-1.6381,-1.6255,-1.6255,-1.5751,-1.4749,-1.2949,-1.2566,-1.2581,-1.2664,0.0,-1.2706,-1.2789,-1.336,-1.378,-1.3839,-1.4509,-1.4956,-1.4913,-1.4559,-1.4339,-1.4438,-1.405,-1.353,-1.2931,-1.297,-1.2674,-1.1961,-1.1273,-1.0576,-0.9912,-0.8652,0.0,0.0,0.0,0.0,0.0,0.0,0.0,0.0,0.0,0.0,0.0,0.0,0.0,0.0,0.0,0.0,0.0,0.0,0.0,0.0,0.0,0.0,0.0,0.0,0.0,0.0,0.0,0.0,-1.0595,-1.1407,0.0,-1.1263,-1.0549,-1.0586,-1.1782,-1.2479,-1.3214,-1.4222,-1.5069,-1.578,-1.6219,-1.6735,-1.7991,-2.0148,-2.0536,-2.0283,-1.95,-2.0118,-2.0736,-2.1423,-2.1423,-2.1423,-2.1423,-2.1423,-2.1423,-2.1423,-2.1423,-2.0921,-2.0161,-2.0298,-2.0388,-2.0388,-2.0388,-2.0298,-2.0161,-2.0161,-2.0161,-1.9993,-1.9169,-1.9993,-2.1197,-2.0414,-2.0179,-2.0367,-2.128,-2.1611,-2.1301,-1.9599,-1.8767,-1.8173,-1.7627,-1.7107,-1.6788,-1.6782,-1.6529,-1.6115,-1.5422,-1.4498,-1.3836,-1.3802,-1.3755,-1.3755,-1.3833,-1.4059,-1.4304,-1.4471,-1.4793,-1.5043,-1.5133,-1.5021,-1.4994,-1.5125,-1.5186,-1.4758,-1.3667,-1.3797,-1.3374,-1.2179,-1.1758,-1.1223,-1.0527,-0.962,-0.8842,0.0,0.0,0.0,0.0,0.0,0.0,0.0,0.0,0.0,0.0,0.0,0.0,0.0,0.0,0.0,0.0,0.0,0.0,0.0,0.0,0.0,0.0,0.0,0.0,0.0,-0.8488,-0.9597,-1.1907,-1.2259,-1.2489,-1.3035,-1.244,-1.274,-1.441,-1.4719,-1.5287,-1.6446,-1.6522,-1.6565,-1.6723,-1.7826,-1.9278,-2.1166,-2.0848,-2.0498,-2.0118,-2.0686,-2.1082,-2.1423,-2.1423,-2.1423,-2.1423,-2.1423,-2.1423,-2.1423,-2.1423,-2.1423,-2.1423,-2.1423,-2.1423,-2.1423,-2.1423,-2.1423,-2.1423,-2.1423,-2.152,-2.1484,-2.0472,-2.1284,-2.2661,-2.2661,-2.2752,-2.2933,-2.3098,-2.3275,-2.3007,-2.1367,-2.0398,-1.9633,-1.9023,-1.8499,-1.8064,-1.7791,-1.749,-1.7247,-1.7212,-1.6101,-1.5169,-1.5117,-1.5051,-1.5065,-1.5164,-1.5268,-1.5328,-1.5241,-1.5387,-1.5424,-1.5283,-1.5328,-1.5448,-1.561,-1.5898,-1.5488,-1.4179,-1.4295,-1.3773,-1.2283,-1.2033,-1.161,-1.0872,-0.998,-0.9201,-0.856,0.0,0.0,0.0,0.0,0.0,0.0,0.0,0.0,0.0,0.0,0.0,0.0,0.0,0.0,0.0,0.0,0.0,0.0,0.0,0.0,0.0,0.0,0.0,-1.2622,-1.0626,-0.9921,-1.2165,-1.3472,-1.4085,-1.3872,-1.447,-1.5567,-1.7066,-1.7625,-1.7882,-1.7882,-1.795,-1.7786,-1.7303,-1.9533,-2.0699,-2.0699,-2.0699,-2.0699,-2.0749,-2.118,-2.1423,-2.1423,-2.1423,-2.1464,-2.1532,-2.1532,-2.1532,-2.1532,-2.1532,-2.1532,-2.1518,-2.145,-2.1423,-2.1423,-2.1423,-2.1423,-2.1423,-2.1423,-2.1746,-2.2184,-2.2184,-2.2184,-2.2184,-2.2184,-2.2509,-2.3023,-2.348,-2.3595,-2.3696,-2.3925,-2.2541,-2.0991,-2.0706,-2.054,-2.0203,-1.9405,-1.8738,-1.8214,-1.8057,-1.7263,-1.6571,-1.6529,-1.6458,-1.6494,-1.667,-1.6892,0.0,-1.6229,-1.6303,-1.6166,-1.5521,-1.5492,-1.561,-1.5885,-1.6026,-1.5595,-1.4372,-1.4429,-1.3841,-1.2349,-1.2117,-1.1693,-1.1004,-0.9729,-0.8759,-0.8125,0.0,0.0,0.0,0.0,0.0,0.0,0.0,0.0,0.0,0.0,0.0,0.0,0.0,0.0,0.0,0.0,0.0,0.0,0.0,0.0,0.0,-1.0821,-1.2199,-1.2979,-1.194,-1.1556,-1.2763,-1.3616,-1.4236,-1.4562,-1.5042,-1.5841,-1.7107,-1.7323,-1.7543,-1.7882,-1.9213,-1.9851,-1.9756,-2.0371,-2.0848,-2.118,-2.1229,-2.1229,-2.1229,-2.1326,-2.1423,-2.1423,-2.1423,-2.2373,-2.4015,-2.4015,-2.4015,-2.4015,-2.4015,-2.4015,-2.3852,-2.2101,-2.1423,-2.1423,-2.1423,-2.1423,-2.1423,-2.1423,-2.152,-2.1616,-2.1616,-2.1616,-2.1616,-2.1616,-2.2231,-2.3068,-2.3882,-2.4135,-2.412,-2.4177,-2.3336,-2.2309,-2.1687,-2.1136,-2.0693,-2.0348,-1.976,-1.9227,-1.906,-1.8658,-1.8057,-1.6965,-1.6705,-1.6691,-1.6952,-1.7204,-1.7361,-1.7282,-1.6916,-1.6621,-1.6503,-1.6083,-1.5856,-1.6011,-1.6179,-1.5686,-1.4372,-1.4476,-1.3908,-1.2426,-1.2241,-1.1815,-1.1097,-1.0715,-0.9935,0.0,0.0,0.0,0.0,0.0,0.0,0.0,0.0,0.0,0.0,0.0,0.0,0.0,0.0,0.0,0.0,0.0,0.0,0.0,0.0,0.0,0.0,-1.1681,-1.3077,-1.4008,-1.3386,-1.2936,-1.322,-1.4343,-1.5031,-1.5006,-1.5763,-1.648,-1.7146,-1.81,-1.8785,-1.9066,-2.0123,-2.0699,-2.0699,-2.0898,-2.1131,-2.1423,-2.1423,-2.1925,-2.2929,-2.2929,-2.2929,-2.2929,-2.2929,-2.3689,-2.5005,-2.5005,-2.5005,-2.5005,-2.5005,-2.5005,-2.4869,0.0,0.0,0.0,0.0,-2.2428,-2.1746,-2.1949,-2.2044,-2.2044,-2.2044,-2.2044,-2.2044,-2.2044,-2.2586,-2.3363,-2.4094,-2.4302,-2.4302,-2.4302,-2.3928,-2.3361,-2.2674,-2.2178,-2.1812,-2.1447,-2.0818,-2.0313,-2.0145,-1.9686,0.0,-1.8256,-1.7877,-1.777,-1.8019,-1.8283,-1.8414,-1.8245,-1.7917,-1.7529,-1.6985,-1.6621,-1.6359,-1.6194,-1.6274,0.0,0.0,0.0,-1.4482,-1.3292,-1.3159,0.0,0.0,0.0,0.0,0.0,-0.9731,0.0,0.0,-0.893,-0.9391,0.0,0.0,0.0,0.0,0.0,0.0,0.0,0.0,0.0,0.0,0.0,0.0,0.0,0.0,0.0,0.0,-1.2442,-1.4141,-1.516,-1.4708,-1.4167,-1.3895,-1.5395,-1.6192,-1.5594,-1.6544,-1.7345,-1.7578,-1.9533,-2.0699,-2.0699,-2.0699,0.0,0.0,0.0,-2.1423,-2.1423,-2.1423,-2.2631,-2.5005,-2.5005,-2.5005,-2.5005,-2.5005,-2.5005,-2.5005,-2.5005,-2.5061,-2.523,-2.5216,-2.5272,-2.5272,-2.5061,-2.5005,-2.5005,-2.5005,-2.4019,-2.2753,-2.2989,0.0,0.0,-2.3068,-2.3272,-2.3506,-2.3506,-2.3807,-2.4158,-2.4254,-2.4302,-2.4302,-2.4302,-2.4302,-2.4148,-2.3548,-2.3348,-2.3132,-2.2532,-2.1809,-2.127,-2.1109,-2.0358,-1.9762,-1.9797,-1.9472,-1.925,-1.945,-1.9705,-1.9657,-1.9118,-1.9049,-1.8535,-1.7273,-1.7135,0.0,-1.6375,-1.6382,-1.6182,-1.5627,-1.5541,-1.5177,-1.4444,-1.4429,-1.4108,-1.3461,-1.2842,-1.2215,-1.1544,-1.1064,-1.1098,-1.1636,-1.1703,-1.2189,0.0,0.0,0.0,0.0,0.0,0.0,0.0,0.0,0.0,0.0,0.0,0.0,0.0,0.0,0.0,-1.29,-1.3487,-1.3866,-1.4088,-1.4771,-1.5447,-1.6015,-1.6552,-1.7018,-1.737,-1.7437,-1.8143,-1.99,-2.045,-2.0699,-2.0699,-2.0699,-2.0848,-2.1229,-2.1375,-2.1423,-2.1423,-2.1423,-2.2631,-2.5005,-2.5005,0.0,-2.5005,-2.5005,-2.5005,-2.5005,-2.5005,-2.5564,-2.6447,-2.6616,-2.6864,-2.6982,-2.5536,-2.5005,-2.5005,-2.5005,-2.5368,-2.5734,-2.4462,-2.4009,-2.4009,-2.4009,-2.5529,-2.7326,-2.7326,-2.7422,0.0,-2.4891,-2.4302,-2.4302,-2.4302,-2.4302,-2.4271,-2.4148,-2.3686,-2.3255,-2.3132,-2.2132,-2.127,-2.1109,-2.0466,-1.9955,-1.9955,-1.9762,-1.9654,-1.9848,-2.0061,-2.0154,-2.0051,-1.9559,-1.8946,-1.813,-1.759,-1.7029,-1.651,-1.6474,-1.6245,-1.5627,-1.5074,-1.4727,-1.4577,-1.4561,-1.4498,-1.4349,-1.4162,-1.3937,-1.369,-1.3588,-1.3626,-1.3697,-1.2875,-1.2932,0.0,0.0,0.0,0.0,0.0,0.0,0.0,0.0,0.0,0.0,0.0,-1.0191,-1.2893,0.0,-1.3445,-1.4192,-1.43,-1.43,-1.43,-1.5179,-1.5891,-1.607,-1.69,-1.7106,-1.6172,-1.724,-1.876,-2.0578,-2.0699,-2.0699,-2.0699,-2.0947,-2.118,-2.1375,-2.1423,-2.1277,-2.1033,-2.1033,-2.2231,-2.4563,-2.4563,-2.4563,-2.4563,-2.4563,-2.4563,-2.462,-2.5508,-2.6379,-2.7233,-2.761,-2.7875,-2.7925,-2.7019,-2.6549,-2.6283,-2.6283,-2.6788,-2.7309,-2.6596,-2.6349,-2.6349,-2.6349,-2.7288,-2.8411,-2.8411,-2.8411,-2.8119,-2.6749,-2.5703,-2.501,-2.501,-2.4656,-2.4302,-2.4302,-2.4056,-2.381,-2.381,-2.2748,-2.1778,-2.1704,-2.0855,-2.0131,-2.0131,-2.0061,-2.001,-2.0061,-2.02,-2.0304,-2.0304,-2.0011,-1.9533,-1.8871,-1.8253,-1.763,-1.6999,-1.6705,-1.6412,-1.6117,-1.5801,-1.5611,-1.5611,-1.5611,-1.5438,-1.5106,-1.5066,-1.4805,-1.4342,-1.4429,-1.4577,-1.4841,-1.4454,-1.4492,0.0,0.0,0.0,0.0,0.0,0.0,0.0,-0.8208,-0.8627,-1.0759,-1.1474,-1.2472,-1.495,-1.5403,-1.5298,-1.5041,-1.498,-1.498,-1.498,-1.6025,-1.6683,-1.6366,-1.7271,-1.7199,-1.5319,-1.7323,-1.935,-2.086,-2.1264,-2.1396,-2.1396,-2.1589,-2.1698,-2.1698,-2.1966,-2.1993,-2.1614,-2.1656,-2.2631,-2.4447,-2.4447,-2.4447,-2.4447,-2.4447,-2.4447,-2.4563,-2.6218,-2.7167,-2.761,-2.8103,-2.8348,-2.8411,-2.8411,-2.8152,-2.7775,-2.7775,-2.789,-2.8103,-2.8314,-2.8411,-2.8411,-2.8411,-2.8411,-2.8411,-2.8411,-2.8411,-2.8365,-2.8181,-2.6965,-2.5703,-2.5641,-2.4964,-2.4302,-2.4302,-2.4302,-2.4302,-2.4302,-2.324,-2.2286,-2.2286,-2.1229,-2.0304,-2.0304,-2.0304,-2.027,-2.015,-2.022,-2.0304,-2.0304,-2.0304,-2.0042,-1.9397,-1.892,-1.8345,-1.7517,-1.6909,-1.6596,-1.6596,-1.6596,-1.6596,-1.6596,-1.6596,-1.6354,-1.5785,-1.5785,-1.5492,-1.482,-1.4932,-1.5215,-1.5649,-1.5885,-1.608,-0.7155,-0.8125,-0.9253,-0.9609,-0.9895,-1.0265,0.0,-1.0678,-1.0815,-1.2564,-1.348,-1.4304,-1.5536,-1.5741,-1.5741,-1.5683,-1.5683,-1.5683,-1.5683,-1.7763,-1.9271,-1.9235,-1.8598,-1.8131,-1.8047,-1.8964,-2.0264,-2.1895,-2.3187,-2.3894,-2.3894,-2.3143,-2.2754,-2.2754,-2.4133,-2.4828,-2.478,-2.5119,-2.545,-2.5729,-2.5729,-2.5729,-2.5729,-2.5729,-2.5729,-2.5784,-2.6997,-2.7509,-2.753,-2.789,-2.8217,-2.8411,-2.8411,-2.8348,-2.8299,-2.8299,-2.8348,-2.8363,-2.8411,-2.8411,-2.8411,-2.8411,-2.8411,-2.8411,-2.8411,-2.8411,-2.8227,-2.7396,-2.6457,-2.5656,-2.5426,-2.4841,-2.4302,-2.4302,-2.4302,-2.4302,-2.4302,-2.324,-2.2286,-2.2286,-2.1229,-2.0304,-2.0304,-2.0304,-2.0304,-2.027,-2.0304,-2.0304,-2.0304,-2.0304,-2.0091,-1.9445,-1.9338,-1.8827,-1.7666,-1.6979,-1.6596,-1.6596,-1.6596,-1.6596,-1.6596,-1.6596,-1.6549,-1.647,-1.647,-1.6439,-1.636,-1.636,-1.6407,-1.6486,-1.6632,-1.6751,-0.872,-0.9365,-1.0145,-1.0664,-1.0857,-1.1043,-1.1655,-1.2083,-1.2507,-1.3065,-1.3641,-1.4254,-1.5072,-1.5388,-1.5566,-1.577,-1.5799,-1.6338,-1.7867,-1.9001,-1.969,-1.969,-1.931,-1.9101,-1.9213,-1.9493,-2.0614,-2.2834,-2.3824,-2.4302,-2.4302,-2.3824,-2.3881,-2.4686,-2.5347,-2.6163,-2.7091,-2.729,-2.7357,-2.7357,-2.7357,-2.7203,-2.6893,-2.6893,-2.7049,-2.7357,-2.789,-2.7989,-2.7825,-2.8039,-2.825,-2.8411,-2.8411,-2.8411,-2.8411,-2.8411,-2.8411,-2.8411,-2.8411,-2.8411,-2.8411,-2.8411,-2.8411,-2.8411,-2.8411,-2.8411,-2.8319,-2.7934,-2.6995,-2.6072,-2.5933,-2.5102,-2.4302,-2.4302,-2.4302,-2.4302,-2.4302,-2.324,-2.2286,-2.2286,-2.1229,-2.0304,-2.0304,-2.0304,-2.0304,-2.0304,-2.0304,-2.0304,-2.0304,-2.0304,-2.0076,-1.9527,-1.9107,-1.8562,-1.7735,-1.7007,-1.6596,-1.6596,-1.6596,-1.6596,-1.6596,-1.6596,-1.6596,-1.6596,-1.6596,-1.6596,-1.6596,-1.6596,-1.6596,-1.6596,-1.6743,-1.7035,-1.0118,-1.0436,-1.0773,-1.1424,-1.1518,-1.1535,-1.1984,-1.2677,-1.3203,-1.3195,-1.3438,-1.3775,-1.4287,-1.4732,-1.5208,-1.5712,-1.5799,-1.6713,-1.9316,-1.969,-1.969,-1.969,-1.969,-1.9839,-2.0213,-2.067,-2.1717,-2.3546,-2.4051,-2.4219,-2.4219,-2.4277,-2.4696,-2.5712,-2.6108,-2.6871,-2.8071,-2.8255,-2.8299,-2.8299,-2.8201,-2.7989,-2.7625,-2.7725,-2.8236,-2.8965,-2.8965,-2.8759,-2.8377,-2.8476,-2.8468,-2.8411,-2.8411,-2.8411,-2.8411,-2.8411,-2.8411,-2.8411,-2.8411,-2.8411,-2.8411,-2.8411,-2.8411,-2.8411,-2.8444,-2.8493,-2.8493,-2.8525,-2.7736,-2.6836,-2.653,-2.5601,-2.4632,-2.4405,-2.4317,-2.4302,-2.4302,-2.3394,-2.2563,-2.2563,-2.1624,-2.0798,-2.0613,-2.0582,-2.052,-2.0335,-2.0304,-2.0304,-2.0304,-2.0304,-2.0187,-1.9776,-1.917,-1.8546,-1.7974,-1.7235,-1.6748,-1.6559,-1.657,-1.6554,-1.6554,-1.6596,-1.6596,-1.6596,-1.6596,-1.6596,-1.6596,-1.6596,-1.6596,-1.6596,-1.6897,-1.7305,-1.0756,-1.0883,-1.0965,-1.2087,-1.2184,-1.2069,-1.2324,-1.2409,-1.2577,-1.3082,-1.3198,-1.3232,-1.3232,-1.3828,-1.4637,-1.5639,-1.5799,-1.6713,-1.9316,-1.969,-1.969,-1.969,-1.969,-2.0198,-2.15,-2.3183,-2.4101,-2.4024,-2.4082,-2.4124,-2.4124,-2.4648,-2.5013,-2.5043,-2.6413,-2.7177,-2.7223,-2.7801,-2.8122,-2.8137,-2.7775,-2.7625,-2.7625,-2.8137,-2.907,-3.0366,-3.0366,-2.9997,-2.9381,-2.9381,-2.8996,-2.8411,-2.8411,-2.8411,-2.8411,-2.8411,-2.8411,-2.8411,-2.8411,-2.8411,-2.8411,-2.8411,-2.8411,-2.8396,-2.8525,-2.8653,-2.8732,-2.8873,-2.8509,-2.786,-2.7067,-2.626,-2.5472,-2.4694,-2.44,-2.4302,-2.4302,-2.3763,-2.3271,-2.3271,-2.2701,-2.2024,-2.1362,-2.1291,-2.106,-2.0412,-2.0304,-2.0304,-2.0304,-2.0354,-2.0373,-2.0357,-1.9838,-1.9202,-1.8546,-1.7813,-1.7099,-1.6456,-1.649,-1.6501,-1.6501,-1.6554,-1.6596,-1.6596,-1.6596,-1.6596,-1.6596,-1.6596,-1.6596,-1.6612,-1.7322,-1.7669,-1.176,-1.2293,-1.2817,-1.3103,-1.3347,-1.3498,-1.3459,-1.3356,-1.3304,-1.3429,-1.3425,-1.3357,-1.3232,-1.398,-1.4887,-1.5683,-1.5799,-1.6713,-1.9316,-1.969,-1.969,-1.969,-1.969,-2.0094,-2.1126,-2.2182,-2.3122,-2.3867,-2.404,-2.4322,-2.4808,-2.495,-2.5483,-2.6581,-2.6995,-2.7454,-2.801,-2.8128,-2.8073,-2.791,-2.771,-2.7625,-2.7625,-2.8152,-2.8658,-2.9181,-3.0966,-3.1105,-3.0012,-2.9119,-2.8611,-2.8411,-2.8411,-2.8411,-2.8411,-2.8411,-2.8411,-2.8411,-2.8411,-2.8411,-2.8411,-2.8411,-2.8411,-2.8444,-2.8605,-2.8826,-2.8982,-2.9196,-2.8926,-2.8383,-2.7466,-2.6582,-2.568,-2.476,-2.4441,-2.4302,-2.4302,-2.3779,-2.3302,-2.3302,-2.2748,-2.2209,-2.1993,-2.1578,-2.109,-2.0412,-2.0304,-2.0304,-2.0304,-2.0304,-2.0354,-2.0388,-1.9803,-1.9356,-1.9186,-1.8516,-1.8033,-1.78,-1.7813,-1.7856,-1.7869,-1.7914,-1.7956,-1.7997,-1.7543,-1.7322,-1.7322,-1.7322,-1.7322,-1.7338,-1.8032,-1.8645,-1.2744,-1.3304,-1.3836,-1.391,-1.4114,-1.4287,-1.4195,-1.3754,-1.3422,-1.3643,-1.3594,-1.3303,-1.2694,-1.3918,-1.5178,-1.5712,-1.5799,-1.6713,-1.9316,-2.0483,-2.0842,-2.0228,-2.0423,-2.091,-2.1594,-2.2082,-2.2707,-2.3504,-2.3903,-2.4472,-2.5144,-2.536,-2.5986,-2.7303,-2.7517,-2.7854,-2.8396,-2.8284,-2.8073,-2.7795,-2.766,-2.7625,-2.7625,-2.8152,-2.8935,-2.9935,-3.1643,-3.1905,-3.1059,-3.0181,-2.9258,-2.8411,-2.8411,-2.8411,-2.8411,-2.8411,-2.8411,-2.8411,-2.8411,-2.8411,-2.8411,-2.8411,-2.8411,-2.8444,-2.8668,-2.8936,-2.9136,-2.9438,-2.9399,-2.9095,-2.813,-2.7198,-2.6275,-2.5284,-2.4653,-2.4302,-2.4302,-2.3963,-2.3656,-2.3656,-2.3302,-2.2932,-2.2686,-2.1886,-2.109,-2.0412,-2.0304,-2.0304,-2.0304,-2.0304,-2.0304,-2.0354,-2.0002,-1.963,-1.9432,-1.9029,-1.8687,-1.8408,-1.8423,-1.8485,-1.853,-1.856,-1.859,-1.8635,-1.8197,-1.7977,-1.7977,-1.7977,-1.7977,-1.7993,-1.8712,-1.9263,-1.3671,-1.3925,-1.3976,-1.4436,-1.4461,-1.4383,-1.4515,-1.369,-1.3099,-1.371,-1.3628,-1.3074,-1.1742,-1.3544,-1.5328,-1.5683,-1.583,-1.6772,-1.9331,-2.1859,-2.2847,-2.1186,-2.1739,-2.2394,-2.2787,-2.294,-2.3051,-2.3127,-2.3819,-2.456,-2.5234,-2.5863,-2.6535,-2.7255,-2.801,-2.8411,-2.8411,-2.8235,-2.8073,-2.7795,-2.766,-2.7625,-2.7625,-2.829,-2.9997,-3.2398,-3.2398,-3.2398,-3.2398,-3.2398,-3.0905,-2.8596,-2.8535,-2.8504,-2.8504,-2.8473,-2.8458,-2.8458,-2.8411,-2.8411,-2.8411,-2.8411,-2.8411,-2.846,-2.87,-2.8967,-2.9167,-2.9592,-2.9946,-2.9982,-2.9053,-2.814,-2.715,-2.6141,-2.5062,-2.4302,-2.4302,-2.4302,-2.4302,-2.4302,-2.4302,-2.4087,-2.3363,-2.2178,-2.1121,-2.0412,-2.0304,-2.0304,-2.0304,-2.0304,-2.0304,-2.0304,-2.0304,-2.0042,-1.9395,-1.9348,-1.9071,-1.8345,-1.8424,-1.8501,-1.8486,-1.8563,-1.8594,-1.8594,-1.8563,-1.8547,-1.8547,-1.8547,-1.8547,-1.8563,-1.9296,-1.9657,-1.3357,-1.4013,-1.4752,-1.5043,-1.5056,-1.5056,-1.5086,-1.4748,-1.4404,-1.4214,-1.3695,-1.2916,-1.1718,-1.2955,-1.4351,-1.4949,-1.6191,-1.7688,-1.945,-2.0827,-2.1485,-2.1036,-2.1564,-2.2159,-2.2742,-2.3036,-2.3585,-2.4536,-2.4823,-2.5264,-2.6043,-2.6612,-2.7286,-2.8071,-2.8319,-2.8411,-2.8411,-2.8235,-2.8088,-2.7955,-2.7725,-2.7625,-2.7685,-3.0234,-3.1751,-3.2398,-3.2398,-3.2398,-3.2398,-3.2398,-3.1997,-3.1274,-3.0289,-2.9904,-2.9843,-2.9335,-2.9166,-2.9089,-2.8581,-2.8411,-2.8411,-2.8411,-2.8411,-2.8444,-2.8668,-2.892,-2.9182,-2.9649,-3.0113,-3.0203,-2.9288,-2.8347,-2.7413,-2.6249,-2.5103,-2.4302,-2.4302,-2.4302,-2.4302,-2.4302,-2.4302,-2.3933,-2.2748,-2.2255,-2.1639,-2.0489,-2.0304,-2.0304,-2.0304,-2.0304,-2.0304,-2.0304,-2.0304,-2.0227,-2.0058,-2.0058,-1.9965,-1.9762,-1.9795,-1.9829,-1.9896,-1.9911,-1.9929,-1.998,-1.9481,-1.9264,-1.9264,-1.9264,-1.9264,-1.9264,-1.995,-2.0329,-1.4347,-1.5093,-1.5645,-1.5198,-1.5192,-1.5313,-1.5313,-1.5208,-1.4757,-1.3375,-1.2452,-1.1767,-1.1242,-1.2729,-1.417,-1.4592,-1.6196,-1.7792,-1.8867,-2.049,-2.15,-2.1321,-2.2104,-2.2832,-2.3292,-2.3777,-2.4407,-2.5201,-2.5247,-2.5736,-2.678,-2.7134,-2.7641,-2.8381,-2.8411,-2.8411,-2.8411,-2.8299,-2.8201,-2.8168,-2.7775,-2.7725,-2.8065,-3.106,-3.2398,-3.2398,-3.2398,-3.2398,-3.2398,-3.2398,-3.2398,-3.2321,-3.1582,-3.0936,-3.0366,-2.9997,-2.9673,-2.9366,-2.8981,-2.8658,-2.8411,-2.8411,-2.8411,-2.8444,-2.8605,-2.8779,-2.9044,-2.9544,-3.0027,-3.0243,-2.9723,-2.8985,-2.8087,-2.6958,-2.5831,-2.4963,-2.4667,-2.4605,-2.4549,-2.4467,-2.4426,-2.4085,-2.3072,-2.2886,-2.253,-2.1461,-2.1007,-2.0771,-2.0751,-2.0489,-2.0304,-2.0304,-2.0304,-2.0304,-2.0304,-2.0304,-2.0304,-2.0304,-2.0304,-2.0304,-2.0354,-2.0354,-2.0373,-2.0392,-2.0053,-1.9851,-1.9851,-1.9851,-1.9851,-1.9867,-2.0255,-2.0509,-1.5993,-1.6759,-1.6627,-1.5223,-1.5086,-1.5313,-1.5313,-1.5052,-1.4065,-1.1518,-1.0436,-1.0126,-1.0699,-1.247,-1.3973,-1.4353,-1.587,-1.7261,-1.8007,-2.0393,-2.1994,-2.1724,-2.2957,-2.3927,-2.4104,-2.478,-2.5323,-2.558,-2.5595,-2.6118,-2.7381,-2.7519,-2.7843,-2.8477,-2.8493,-2.8493,-2.846,-2.8396,-2.8411,-2.8411,-2.794,-2.8122,-2.9012,-3.1336,-3.2398,-3.2398,-3.2398,-3.2398,-3.2382,-3.2547,-3.2547,-3.2508,-3.2563,-3.1797,-3.0778,-3.0685,-3.0284,-2.9759,-2.9574,-2.9126,-2.8616,-2.8427,-2.8411,-2.8396,-2.8541,-2.8605,-2.8779,-2.9289,-2.9782,-3.0146,-3.0189,-2.9674,-2.8895,-2.7883,-2.6846,-2.5885,-2.5227,-2.5045,-2.495,-2.471,-2.467,-2.4451,-2.3764,-2.3639,-2.3405,-2.2754,-2.202,-2.1507,-2.1322,-2.072,-2.0304,-2.0304,-2.0304,-2.0304,-2.0304,-2.0304,-2.0304,-2.0304,-2.0304,-2.0304,-2.0304,-2.0304,-2.0304,-2.0304,-2.0304,-2.0304,-2.0304,-2.0304,-2.0304,-2.0304,-2.0354,-2.0388,-1.7557,-1.8156,-1.7735,-1.5705,-1.5253,-1.5313,-1.5313,-1.3673,-1.1431,-0.8807,-0.8156,-0.8745,-1.0943,-1.1474,-1.2104,-1.3742,-1.489,-1.6041,-1.7357,-1.9515,-2.1171,-2.1635,-2.3054,-2.4195,-2.4756,-2.5127,-2.5751,-2.6949,-2.7042,-2.718,-2.755,-2.8124,-2.8623,-2.8982,-2.8998,-2.8951,-2.8811,-2.8541,-2.8411,-2.8411,-2.8299,-2.9449,-3.172,-3.2182,-3.2398,-3.2398,-3.2398,-3.2398,-3.2437,-3.3403,-3.3523,-3.3134,-3.3346,-3.3151,-3.2709,-3.2195,-3.1911,-3.1643,-3.0478,-3.0005,-2.9721,-2.8726,-2.8411,-2.8396,-2.846,-2.8444,-2.8525,-2.9029,-2.9515,-2.9897,-3.0146,-2.9815,-2.9194,-2.8158,-2.7185,-2.6315,-2.5551,-2.5291,-2.5114,-2.4879,-2.4895,-2.4689,-2.3964,-2.3838,-2.3638,-2.2943,-2.2572,-2.2123,-2.1383,-2.072,-2.0304,-2.0304,-2.0304,-2.0304,-2.0304,-2.0304,-2.0304,-2.0304,-2.0304,-2.0304,-2.0304,-2.0304,-2.0304,-2.0304,-2.0304,-2.0304,-2.0304,-2.0304,-2.0304,-2.0304,-2.0304,-2.0354,-1.8164,-1.8812,-1.8249,-1.5889,-1.5313,-1.5313,-1.5313,-1.3324,-1.0762,-0.8141,-0.7605,-0.7996,-0.9246,-1.0357,-1.1376,-1.2381,-1.4054,-1.5664,-1.6755,-1.9099,-2.0961,-2.162,-2.3054,-2.424,-2.4908,-2.5509,-2.6272,-2.7319,-2.7719,-2.7998,-2.8171,-2.8716,-2.9166,-2.947,-2.9454,-2.938,-2.9106,-2.947,-2.9606,-2.9458,-3.0472,-3.1829,-3.3491,-3.3646,-3.3697,-3.3697,-3.3697,-3.3697,-3.3748,-3.4284,-3.43,-3.4,-3.4101,-3.3933,-3.363,-3.3294,-3.2976,-3.2576,-3.1887,-3.1406,-3.1053,-3.0466,-2.9864,-2.9295,-2.8872,-2.9013,-2.9327,-2.937,-2.971,-3.0044,-3.0316,-3.0303,-2.9892,-2.851,-2.7213,-2.6124,-2.5766,-2.5572,-2.5422,-2.5269,-2.5224,-2.5089,-2.47,-2.456,-2.4395,-2.404,-2.3488,-2.2916,-2.2416,-2.1784,-2.109,-2.0381,-2.0304,-2.0304,-2.0304,-2.0304,-2.0304,-2.0304,-2.0304,-2.0304,-2.0304,-2.0304,-2.0304,-2.0304,-2.0304,-2.0304,-2.0304,-2.0304,-2.0304,-2.0304,-2.0304,-2.0304,-1.8259,-1.895,-1.8475,-1.6502,-1.5595,-1.5222,-1.5283,-1.2903,-1.0073,-0.8025,-0.7605,-0.7648,-0.7851,-0.9237,-1.0555,-1.123,-1.3266,-1.514,-1.6332,-1.8793,-2.0797,-2.1605,-2.3054,-2.4301,-2.5165,-2.5892,-2.6688,-2.755,-2.8199,-2.8621,-2.8858,-2.9287,-2.9661,-2.9941,-2.9941,-2.9837,-2.9601,-3.0553,-3.1086,-3.1208,-3.2667,-3.3797,-3.4594,-3.4883,-3.5024,-3.5024,-3.5024,-3.5024,-3.5024,-3.4977,-3.4835,-3.4706,-3.4675,-3.4464,-3.4185,-3.4185,-3.3844,-3.3388,-3.3225,-3.2818,-3.236,-3.2196,-3.1418,-3.0466,-2.9909,-3.002,-3.0321,-3.0097,-3.0131,-3.03,-3.0526,-3.0773,-3.0543,-2.8799,-2.7172,-2.5954,-2.5954,-2.5864,-2.5775,-2.5701,-2.5605,-2.5454,-2.5339,-2.5224,-2.5107,-2.5005,-2.4296,-2.3693,-2.3357,-2.284,-2.204,-2.0875,-2.0613,-2.052,-2.052,-2.0397,-2.0304,-2.0304,-2.0304,-2.0304,-2.0304,-2.0304,-2.0304,-2.0304,-2.0304,-2.0304,-2.0304,-2.0304,-2.0304,-2.0304,-2.0304,-2.0304,-1.7881,-1.8556,-1.85,-1.8275,-1.6515,-1.4932,-1.5222,-1.1487,-0.7879,-0.7648,-0.7605,-0.7851,-0.8636,-0.8313,-0.87,-1.1089,-1.2305,-1.3775,-1.6171,-1.8391,-2.0258,-2.1545,-2.3054,-2.4483,-2.5758,-2.6198,-2.6919,-2.8211,-2.8779,-2.9106,-2.9316,-2.9722,-3.0103,-3.0426,-3.0426,-3.0468,-3.0559,-3.1444,-3.2531,-3.3756,-3.3681,-3.4101,-3.4899,-3.535,-3.5532,-3.5532,-3.5532,-3.5532,-3.5532,-3.5195,-3.5055,-3.5055,-3.493,-3.4851,-3.4835,-3.4835,-3.4802,-3.4653,-3.3975,-3.3694,-3.3528,-3.285,-3.2253,-3.1801,-3.1737,-3.1299,-3.0875,-3.1111,-3.0836,-3.0535,-3.0814,-3.1032,-3.0684,-2.8843,-2.7267,-2.6154,-2.6068,-2.6137,-2.6118,-2.6068,-2.5957,-2.5754,-2.5519,-2.5362,-2.5201,-2.4958,-2.4672,-2.4238,-2.3418,-2.324,-2.2917,-2.2178,-2.1547,-2.1229,-2.1229,-2.0659,-2.0304,-2.0304,-2.0304,-2.0304,-2.0304,-2.0304,-2.0304,-2.0304,-2.0304,-2.0304,-2.0304,-2.0304,-2.0304,-2.0304,-2.0304,-2.0304,-1.7501,-1.8123,-1.8123,-1.8123,-1.6472,-1.4506,-1.3301,-1.0218,-0.7605,-0.7605,-0.7605,-0.7706,-0.8054,-0.8172,-0.8665,-1.0122,-1.1667,-1.3317,-1.5093,-1.753,-1.96,-2.0946,-2.2466,-2.3964,-2.5391,-2.6163,-2.7191,-2.8701,-2.9229,-2.9576,-2.9853,-3.013,-3.0485,-3.0895,-3.0935,-3.0935,-3.1015,-3.2085,-3.2883,-3.3517,-3.4121,-3.4578,-3.4849,-3.5258,-3.5503,-3.5622,-3.5622,-3.5622,-3.5577,-3.5487,-3.5379,-3.5396,-3.535,-3.5304,-3.5304,-3.5304,-3.5304,-3.5253,-3.5014,-3.4897,-3.4863,-3.4561,-3.4308,-3.3943,-3.2793,-3.2241,-3.1929,-3.1692,-3.1174,-3.0757,-3.0935,-3.032,-2.9475,-2.8605,-2.7267,-2.6187,-2.6189,-2.6225,-2.626,-2.6262,-2.6118,-2.5864,-2.5626,-2.5362,-2.5068,-2.4775,-2.463,-2.4389,-2.3948,-2.3902,-2.381,-2.3533,-2.2532,-2.1886,-2.1886,-2.1639,-2.1316,-2.0936,-2.0905,-2.0736,-2.032,-2.0304,-2.0304,-2.0304,-2.0304,-2.0304,-2.0304,-2.0304,-2.0304,-2.0304,-2.0304,-2.0304,-1.651,-1.705,-1.7125,-1.7125,-1.5686,-1.3813,-1.1927,-0.9667,-0.7982,-0.7982,-0.7778,-0.7605,-0.7605,-0.8201,-0.8886,-0.9497,-1.1343,-1.3124,-1.4426,-1.6979,-1.9121,-2.0273,-2.1717,-2.3223,-2.4747,-2.6259,-2.7737,-2.921,-2.9621,-2.9989,-3.0258,-3.0526,-3.0814,-3.119,-3.119,-3.119,-3.119,-3.2437,-3.3067,-3.3102,-3.4399,-3.4977,-3.4944,-3.5228,-3.5475,-3.5622,-3.5622,-3.5622,-3.5622,-3.5622,-3.5622,-3.5622,-3.5622,-3.5622,-3.5622,-3.5622,-3.5622,-3.5622,-3.5622,-3.5622,-3.5622,-3.5622,-3.5622,-3.5329,-3.3957,-3.3251,-3.2817,-3.2386,-3.1649,-3.0992,-3.1072,-3.0051,-2.8908,-2.8505,-2.745,-2.6452,-2.6239,-2.6243,-2.6349,-2.6453,-2.626,-2.5937,-2.5626,-2.5285,-2.495,-2.4589,-2.4482,-2.44,-2.4302,-2.4302,-2.4302,-2.4302,-2.3456,-2.2809,-2.2609,-2.2394,-2.2086,-2.1645,-2.1578,-2.1362,-2.0921,-2.0905,-2.0905,-2.0905,-2.0905,-2.0905,-2.0905,-2.0905,-2.0905,-2.0905,-2.0905,-2.0905,-1.476,-1.5068,-1.5326,-1.5326,-1.4213,-1.2827,-1.1748,-1.0151,-0.8883,-0.8883,-0.8199,-0.7605,-0.7605,-0.83,-0.906,-0.9526,-1.1343,-1.3124,-1.4426,-1.6979,-1.8957,-1.9615,-2.0933,-2.243,-2.4044,-2.66,-2.861,-2.9701,-3.0044,-3.03,-3.0477,-3.0757,-3.0992,-3.119,-3.119,-3.119,-3.119,-3.2538,-3.3134,-3.3004,-3.4571,-3.5308,-3.5291,-3.5446,-3.552,-3.5622,-3.5622,-3.5622,-3.5622,-3.5622,-3.5622,-3.5622,-3.5622,-3.5622,-3.5622,-3.5622,-3.5622,-3.5622,-3.5622,-3.5622,-3.5622,-3.5622,-3.5622,-3.5622,-3.556,-3.453,-3.3406,-3.3406,-3.2341,-3.119,-3.119,-3.0516,-2.9549,-2.8622,-2.7815,-2.7085,-2.627,-2.6262,-2.6453,-2.6657,-2.6435,-2.6046,-2.5577,-2.5246,-2.4846,-2.4385,-2.4302,-2.4302,-2.4302,-2.4302,-2.4302,-2.4302,-2.4302,-2.401,-2.3348,-2.2671,-2.2286,-2.227,-2.227,-2.227,-2.227,-2.227,-2.227,-2.227,-2.227,-2.227,-2.227,-2.227,-2.227,-2.227,-2.227,-2.227,-1.4614,-1.3938,-1.2711,-1.2711,-1.3008,-1.2751,-1.0689,-0.9526,-0.8723,-0.8127,-0.7778,-0.7605,-0.7605,-0.8201,-0.89,-0.9497,-1.1343,-1.2976,-1.3794,-1.6278,-1.8448,-1.9555,-2.1963,-2.4194,-2.5866,-2.71,-2.8404,-2.9962,-3.0274,-3.051,-3.0773,-3.0895,-3.1032,-3.119,-3.119,-3.119,-3.119,-3.2621,-3.3322,-3.3279,-3.4779,-3.5503,-3.5503,-3.5549,-3.5594,-3.5622,-3.5622,-3.5622,-3.5622,-3.5622,-3.5622,-3.5622,-3.5622,-3.5622,-3.5622,-3.5622,-3.5622,-3.5622,-3.5622,-3.5622,-3.5622,-3.5622,-3.5622,-3.5622,-3.5622,-3.4928,-3.3931,-3.2916,-3.1935,-3.119,-3.119,-3.0555,-2.976,-2.9448,-2.8348,-2.7271,-2.6985,-2.6554,-2.6293,-2.633,-2.6082,-2.5738,-2.5368,-2.5052,-2.4726,-2.4359,-2.4302,-2.4302,-2.4302,-2.4302,-2.4302,-2.4302,-2.4302,-2.421,-2.401,-2.3794,-2.3471,-2.3009,-2.2978,-2.2778,-2.2317,-2.2286,-2.2286,-2.2286,-2.2286,-2.2286,-2.2286,-2.2286,-2.2286,-2.2286,-2.2286,-2.2548,-1.2748,-1.2453,-1.1489,-1.1489,-1.2274,-1.2565,-1.0733,-0.9715,-0.8926,-0.8143,-0.7779,-0.7677,-0.7924,-0.852,-0.9191,-0.9826,-1.1674,-1.3272,-1.3882,-1.6383,-1.8846,-2.07,-2.2919,-2.4994,-2.6734,-2.7556,-2.8637,-3.0218,-3.051,-3.0773,-3.0992,-3.1072,-3.1112,-3.119,-3.119,-3.119,-3.119,-3.2662,-3.3406,-3.3423,-3.4912,-3.5622,-3.5622,-3.5622,-3.5622,-3.5622,-3.5622,-3.5622,0.0,-3.5622,-3.5622,-3.5622,-3.5622,-3.5622,-3.5622,-3.5622,-3.5622,-3.5622,-3.5622,-3.5622,-3.5622,-3.5622,-3.5622,-3.5622,-3.5622,-3.4895,-3.3829,-3.2628,-3.1749,-3.119,-3.119,-3.0796,-3.0297,-2.9989,-2.9047,-2.806,-2.74,-2.6825,-2.6356,-2.6007,-2.5701,-2.5422,-2.5153,-2.491,-2.4645,-2.4343,-2.4302,-2.4302,-2.4302,-2.4302,-2.4302,-2.4302,-2.4302,-2.4302,-2.4302,-2.4302,-2.4133,-2.3702,-2.3686,-2.3486,-2.3071,-2.304,-2.304,-2.304,-2.304,-2.304,-2.304,-2.304,-2.304,-2.304,-2.304,-2.3271,0.0,-1.0726,-1.1416,-1.1474,-1.1916,-1.2178,-1.1518,-1.0442,0.0,-0.8682,-0.807,-0.7866,-0.8479,-0.922,-0.9918,-1.0494,-1.2355,-1.3971,-1.4589,-1.7193,-2.004,-2.2738,-2.384,-2.5071,-2.6796,-2.7955,-2.916,-3.0427,-3.0757,-3.0992,-3.119,-3.119,-3.119,-3.119,-3.119,-3.119,-3.119,-3.2662,-3.3406,-3.3423,-3.4912,-3.5622,-3.5622,-3.5622,-3.5622,-3.5622,-3.5622,-3.5622,-3.5622,-3.5622,-3.5622,-3.5622,-3.5622,-3.5622,-3.5622,-3.5622,-3.5622,-3.5622,-3.5622,-3.5622,-3.5622,-3.5622,-3.5622,-3.5605,-3.5554,-3.4539,-3.3271,-3.256,-3.1799,-3.119,-3.119,-3.119,-3.1021,-3.0345,-2.9955,-2.9271,-2.7699,-2.713,-2.664,-2.5751,-2.5362,-2.5153,-2.4942,-2.4735,-2.4549,-2.4343,-2.4302,-2.4302,-2.4302,-2.4302,-2.4302,-2.4302,-2.4302,-2.4302,-2.4302,-2.4302,-2.4302,-2.4302,-2.4302,-2.4302,-2.4302,-2.4302,-2.4302,-2.4302,-2.4302,-2.4302,-2.4302,-2.4302,-2.4302,-2.4302,-2.4302,-2.4302,-0.8723,0.0,-1.0668,-1.1329,-1.1605,-1.1431,0.0,-0.9817,-0.9264,-0.8069,0.0,-0.842,-0.8566,-0.9933,-1.1118,-1.1322,-1.3477,-1.521,-1.543,-1.832,-2.1281,-2.3496,-2.4614,-2.5854,-2.7491,-2.8318,-2.9235,-3.0418,-3.0733,-3.0992,-3.119,-3.119,-3.119,-3.119,-3.119,-3.119,-3.119,-3.2662,-3.3406,-3.3423,-3.4912,-3.5622,-3.5622,-3.5622,-3.5622,-3.5622,-3.5622,-3.5622,-3.5622,-3.5622,-3.5622,-3.5622,-3.5622,-3.5622,-3.5622,-3.5622,-3.5622,-3.5622,-3.5622,-3.5622,-3.5622,-3.5622,-3.5622,-3.5504,-3.4928,-3.4117,-3.3372,-3.3186,-3.2205,-3.119,-3.119,-3.119,-3.1157,-3.097,-3.0342,-2.9644,-2.9059,-2.7904,-2.6875,-2.6481,-2.5802,-2.5201,-2.4989,-2.4751,-2.4549,-2.4343,-2.4302,-2.4302,-2.4302,-2.4302,-2.4302,-2.4302,-2.4302,-2.4302,-2.4302,-2.4302,-2.4302,-2.4302,-2.4302,-2.4302,-2.4302,-2.4302,-2.4302,-2.4302,-2.4302,-2.4302,-2.4302,-2.4302,-2.4302,-2.4302,-2.4302,-2.4302,-0.8799,-0.9681,-1.0444,-1.0915,-1.1481,-1.1568,-1.0305,-1.0015,0.0,0.0,0.0,-0.9235,-0.9817,-1.0812,-1.1849,-1.279,-1.4458,-1.6218,-1.7867,-2.0204,-2.2475,-2.4341,-2.5423,-2.6548,-2.7863,-2.8746,-2.9619,-3.0435,-3.0733,-3.0992,-3.119,-3.119,-3.119,-3.119,-3.119,-3.119,-3.119,-3.2662,-3.3406,-3.3423,-3.4912,-3.5622,-3.5622,-3.5622,-3.5622,-3.5622,-3.5622,-3.5622,-3.5622,-3.5622,-3.5622,-3.5622,-3.5622,-3.5622,-3.5622,-3.5622,-3.5622,-3.5622,-3.5622,-3.5622,-3.5622,-3.5622,-3.5622,-3.5537,-3.5131,-3.4252,-3.3339,-3.2983,-3.207,-3.119,-3.119,-3.119,-3.119,-3.119,-3.0729,-3.0162,-2.9613,-2.8702,-2.7692,-2.6805,-2.6172,-2.5607,-2.5037,-2.4751,-2.4549,-2.4343,-2.4302,-2.4302,-2.4302,-2.4302,-2.4302,-2.4302,-2.4302,-2.4302,-2.4302,-2.4302,-2.4302,-2.4302,-2.4302,-2.4302,-2.4302,-2.4302,-2.4302,-2.4302,-2.4302,-2.4302,-2.4302,-2.4302,-2.4302,-2.4302,-2.4302,-2.4471,-0.9235,-1.0117,-1.0647,-1.0647,-1.1531,-1.2067,-1.0792,0.0,0.0,0.0,0.0,0.0,-1.1285,-1.1805,-1.2629,-1.4389,-1.5595,-1.7445,-2.0737,-2.2149,-2.344,-2.5065,-2.6109,-2.7102,-2.8116,-2.9198,-3.0054,-3.0535,-3.0757,-3.0992,-3.119,-3.119,-3.119,-3.119,-3.119,-3.119,-3.119,-3.2544,-3.3237,-3.3254,-3.4742,-3.5453,-3.5453,-3.5571,-3.5622,-3.5622,-3.5622,-3.5622,-3.5622,-3.5622,-3.5622,-3.5622,-3.5622,-3.5622,-3.5622,-3.5622,-3.5622,-3.5622,-3.5622,-3.5622,-3.5622,-3.5622,-3.5622,-3.5588,-3.5453,-3.4624,-3.3508,-3.2425,-3.1664,-3.119,-3.119,-3.119,-3.119,-3.119,-3.1072,-3.0687,-2.9852,-2.9542,-2.8944,-2.7515,-2.6863,-2.627,-2.5449,-2.5089,-2.4875,-2.4667,-2.4564,-2.4518,-2.4518,-2.4394,-2.4302,-2.4302,-2.4302,-2.4302,-2.4302,-2.4302,-2.4302,-2.4302,-2.4302,-2.4302,-2.4302,-2.4302,-2.4302,-2.4302,-2.4302,-2.4302,-2.4302,-2.4302,-2.4302,-2.4302,-2.4302,-2.4671,-0.9235,-1.0456,-1.1358,-1.1358,-1.1873,-1.2067,-1.0792,0.0,0.0,0.0,0.0,0.0,0.0,-1.2887,-1.4359,-1.5271,-1.7483,-1.9876,-2.2199,-2.2859,-2.3703,-2.5265,-2.6424,-2.7546,-2.8581,-2.9603,-3.0393,-3.0814,-3.0935,-3.1072,-3.119,-3.119,-3.119,-3.119,-3.119,-3.119,-3.119,-3.2036,-3.2459,-3.2476,-3.3947,-3.4675,-3.4692,-3.5334,-3.5622,-3.5622,-3.5622,-3.5622,-3.5622,-3.5622,-3.5622,-3.5622,-3.5622,-3.5622,-3.5622,-3.5622,-3.5622,-3.5622,-3.5622,-3.5622,-3.5622,-3.5622,-3.5622,-3.547,-3.4658,-3.481,-3.4742,-3.2104,-3.1275,-3.119,-3.119,-3.119,-3.119,-3.119,-3.119,-3.1038,-3.0606,-3.059,-3.0523,-3.0152,-2.8553,-2.7183,-2.7057,-2.6762,-2.6451,-2.6116,-2.5733,-2.5503,-2.5503,-2.4795,-2.4302,-2.4302,-2.4302,-2.4302,-2.4302,-2.4302,-2.4302,-2.4302,-2.4302,-2.4302,-2.4302,-2.4302,-2.4302,-2.4302,-2.4302,-2.4302,-2.4302,-2.4302,-2.4302,-2.4302,-2.4302,-2.4671,-0.8344,-0.9638,-1.1118,-1.2497,-1.3136,-1.3208,-1.2265,-1.2062,0.0,0.0,0.0,0.0,0.0,-1.3663,-1.5094,-1.7439,-1.9474,-2.124,-2.2621,-2.3644,-2.4625,-2.5597,-2.7021,-2.8285,-2.9116,-3.0038,-3.0757,-3.1032,-3.1112,-3.1151,-3.119,-3.119,-3.119,-3.119,-3.119,-3.119,-3.119,-3.1529,-3.1884,-3.2347,-3.3778,-3.4489,-3.4523,-3.5267,-3.5622,-3.5622,-3.5622,-3.5622,-3.5622,-3.5622,-3.5622,-3.5622,-3.5622,-3.5622,-3.5622,-3.5622,-3.5622,-3.5622,-3.5622,-3.5622,-3.5622,-3.5622,-3.5622,-3.5537,-3.5098,-3.5267,-3.4996,-3.2036,-3.119,-3.119,-3.119,-3.119,-3.119,-3.119,-3.119,-3.1151,-3.1015,-3.1015,-3.1032,-3.0975,-2.9982,-2.8827,-2.7745,-2.7232,-2.682,-2.647,-2.5995,-2.5703,-2.5703,-2.4887,-2.4302,-2.4302,-2.4302,-2.4302,-2.4302,-2.4302,-2.4302,-2.4302,-2.4302,-2.4302,-2.4302,-2.4302,-2.4302,-2.4302,-2.4302,-2.4302,-2.4302,-2.4302,-2.4302,-2.4317,-2.4825,-2.5226,-0.7605,-0.888,-1.0726,-1.2874,0.0,-1.3934,-1.338,-1.3249,0.0,0.0,0.0,0.0,0.0,-1.4568,-1.6202,-1.948,-2.0985,-2.2044,-2.2949,-2.4242,-2.533,-2.5961,-2.7499,-2.8796,-2.9497,-3.0396,-3.0992,-3.119,-3.119,-3.119,-3.119,-3.119,-3.119,-3.119,-3.119,-3.119,-3.119,-3.119,-3.1461,-3.2036,-3.3525,-3.4235,-3.4269,-3.5199,-3.5622,-3.5622,-3.5622,-3.5622,-3.5622,-3.5622,-3.5622,-3.5622,-3.5622,-3.5622,-3.5622,-3.5622,-3.5622,-3.5622,-3.5622,-3.5622,-3.5622,-3.5622,-3.5622,-3.5622,-3.5622,-3.5622,-3.4996,-3.2036,-3.119,-3.119,-3.119,-3.119,-3.119,-3.119,-3.119,-3.119,-3.119,-3.119,-3.119,-3.119,-3.0998,-3.0309,-2.8633,-2.7881,-2.7334,-2.6933,-2.6565,-2.6334,-2.6334,-2.5149,-2.4302,-2.4302,-2.4302,-2.4302,-2.4302,-2.4302,-2.4302,-2.4302,-2.4302,-2.4302,-2.4302,-2.4302,-2.4302,-2.4302,-2.4302,-2.4302,-2.4302,-2.4302,-2.4302,-2.4317,-2.5041,-2.5564,-0.7605,-0.888,-1.0436,-1.1431,-1.258,0.0,-1.2849,-1.2748,0.0,-1.3307,0.0,0.0,-1.3438,-1.5889,-1.8565,-2.0587,-2.1413,-2.2299,-2.3777,-2.4492,-2.5234,-2.6326,-2.7483,-2.8632,-2.9683,-3.0499,-3.1072,-3.119,-3.119,-3.119,-3.119,-3.119,-3.119,-3.119,-3.119,-3.119,-3.119,-3.119,-3.1224,-3.1292,-3.278,-3.3491,-3.3541,-3.4962,-3.5622,-3.5622,-3.5622,-3.5622,-3.5622,-3.5622,-3.5622,-3.5622,-3.5622,-3.5622,-3.5622,-3.5622,-3.5622,-3.5622,-3.5622,-3.5622,-3.5622,-3.5622,-3.5622,-3.5622,-3.5622,-3.5622,-3.4996,-3.2036,-3.119,-3.119,-3.119,-3.119,-3.119,-3.119,-3.119,-3.119,-3.119,-3.119,-3.119,-3.119,-3.119,-3.0982,-3.0377,-2.9532,-2.8794,-2.8354,-2.8227,-2.8211,-2.8211,-2.5918,-2.4302,-2.4302,-2.4302,-2.4302,-2.4302,-2.4302,-2.4302,-2.4302,-2.4302,-2.4302,-2.4302,-2.4302,-2.4302,-2.4302,-2.4302,-2.4302,-2.4302,-2.4302,-2.4302,-2.4302,-2.4379,-2.5102,-0.7605,-0.8067,-0.9054,-1.1009,-1.1853,0.0,0.0,-1.3948,-1.4573,-1.556,-1.5748,-1.5794,-1.5917,-1.8382,-2.0699,-2.165,-2.2229,-2.2985,-2.4215,-2.5161,-2.6022,-2.6825,-2.8219,-2.9354,-2.9943,-3.0673,-3.1151,-3.119,-3.119,-3.119,-3.119,-3.119,-3.119,-3.119,-3.119,-3.119,-3.119,-3.119,-3.1427,-3.1884,-3.2916,-3.3643,-3.4117,-3.5148,-3.5622,-3.5622,-3.5622,-3.5622,-3.5622,-3.5622,-3.5622,-3.5622,-3.5622,-3.5622,-3.5622,-3.5622,-3.5622,-3.5622,-3.5622,-3.5622,-3.5622,-3.5622,-3.5622,-3.5622,-3.5622,-3.5622,-3.5385,-3.4269,-3.2628,-3.119,-3.119,-3.119,-3.119,-3.119,-3.119,-3.119,-3.119,-3.119,-3.119,-3.119,-3.0773,-3.0359,-3.0316,-2.9665,-2.8951,-2.8444,-2.8411,-2.8411,-2.8411,-2.7503,-2.6857,-2.6857,-2.6857,-2.6857,-2.6857,-2.5287,-2.4302,-2.4302,-2.4302,-2.4302,-2.4302,-2.4302,-2.4302,-2.4302,-2.4302,-2.4302,-2.4302,-2.4302,-2.4302,-2.4348,-2.6057,-2.7134,-0.8822,-0.8822,-0.926,-1.1053,0.0,0.0,-1.3034,-1.4297,-1.5792,-1.7461,-1.7914,-1.8037,-1.8155,-2.0183,-2.1949,-2.241,-2.2854,-2.3542,-2.4649,-2.5607,-2.6477,-2.7234,-2.8553,-2.9614,-3.0053,-3.0768,-3.119,-3.119,-3.119,-3.119,-3.119,-3.119,-3.119,-3.119,-3.119,-3.119,-3.119,-3.119,-3.1681,-3.2645,-3.3169,-3.3795,-3.4523,-3.5267,-3.5622,-3.5622,-3.5622,-3.5622,-3.5622,-3.5622,-3.5622,-3.5622,-3.5622,-3.5622,-3.5622,-3.5622,-3.5622,-3.5622,-3.5622,-3.5622,-3.5622,-3.5622,-3.5622,-3.5622,-3.5622,-3.5622,-3.5622,-3.5622,-3.4167,-3.2374,-3.1427,-3.119,-3.119,-3.119,-3.119,-3.119,-3.119,-3.119,-3.1112,-3.0814,-3.006,-2.9457,-2.9621,-2.9213,-2.8763,-2.8444,-2.8411,-2.8411,-2.8411,-2.8411,-2.8411,-2.8411,-2.8411,-2.8348,-2.8152,-2.6428,-2.4994,-2.4139,-2.4078,-2.4135,-2.4302,-2.4302,-2.4302,-2.4302,-2.4302,-2.4302,-2.4302,-2.4302,-2.4764,-2.5641,-2.7534,-2.8411,-1.1489,-1.1489,-1.1489,-1.1489,0.0,0.0,-1.1853,-1.3498,-1.6039,-1.8579,-1.945,-1.972,-1.9705,-2.0971,-2.2185,-2.272,-2.325,-2.3997,-2.5057,-2.5605,-2.6343,-2.7473,-2.832,-2.9151,-2.9985,-3.0768,-3.119,-3.119,-3.119,-3.119,-3.119,-3.119,-3.119,-3.119,-3.119,-3.119,-3.119,-3.119,-3.1935,-3.3389,-3.3406,-3.3795,-3.4523,-3.5284,-3.5622,-3.5622,-3.5622,-3.5622,-3.5622,-3.5622,-3.5622,-3.5622,-3.5622,-3.5622,-3.5622,-3.5622,-3.5622,-3.5622,-3.5622,-3.5622,-3.5622,-3.5622,-3.5622,-3.5622,-3.5622,-3.5622,-3.5622,-3.5622,-3.5622,-3.4945,-3.2002,-3.1207,-3.119,-3.119,-3.119,-3.119,-3.119,-3.119,-3.0935,-3.0076,-2.9091,-2.8411,-2.8411,-2.8411,-2.8411,-2.8411,-2.8411,-2.8411,-2.8411,-2.8411,-2.8411,-2.8411,-2.8411,-2.8201,-2.7625,-2.7625,-2.6486,-2.3804,-2.364,-2.3855,-2.4261,-2.4302,-2.4317,-2.4302,-2.4333,-2.4348,-2.4348,-2.4348,-2.5749,-2.8411,-2.8411,-2.8411,-1.1489,-1.1489,0.0,-1.1489,0.0,0.0,0.0,-1.6257,0.0,0.0,-2.0868,-2.2158,-2.1261,-2.1705,-2.2417,-2.3134,-2.4006,-2.4914,-2.5652,-2.5994,-2.6378,-2.691,-2.8161,-2.9022,-2.9296,-3.0446,-3.119,-3.119,-3.119,-3.119,-3.119,-3.119,-3.123,-3.1274,-3.1274,-3.1329,-3.1402,-3.1402,-3.1879,-3.2832,-3.3342,-3.4177,-3.5301,-3.552,-3.5622,-3.5622,-3.5622,-3.5622,-3.5622,-3.5622,-3.5622,-3.5622,-3.5622,-3.5622,-3.5622,-3.5622,-3.5622,-3.5622,-3.5622,-3.5622,-3.5622,-3.5622,-3.5622,-3.5622,-3.5622,-3.5622,-3.5622,-3.5622,-3.5622,-3.5419,-3.4539,-3.2763,-3.119,-3.119,-3.119,-3.119,-3.119,-3.119,-3.1112,-3.0855,-2.9499,-2.8411,-2.8411,-2.8411,-2.8411,-2.8411,-2.8411,-2.8411,-2.8411,-2.8411,-2.8411,-2.8411,-2.8039,-2.7775,-2.761,-2.7625,-2.728,-2.6437,-2.6393,-2.5648,-2.39,-2.3824,-2.3952,-2.4302,-2.6211,-2.718,-2.718,-2.718,-2.7611,-2.8411,-2.8411,-2.8411,-1.1489,-1.1489,0.0,-1.2769,-1.4262,-1.5949,-1.7742,0.0,-1.6329,-1.9899,-2.2212,-2.3413,-2.2731,-2.2928,-2.3297,-2.3561,-2.4576,-2.5497,-2.5961,-2.6243,-2.6469,-2.6691,-2.7774,-2.8636,-2.8994,-3.0057,-3.0886,-3.1173,-3.119,-3.119,-3.119,-3.123,-3.1252,-3.1295,-3.1351,-3.1406,-3.1517,-3.1517,-3.1893,-3.2627,-3.3054,-3.3955,-3.5243,-3.5548,-3.5667,-3.5622,-3.5622,-3.5622,-3.5622,-3.5622,-3.5622,-3.5622,-3.5622,-3.5622,-3.5622,-3.5622,-3.5622,-3.5622,-3.5622,-3.5622,-3.5622,-3.5622,-3.5622,-3.5622,-3.5622,-3.5622,-3.5622,-3.5622,-3.5622,-3.5622,-3.5622,-3.3423,-3.119,-3.119,-3.119,-3.119,-3.119,-3.119,-3.1112,-3.0733,-2.947,-2.8411,-2.8411,-2.8411,-2.8411,-2.8411,-2.8201,-2.8088,-2.8088,-2.8088,-2.8088,-2.8088,-2.7775,-2.7625,-2.7625,-2.7625,-2.7625,-2.7625,-2.7625,-2.6954,-2.5576,-2.5516,-2.5651,-2.5933,-2.7565,-2.8411,-2.8411,-2.8411,-2.8411,-2.8411,-2.8411,-2.8411,-1.1489,-1.1663,-1.2405,-1.4761,-1.5566,-1.5858,-1.6098,-1.6097,-1.735,-2.2018,-2.3348,-2.3739,-2.4051,-2.4426,-2.4531,-2.4141,-2.4986,-2.5832,-2.6104,-2.6435,-2.6623,-2.6691,-2.7351,-2.8129,-2.8907,-2.9668,-3.0412,-3.1123,-3.123,-3.123,-3.1247,-3.1291,-3.1334,-3.1334,-3.1462,-3.15,-3.1517,-3.1517,-3.1842,-3.2508,-3.2576,-3.3304,-3.4559,-3.5358,-3.5661,-3.5622,-3.5622,-3.5622,-3.5622,-3.5622,-3.5622,-3.5622,-3.5622,-3.5622,-3.5622,-3.5622,-3.5622,-3.5622,-3.5622,-3.5622,-3.5622,-3.5622,-3.5622,-3.5622,-3.5622,-3.5622,-3.5622,-3.5622,-3.5622,-3.5622,-3.5622,-3.3423,-3.119,-3.119,-3.119,-3.119,-3.1151,-3.1112,-3.0814,-2.9989,-2.9045,-2.8411,-2.8411,-2.8411,-2.8396,-2.8348,-2.794,-2.7625,-2.7625,-2.7625,-2.7625,-2.7625,-2.7625,-2.7625,-2.7625,-2.7625,-2.7625,-2.7625,-2.7625,-2.7825,-2.8396,-2.8411,-2.8411,-2.8411,-2.8411,-2.8411,-2.8411,-2.8411,-2.8411,-2.8411,-2.8411,-2.8348,-1.1489,-1.2972,0.0,-1.5491,-1.5741,-1.6338,-1.8407,-2.04,-2.2111,-2.3198,-2.3824,-2.4328,-2.4839,-2.5068,-2.5214,-2.5362,-2.5697,-2.6066,-2.6505,-2.6624,-2.6674,-2.6691,-2.7351,-2.8129,-2.8907,-2.9668,-3.0434,-3.1223,-3.1274,-3.1312,-3.144,-3.1423,-3.1483,-3.1542,-3.1542,-3.1634,-3.1726,-3.1726,-3.1812,-3.1967,-3.2552,-3.2899,-3.3117,-3.4355,-3.5186,-3.5622,-3.5622,-3.5622,-3.5622,-3.5622,-3.5622,-3.5622,-3.5622,-3.5622,-3.5622,-3.5622,-3.5622,-3.5622,-3.5622,-3.5622,-3.5622,-3.5622,-3.5622,-3.5622,-3.5622,-3.5622,-3.5622,-3.5622,-3.5622,-3.5622,-3.5622,-3.3423,-3.119,-3.119,-3.119,-3.1112,-3.0733,-3.0401,-2.9973,-2.9396,-2.8811,-2.8411,-2.8411,-2.8411,-2.825,-2.784,-2.7675,-2.7625,-2.7625,-2.7625,-2.7625,-2.7625,-2.7625,-2.7625,-2.7625,-2.7625,-2.7625,-2.7625,-2.7625,-2.7825,-2.8396,-2.8411,-2.8411,-2.8411,-2.8411,-2.8411,-2.8411,-2.8411,-2.8411,-2.8411,-2.8411,-2.8186,-1.1154,0.0,0.0,-1.7277,0.0,-1.6548,-1.9334,-2.2521,-2.4863,-2.4863,-2.5036,-2.5262,-2.5362,-2.5546,-2.5696,-2.5885,-2.6026,-2.6241,-2.6624,-2.6691,-2.6691,-2.6691,-2.7046,-2.7638,-2.8518,-2.9214,-3.0102,-3.121,-3.1351,-3.1423,-3.1517,-3.1538,-3.1559,-3.1617,-3.1671,-3.1709,-3.18,-3.18,-3.18,-3.18,-3.2179,-3.2445,-3.2644,-3.3617,-3.4447,-3.5081,-3.5081,-3.5284,-3.5622,-3.5622,-3.5622,-3.5622,-3.5622,-3.5622,-3.5622,-3.5622,-3.5622,-3.5622,-3.5622,-3.5622,-3.5622,-3.5622,-3.5622,-3.5622,-3.5622,-3.5622,-3.5622,-3.5622,-3.5622,-3.5622,-3.5622,-3.3423,-3.119,-3.119,-3.119,-3.1032,-3.0359,-2.9665,-2.9091,-2.8811,-2.8589,-2.8411,-2.8411,-2.8201,-2.794,-2.7625,-2.7625,-2.7625,-2.7625,-2.7625,-2.7625,-2.7625,-2.7625,-2.7625,-2.7625,-2.7625,-2.7625,-2.7625,-2.7625,-2.7725,-2.7989,-2.8039,-2.8152,-2.8411,-2.8411,-2.8411,-2.8411,-2.8411,-2.8411,-2.8411,-2.8152,-2.852,-1.0791,0.0,-1.6078,-1.8996,-1.8077,0.0,-1.9728,-2.2967,-2.559,-2.6104,-2.622,-2.6096,-2.577,-2.5897,-2.6059,-2.6063,-2.6187,-2.6364,-2.6674,-2.6691,-2.6691,-2.6691,-2.6691,-2.7029,-2.7858,-2.8727,-2.9836,-3.1249,-3.1445,-3.1555,-3.1555,-3.1596,-3.1617,-3.1617,-3.1746,-3.18,-3.18,-3.18,-3.18,-3.18,-3.1763,-3.1977,-3.24,-3.2829,-3.3558,-3.4489,-3.4489,-3.4928,-3.5622,-3.5622,-3.5622,-3.5622,-3.5622,-3.5622,-3.5622,-3.5622,-3.5622,-3.5622,-3.5622,-3.5622,-3.5622,-3.5622,-3.5622,-3.5622,-3.5622,-3.5622,-3.5622,-3.5622,-3.5622,-3.5622,-3.5622,-3.3423,-3.119,-3.119,-3.119,-3.0992,-3.0162,-2.9321,-2.8636,-2.8541,-2.8396,-2.825,-2.825,-2.7875,-2.7625,-2.7625,-2.7625,-2.7625,-2.7625,-2.7625,-2.7625,-2.7625,-2.7625,-2.7754,-2.8218,-2.8248,-2.8248,-2.8248,-2.8248,-2.8248,-2.8248,-2.8248,-2.8469,-2.8955,-2.8955,-2.8955,-2.8955,-2.8955,-2.8955,-2.8939,-2.8469,-2.943,-1.0791,0.0,-1.6368,0.0,-1.942,-1.9396,-2.0108,-2.1392,-2.3106,-2.5673,-2.622,-2.6168,-2.6132,-2.6132,-2.6239,-2.6415,-2.645,-2.6503,-2.6674,-2.6691,-2.6691,-2.6691,-2.6691,-2.6742,-2.6877,-2.8642,-3.0265,-3.1452,-3.1596,-3.1634,-3.1763,-3.1763,-3.1746,-3.1746,-3.18,-3.18,-3.18,-3.18,-3.18,-3.18,-3.1614,-3.1568,-3.1615,-3.1523,-3.2594,-3.4489,-3.4489,-3.4928,-3.5622,-3.5622,-3.5622,-3.5622,-3.5622,-3.5622,-3.5622,-3.5622,-3.5622,-3.5622,-3.5622,-3.5622,-3.5622,-3.5622,-3.5622,-3.5622,-3.5622,-3.5622,-3.5622,-3.5622,-3.5622,-3.5622,-3.5622,-3.3423,-3.119,-3.119,-3.119,-3.1072,-3.051,-3.0017,-2.9547,-2.9091,-2.8301,-2.7725,-2.7725,-2.7625,-2.7625,-2.7625,-2.7625,-2.7625,-2.7625,-2.7625,-2.7625,-2.7625,-2.7625,-2.8502,-3.0806,-3.1001,-3.1001,-3.1001,-3.1001,-3.1001,-3.1001,-3.1001,-3.1001,-3.1057,-3.1072,-3.1072,-3.1072,-3.1072,-3.1072,-3.1057,-3.1001,-3.1195,-1.0923,-1.3699,-1.6083,0.0,-1.8631,-1.9797,-2.02,-2.1071,-2.2394,-2.453,-2.5624,-2.622,-2.622,-2.6222,-2.6329,-2.6485,-2.6503,-2.6538,-2.6691,-2.6691,-2.6691,-2.6691,-2.6691,-2.7351,-2.9059,-2.9408,-3.0133,-3.149,-3.1688,-3.1746,-3.18,-3.18,-3.18,-3.18,-3.18,-3.18,-3.18,-3.18,-3.18,-3.18,-3.1593,-3.1517,-3.1479,-3.1269,-3.2171,-3.388,-3.388,-3.4539,-3.5622,-3.5622,-3.5622,-3.5622,-3.5622,-3.5622,-3.5622,-3.5622,-3.5622,-3.5622,-3.5622,-3.5622,-3.5622,-3.5622,-3.5622,-3.5622,-3.5622,-3.5622,-3.5622,-3.5622,-3.5622,-3.5622,-3.5622,-3.4658,-3.317,-3.124,-3.0651,-3.0417,-3.0189,-3.0401,-3.0156,-2.8574,-2.791,-2.7625,-2.7625,-2.7625,-2.7625,-2.7625,-2.7625,-2.7625,-2.7625,-2.7625,-2.7625,-2.7625,-2.8906,-3.0268,-3.1377,-3.1482,-3.1482,-3.1482,-3.1482,-3.1482,-3.1482,-3.1482,-3.1482,-3.1482,-3.1482,-3.1482,-3.1482,-3.1482,-3.1482,-3.1482,-3.1482,-3.1482,-1.1046,-1.3775,-1.5799,-1.5799,-1.7777,-1.9797,-2.02,-2.1071,-2.2096,-2.3205,-2.4911,-2.6203,-2.6239,-2.6277,-2.633,-2.652,-2.6504,-2.6539,-2.6691,-2.6691,-2.6691,-2.6691,-2.6691,-2.7875,-3.0903,-3.0418,-3.0413,-3.1565,-3.1726,-3.18,-3.18,-3.18,-3.18,-3.18,-3.18,-3.18,-3.18,-3.18,-3.18,-3.18,-3.1593,-3.1517,-3.1479,-3.1269,-3.2002,-3.3406,-3.3406,-3.4252,-3.5622,-3.5622,-3.5622,-3.5622,-3.5622,-3.5622,-3.5622,-3.5622,-3.5622,-3.5622,-3.5622,-3.5622,-3.5622,-3.5622,-3.5622,-3.5622,-3.5622,-3.5622,-3.5622,-3.5622,-3.5622,-3.5622,-3.5622,-3.5622,-3.4869,-3.2089,-3.0449,-2.9592,-2.9814,-3.0316,-3.0081,-2.7978,-2.7625,-2.7625,-2.7625,-2.7625,-2.7625,-2.7625,-2.7625,-2.7625,-2.7625,-2.7625,-2.7829,-2.8502,-3.0357,-3.1482,-3.1482,-3.1482,-3.1482,-3.1482,-3.1482,-3.1482,-3.1482,-3.1482,-3.1482,-3.1482,-3.1482,-3.1482,-3.1482,-3.1482,-3.1482,-3.1482,-3.1482,-3.1482,-1.1087,-1.3775,-1.5799,-1.5799,-1.7777,-1.9797,-2.02,-2.1071,-2.1814,-2.1897,-2.4199,-2.6239,-2.6364,-2.6347,-2.6365,-2.6572,-2.6538,-2.6539,-2.6691,-2.6691,-2.6691,-2.6691,-2.6691,-2.7875,-3.0903,-3.1507,-3.1714,-3.1783,-3.18,-3.18,-3.18,-3.18,-3.18,-3.18,-3.18,-3.18,-3.18,-3.18,-3.18,-3.18,-3.1593,-3.1517,-3.1479,-3.1269,-3.2002,-3.3406,-3.3406,-3.4252,-3.5622,-3.5622,-3.5622,-3.5622,-3.5622,-3.5622,-3.5622,-3.5622,-3.5622,-3.5622,-3.5622,-3.5622,-3.5622,-3.5622,-3.5622,-3.5622,-3.5622,-3.5622,-3.5622,-3.5622,-3.5622,-3.5622,-3.5622,-3.5622,-3.5299,-3.4203,-3.1147,-2.8732,-2.9681,-2.9547,-2.8873,-2.781,-2.7625,-2.7625,-2.7625,-2.7625,-2.7625,-2.7625,-2.7625,-2.7625,-2.7625,-2.7625,-2.8532,-3.1061,-3.1392,-3.1482,-3.1482,-3.1482,-3.1482,-3.1482,-3.1482,-3.1482,-3.1482,-3.1482,-3.1482,-3.1482,-3.1482,-3.1482,-3.1482,-3.1482,-3.1482,-3.1482,-3.1482,-3.1482,-0.9185,-1.1424,-1.3496,-1.3496,-1.5479,-1.7593,-1.814,-2.0069,-2.1797,-2.1797,-2.4149,-2.6239,-2.6364,-2.6435,-2.6469,-2.6572,-2.6607,-2.6657,-2.6691,-2.6691,-2.6691,-2.6691,-2.6691,-2.7875,-3.0903,-3.1346,-3.15,-3.1651,-3.1651,-3.1726,-3.18,-3.18,-3.18,-3.18,-3.18,-3.18,-3.18,-3.18,-3.18,-3.18,-3.1593,-3.1517,-3.1479,-3.1269,-3.1749,-3.2713,-3.3186,-3.4252,-3.5622,-3.5622,-3.5622,-3.5622,-3.5622,-3.5622,-3.5622,-3.5622,-3.5622,-3.5622,-3.5622,-3.5622,-3.5622,-3.5622,-3.5622,-3.5622,-3.5622,-3.5622,-3.5622,-3.5622,-3.5622,-3.5622,-3.5622,-3.5622,-3.5178,-3.3423,-3.198,-3.1072,-3.142,-3.1368,-3.0598,-2.8522,-2.8088,-2.8088,-2.8088,-2.9556,-3.0685,-3.0685,-3.0685,-3.0685,-3.0685,-3.0685,-3.0888,-3.1435,-3.1482,-3.164,-3.2064,-3.2079,-3.191,-3.1524,-3.1482,-3.1482,-3.1482,-3.1482,-3.1482,-3.1482,-3.1482,-3.1482,-3.1482,-3.1482,-3.1482,-3.1482,-3.1482,-3.1482,-0.8296,-0.964,-1.1022,-1.1022,-1.311,-1.551,-1.6905,-1.9602,-2.1797,-2.1797,-2.3354,-2.5061,-2.6215,-2.6504,-2.659,-2.6623,-2.6674,-2.6691,-2.6691,-2.6691,-2.6691,-2.6691,-2.7148,-2.845,-3.0954,-3.119,-3.1308,-3.1593,-3.1593,-3.1651,-3.18,-3.18,-3.18,-3.18,-3.18,-3.18,-3.18,-3.18,-3.18,-3.18,-3.1593,-3.1517,-3.1479,-3.1269,-3.1596,-3.2307,-3.2916,-3.3914,-3.5165,-3.5487,-3.5622,-3.5622,-3.5622,-3.5622,-3.5622,-3.5622,-3.5622,-3.5622,-3.5622,-3.5622,-3.5622,-3.5622,-3.5622,-3.5622,-3.5622,-3.5622,-3.5622,-3.5622,-3.5622,-3.5622,-3.5622,-3.5333,-3.4642,-3.2857,-3.2398,-3.2398,-3.2398,-3.2398,-3.1859,-3.0089,-2.9735,-2.9735,-2.9735,-3.1213,-3.2398,-3.2398,-3.2398,-3.2398,-3.2398,-3.2398,-3.2176,-3.1582,-3.1697,-3.1966,-3.2342,-3.2398,-3.212,-3.1539,-3.1482,-3.1482,-3.1482,-3.1482,-3.1482,-3.1482,-3.1482,-3.1482,-3.1482,-3.1482,-3.1482,-3.1482,-3.1482,-3.1482,0.0,0.0,0.0,-0.8705,-1.0917,-1.388,-1.6835,-1.9644,-2.1681,-2.1811,-2.1827,-2.2737,-2.5866,-2.6556,-2.6657,-2.6657,-2.6674,-2.6691,-2.6691,-2.6691,-2.6691,-2.6691,-2.801,-2.9499,-3.097,-3.1106,-3.124,-3.1542,-3.1559,-3.1634,-3.18,-3.18,-3.18,-3.18,-3.18,-3.18,-3.18,-3.18,-3.18,-3.18,-3.1593,-3.1517,-3.1479,-3.1269,-3.1579,-3.2256,-3.2577,-3.3237,-3.4167,-3.5199,-3.5622,-3.5622,-3.5622,-3.5622,-3.5622,-3.5622,-3.5622,-3.5622,-3.5622,-3.5622,-3.5622,-3.5622,-3.5622,-3.5622,-3.5622,-3.5622,-3.5622,-3.5622,-3.5622,-3.5622,-3.5622,-3.4866,-3.3832,-3.2711,-3.2453,-3.2453,-3.2398,-3.2398,-3.2398,-3.2398,-3.2398,-3.2398,-3.2398,-3.2398,-3.2398,-3.2398,-3.2398,-3.2398,-3.2398,-3.2398,-3.2176,-3.1582,-3.2079,-3.2398,-3.2398,-3.2398,-3.2176,-3.1582,-3.1524,-3.1539,-3.1482,-3.1482,-3.1482,-3.1482,-3.1482,-3.1482,-3.1482,-3.1482,-3.1482,-3.1482,-3.1482,-3.1482,-0.8705,0.0,0.0,0.0,0.0,0.0,-1.6835,-1.8128,-1.9316,-2.1478,-2.194,-2.2484,-2.4231,-2.5137,-2.5693,-2.5879,-2.6353,-2.6691,-2.6691,-2.6691,-2.6691,-2.6691,-2.7063,-2.7774,-2.8924,-2.9115,-2.9615,-3.0666,-3.0771,-3.1104,-3.1765,-3.18,-3.18,-3.18,-3.18,-3.18,-3.18,-3.18,-3.18,-3.18,-3.1593,-3.1517,-3.1479,-3.1269,-3.1309,-3.1546,-3.2357,-3.2459,-3.2205,-3.4624,-3.5622,-3.5622,-3.5622,-3.5622,-3.5622,-3.5622,-3.5622,-3.5622,-3.5622,-3.5622,-3.5622,-3.5622,-3.5622,-3.5622,-3.5622,-3.5622,-3.5622,-3.5622,-3.5622,-3.5622,-3.5622,-3.5148,-3.4497,-3.3781,-3.3314,-3.2904,-3.2508,-3.2398,-3.2398,-3.2398,-3.2398,-3.2398,-3.2398,-3.2398,-3.2398,-3.2398,-3.2398,-3.2398,-3.2398,-3.2398,-3.2342,-3.2176,-3.2287,-3.2398,-3.2398,-3.2398,-3.2342,-3.2176,-3.2176,-3.1966,-3.1539,-3.1482,-3.1482,-3.1482,-3.1482,-3.1482,-3.1482,-3.1482,-3.1482,-3.1482,-3.1482,-3.1482,-0.8705,-0.9597,-1.0536,-1.0536,0.0,0.0,-1.5271,-1.6636,-1.8004,-1.976,-2.0649,-2.1373,-2.2247,-2.3253,-2.4093,-2.4565,-2.5287,-2.5981,-2.6607,-2.6691,-2.6691,-2.6691,-2.6962,-2.7402,-2.8064,-2.8455,-2.9055,-2.9932,-3.0311,-3.0881,-3.1748,-3.18,-3.18,-3.18,-3.18,-3.18,-3.18,-3.18,-3.18,-3.18,-3.1593,-3.1517,-3.1479,-3.1269,-3.119,-3.1224,-3.1816,-3.1732,-3.1427,-3.4387,-3.5622,-3.5622,-3.5622,-3.5622,-3.5622,-3.5622,-3.5622,-3.5622,-3.5622,-3.5622,-3.5622,-3.5622,-3.5622,-3.5622,-3.5622,-3.5622,-3.5622,-3.5622,-3.5622,-3.5622,-3.5622,-3.5396,-3.5118,-3.4818,-3.4184,-3.3435,-3.2563,-3.2398,-3.2398,-3.2398,-3.2398,-3.2398,-3.2398,-3.2398,-3.2398,-3.2398,-3.2398,-3.2398,-3.2398,-3.2398,-3.2398,-3.2398,-3.2398,-3.2398,-3.2398,-3.2398,-3.2398,-3.2398,-3.2398,-3.212,-3.1524,-3.1482,-3.1482,-3.1482,-3.1482,-3.1482,-3.1482,-3.1482,-3.1482,-3.1482,-3.1482,-3.1482,-0.9184,-1.1099,-1.3102,-1.3102,-1.3102,0.0,-1.3102,-1.5122,-1.7084,-1.7332,-1.8534,-1.9671,-2.0214,-2.1217,-2.2197,-2.2921,-2.3772,-2.4881,-2.637,-2.6573,-2.6607,-2.6674,-2.7283,-2.7741,-2.7862,-2.8473,-2.897,-2.9248,-2.9969,-3.0761,-3.1627,-3.1679,-3.1714,-3.18,-3.18,-3.18,-3.18,-3.18,-3.18,-3.18,-3.1614,-3.1517,-3.1479,-3.1269,-3.119,-3.119,-3.119,-3.119,-3.1393,-3.4032,-3.5318,-3.5622,-3.5622,-3.5622,-3.5622,-3.5622,-3.5622,-3.5622,-3.5622,-3.5622,-3.5622,-3.5622,-3.5622,-3.5622,-3.5622,-3.5622,-3.5622,-3.5622,-3.5622,-3.5622,-3.5622,-3.5622,-3.5622,-3.5622,-3.4818,-3.3781,-3.2672,-3.2398,-3.2398,-3.2398,-3.2398,-3.2398,-3.2398,-3.2398,-3.2398,-3.2398,-3.2398,-3.2398,-3.2398,-3.2398,-3.2398,-3.2398,-3.2398,-3.2398,-3.2398,-3.2398,-3.2398,-3.2398,-3.2398,-3.212,-3.1524,-3.1482,-3.1482,-3.1482,-3.1482,-3.1482,-3.1482,-3.1482,-3.1482,-3.1482,-3.1482,-3.1482,-1.224,-1.2654,-1.3102,-1.3102,-1.3102,0.0,-1.3102,-1.3549,-1.448,-1.6325,-1.6948,-1.7555,-1.8892,-1.979,-2.0605,-2.1389,-2.2664,-2.4076,-2.5609,-2.5812,-2.6031,-2.6623,-2.6826,-2.6962,-2.7097,-2.73,-2.7708,-2.8459,-2.9248,-3.004,-3.0869,-3.0903,-3.1179,-3.1783,-3.18,-3.18,-3.18,-3.18,-3.18,-3.18,-3.1651,-3.1555,-3.1479,-3.1269,-3.119,-3.119,-3.119,-3.119,-3.1241,-3.1816,-3.3457,-3.5622,-3.5622,-3.5622,-3.5622,-3.5622,-3.5622,-3.5622,-3.5622,-3.5622,-3.5622,-3.5622,-3.5622,-3.5622,-3.5622,-3.5622,-3.5622,-3.5622,-3.5622,-3.5622,-3.5622,-3.5622,-3.5622,-3.5622,-3.4818,-3.3781,-3.2672,-3.2398,-3.2398,-3.2398,-3.2398,-3.2398,-3.2398,-3.2398,-3.2398,-3.2398,-3.2398,-3.2398,-3.2398,-3.2398,-3.2398,-3.2398,-3.2398,-3.2398,-3.2398,-3.2398,-3.2398,-3.2398,-3.2398,-3.212,-3.1524,-3.1482,-3.1482,-3.1482,-3.1482,-3.1482,-3.1482,-3.1482,-3.1482,-3.1482,-3.1482,-3.1482,-1.5288,-1.5288,-1.5288,-1.5288,-1.4195,0.0,0.0,-1.3102,-1.3416,-1.4569,-1.5404,-1.6203,-1.7226,-1.8133,-1.896,-1.9773,-2.0884,-2.2068,-2.3241,-2.4357,-2.5186,-2.5541,-2.593,-2.62,-2.6298,-2.6687,-2.7332,-2.8218,-2.8714,-2.9299,-3.0058,-3.0472,-3.08,-3.1041,-3.1541,-3.18,-3.18,-3.18,-3.18,-3.18,-3.1651,-3.1538,-3.1479,-3.1269,-3.119,-3.119,-3.119,-3.119,-3.119,-3.119,-3.2949,-3.5622,-3.5622,-3.5622,-3.5622,-3.5622,-3.5622,-3.5622,-3.5622,-3.5622,-3.5622,-3.5622,-3.5622,-3.5622,-3.5622,-3.5622,-3.5622,-3.5622,-3.5622,-3.5622,-3.5622,-3.5622,-3.5622,-3.5622,-3.4818,-3.3781,-3.2672,-3.2398,-3.2398,-3.2398,-3.2398,-3.2398,-3.2398,-3.2398,-3.2398,-3.2398,-3.2398,-3.2398,-3.2398,-3.2398,-3.2398,-3.2398,-3.2398,-3.2398,-3.2398,-3.2398,-3.2398,-3.2398,-3.2398,-3.212,-3.1524,-3.1482,-3.1482,-3.1482,-3.1482,-3.1482,-3.1482,-3.1482,-3.1482,-3.1482,-3.1482,-3.1482,-1.7515,-1.7913,-1.817,-1.7647,-1.5271,-1.3184,0.0,0.0,0.0,-1.3102,-1.428,-1.5442,-1.5901,-1.6663,-1.7489,-1.8365,-1.921,-1.9993,-2.0653,-2.244,-2.3782,-2.4222,-2.4932,-2.5421,-2.5484,-2.6109,-2.6836,-2.7583,-2.7853,-2.8282,-2.9041,-2.9955,-3.0506,-3.0575,-3.1369,-3.18,-3.18,-3.18,-3.18,-3.18,-3.1688,-3.1593,-3.1479,-3.1269,-3.119,-3.119,-3.119,-3.119,-3.1241,-3.1799,-3.3457,-3.5622,-3.5622,-3.5622,-3.5622,-3.5622,-3.5622,-3.5622,-3.5622,-3.5622,-3.5622,-3.5622,-3.5622,-3.5622,-3.5622,-3.5622,-3.5622,-3.5622,-3.5622,-3.5622,-3.5622,-3.5622,-3.5622,-3.5622,-3.4818,-3.3925,-3.3339,-3.2767,-3.2398,-3.2398,-3.2398,-3.2398,-3.2398,-3.2398,-3.2398,-3.2398,-3.2398,-3.2398,-3.2398,-3.2398,-3.2398,-3.2398,-3.2398,-3.2398,-3.2398,-3.2398,-3.2398,-3.2398,-3.2398,-3.212,-3.1524,-3.1482,-3.1482,-3.1482,-3.1482,-3.1482,-3.1482,-3.164,-3.1582,-3.1482,-3.1482,-3.1482,-1.7515,-1.9389,-2.0688,-1.8145,-1.5271,-1.3449,-1.4745,0.0,-1.3102,-1.3102,0.0,-1.5442,-1.5901,0.0,0.0,-1.7555,-1.8373,-1.8925,-1.9147,-1.9942,-2.1278,-2.3274,-2.4171,-2.4642,-2.4717,-2.4957,-2.518,-2.5266,-2.5928,-2.6713,-2.7506,-2.8885,-3.0248,-3.1593,-3.1731,-3.18,-3.18,-3.18,-3.18,-3.18,-3.18,-3.1688,-3.1479,-3.1269,-3.119,-3.119,-3.119,-3.119,-3.1393,-3.4032,-3.5318,-3.5622,-3.5622,-3.5622,-3.5622,-3.5622,-3.5622,-3.5622,-3.5622,-3.5622,-3.5622,-3.5622,-3.5622,-3.5622,-3.5622,-3.5622,-3.5622,-3.5622,-3.5622,-3.5622,-3.5622,-3.5622,-3.5622,-3.5622,-3.4818,-3.4471,-3.5732,-3.4106,-3.2398,-3.2398,-3.2398,-3.2398,-3.2398,-3.2398,-3.2398,-3.2398,-3.2398,-3.2398,-3.2398,-3.2398,-3.2398,-3.2398,-3.2398,-3.2398,-3.2398,-3.2398,-3.2398,-3.2398,-3.2398,-3.212,-3.1524,-3.1482,-3.1482,-3.1482,-3.1482,-3.1482,-3.1482,-3.2023,-3.2007,-3.1482,-3.1482,-3.1482,-1.9992,-2.087,-2.1102,-1.8228,-1.6563,-1.5818,-1.6437,-1.6105,-1.5652,-1.5652,0.0,0.0,0.0,0.0,0.0,0.0,-1.7856,-1.8111,-1.8245,-1.8538,-1.9393,-2.1228,-2.2496,-2.3405,-2.3858,-2.4015,-2.4103,-2.4103,-2.4905,-2.5721,-2.6495,-2.8008,-2.9506,-3.0886,-3.1489,-3.18,-3.18,-3.18,-3.18,-3.18,-3.1688,-3.15,-3.1308,-3.123,-3.119,-3.119,-3.119,-3.119,-3.1427,-3.4387,-3.5622,-3.5622,-3.5622,-3.5622,-3.5622,-3.5622,-3.5622,-3.5622,-3.5622,-3.5622,-3.5622,-3.5622,-3.5622,-3.5622,-3.5622,-3.5622,-3.5622,-3.5622,-3.5622,-3.5622,-3.5622,-3.5622,-3.5622,-3.5622,-3.6125,-3.6589,-3.6537,-3.5584,-3.4306,-3.2705,-3.2398,-3.2398,-3.2398,-3.2398,-3.2398,-3.2398,-3.2398,-3.2398,-3.2398,-3.2398,-3.2398,-3.2398,-3.2398,-3.2398,-3.2398,-3.2398,-3.2398,-3.2398,-3.2064,-3.1739,-3.1539,-3.1482,-3.1482,-3.1482,-3.1482,-3.1697,-3.2007,-3.2287,-3.2287,-3.2007,-3.2007,-3.2007,-2.1797,-2.1797,-2.1102,-1.8228,-1.7515,-1.7515,-1.7515,-1.7515,-1.7515,-1.7515,-1.7515,0.0,0.0,0.0,-1.7622,-1.7926,0.0,-1.7629,-1.7789,-1.7811,-1.8369,-1.9816,-2.1353,-2.2412,-2.2665,-2.2604,-2.2598,-2.2751,-2.3944,-2.4986,-2.5644,-2.7422,-2.8816,-2.9748,-3.0903,-3.1593,-3.18,-3.18,-3.18,-3.18,-3.1651,-3.1423,-3.119,-3.119,-3.119,-3.119,-3.119,-3.119,-3.1427,-3.4387,-3.5622,-3.5622,-3.5622,-3.5622,-3.5622,-3.5622,-3.5622,-3.5622,-3.5622,-3.5622,-3.5622,-3.5622,-3.5622,-3.5622,-3.5622,-3.5622,-3.5622,-3.5622,-3.5622,-3.5808,-3.6637,-3.684,-3.684,-3.684,-3.7647,-3.8049,-3.6785,-3.6492,-3.5907,-3.3906,-3.2906,-3.2398,-3.2398,-3.2398,-3.2398,-3.2398,-3.2398,-3.2398,-3.2398,-3.2398,-3.2398,-3.2398,-3.2398,-3.2398,-3.2398,-3.2398,-3.2398,-3.2398,-3.1966,-3.1754,-3.1754,-3.1582,-3.1482,-3.1482,-3.164,-3.1966,-3.2398,-3.2398,-3.2398,-3.2398,-3.2398,-3.2398,-2.1797,-2.1797,-2.1102,-1.8228,-1.7515,-1.7515,-1.7515,-1.7515,-1.7515,-1.7515,-1.7515,-1.7905,-1.927,-1.8419,-1.7837,-1.8785,-1.8144,0.0,0.0,-1.7811,-1.8369,-1.9816,-2.1353,-2.1938,-2.0974,-2.0433,-2.0331,-2.0839,-2.2907,-2.4356,-2.4905,-2.7147,-2.842,-2.8454,-2.9937,-3.1076,-3.1783,-3.18,-3.18,-3.18,-3.18,-3.1576,-3.119,-3.119,-3.119,-3.119,-3.119,-3.119,-3.1427,-3.4387,-3.5622,-3.5622,-3.5622,-3.5622,-3.5622,-3.5622,-3.5622,-3.5622,-3.5622,-3.5622,-3.5622,-3.5622,-3.5622,-3.5622,-3.5622,-3.5622,-3.5622,-3.5622,-3.5622,-3.6282,-3.9191,-3.9935,-3.9935,-3.9935,-3.9172,-3.8049,-3.6785,-3.6492,-3.6461,-3.6384,-3.4214,-3.2398,-3.2398,-3.2398,-3.2398,-3.2398,-3.2398,-3.2398,-3.2398,-3.2398,-3.2398,-3.2398,-3.2398,-3.2398,-3.2398,-3.2398,-3.2398,-3.2398,-3.2398,-3.2398,-3.2398,-3.1796,-3.1482,-3.1482,-3.2064,-3.2398,-3.2398,-3.2398,-3.2398,-3.2398,-3.2398,-3.2398,-2.1797,-2.1797,-2.1102,-1.8228,-1.7515,-1.7515,-1.7515,-1.7515,-1.7515,-1.7515,-1.9024,-2.0472,-2.0969,-2.0655,-1.9837,-1.8269,-1.7714,-1.7522,0.0,-1.7715,-1.7997,-1.8464,-1.9587,-2.0703,-2.1701,-2.0694,-1.9664,-1.8877,-2.0399,-2.2409,-2.4726,-2.6633,-2.7661,-2.7661,-2.8644,-2.9782,-3.1058,-3.0969,-3.119,-3.1651,-3.1614,-3.1462,-3.119,-3.119,-3.119,-3.119,-3.119,-3.119,-3.1427,-3.4387,-3.5622,-3.5622,-3.5622,-3.5622,-3.5622,-3.5622,-3.5622,-3.5622,-3.5622,-3.5622,-3.5622,-3.5622,-3.5622,-3.5622,-3.5622,-3.6992,-3.8565,-3.8565,-3.8565,-3.8802,-3.9817,-4.007,-4.007,-4.007,-3.9239,-3.8049,-3.6785,-3.6492,-3.6492,-3.6492,-3.5737,-3.4537,-3.2705,-3.2398,-3.2398,-3.2398,-3.2398,-3.2398,-3.2398,-3.2398,-3.2398,-3.2398,-3.2398,-3.2398,-3.2398,-3.2398,-3.2398,-3.2398,-3.2398,-3.2398,-3.2398,-3.1796,-3.1697,-3.2079,-3.2287,-3.2398,-3.2398,-3.2398,-3.2398,-3.2428,-3.426,-3.5106,-2.2079,-2.1797,-2.1334,-1.9479,-1.9041,-1.8775,-1.7747,-1.7515,-1.7797,-1.8825,-2.1334,-2.3354,-2.3354,-2.3354,-2.241,-1.9495,-1.8178,-1.7522,0.0,-1.7737,-1.7811,-1.7811,-1.9316,-2.045,-2.0686,-1.9799,-1.9258,-1.9401,-2.0272,-2.1712,-2.3794,-2.6007,-2.725,-2.7299,-2.8023,-2.9006,-3.0248,-3.0417,-3.0859,-3.1538,-3.1517,-3.1402,-3.119,-3.119,-3.119,-3.119,-3.119,-3.119,-3.1427,-3.4387,-3.5622,-3.5622,-3.5622,-3.5622,-3.5622,-3.5622,-3.5622,-3.5622,-3.5622,-3.5622,-3.5622,-3.5622,-3.5622,-3.5622,-3.5622,-3.7702,-4.007,-4.007,-4.007,-4.007,-4.007,-4.007,-4.007,-4.007,-3.9398,-3.8432,-3.7389,-3.7044,-3.68,-3.6554,-3.6492,-3.5938,-3.4152,-3.386,-3.3521,-3.2536,-3.3229,-3.349,-3.2521,-3.2398,-3.2398,-3.2398,-3.2398,-3.2398,-3.2398,-3.2398,-3.2398,-3.2398,-3.2398,-3.2398,-3.2398,-3.2023,-3.2023,-3.2398,-3.2398,-3.2398,-3.2398,-3.2398,-3.289,-3.3891,-3.566,-3.6492]},{"header":{"parameterUnit":"m.s-1","parameterCategory":1,"la1":30.6,"la2":29.2853,"lo1":-89.7004,"lo2":-87.6739,"dy":0.0162,"dx":0.0183,"nx":112,"ny":82,"refTime":"2026-05-24T00:00:00:Z","depth":0,"parameterNumber":3,"parameterNumberName":"V-component_of_WINDS"},"data":[0.0,0.0,0.0,0.0,0.0,0.0,0.0,0.0,0.0,0.0,0.0,0.0,0.0,0.0,0.0,0.0,0.0,0.0,0.0,0.0,0.0,0.0,0.0,0.0,0.0,0.0,0.0,0.0,0.0,0.0,0.0,0.0,0.0,0.0,0.0,0.0,0.0,0.0,0.0,0.0,0.0,0.0,0.0,0.0,0.0,0.0,0.0,0.0,0.0,0.0,0.0,0.0,0.0,0.0,0.0,0.0,0.0,0.0,0.0,0.0,0.0,0.0,0.0,0.0,0.0,0.0,0.0,0.0,0.0,0.0,0.0,0.0,0.0,0.0,0.0,0.0,0.0,0.0,0.0,0.0,0.0,0.0,0.0,0.0,0.0,0.0,0.0,0.0,0.0,0.0,-0.7916,-0.9898,-1.1091,-1.1725,-1.1615,-1.1065,-1.0294,-0.9278,0.0,0.0,0.0,0.0,0.0,0.0,0.0,0.0,0.0,0.0,0.0,0.0,0.0,0.0,0.0,0.0,0.0,0.0,0.0,0.0,0.0,0.0,0.0,0.0,0.0,0.0,0.0,0.0,0.0,0.0,0.0,0.0,0.0,0.0,0.0,0.0,0.0,0.0,0.0,0.0,0.0,0.0,0.0,0.0,0.0,0.0,0.0,0.0,0.0,0.0,0.0,0.0,0.0,0.0,0.0,0.0,0.0,0.0,0.0,0.0,0.0,0.0,0.0,0.0,0.0,0.0,0.0,0.0,0.0,0.0,0.0,0.0,0.0,0.0,0.0,0.0,0.0,0.0,0.0,0.0,0.0,0.0,0.0,0.0,0.0,0.0,0.0,0.0,0.0,0.0,0.0,0.0,0.0,0.0,0.0,0.0,0.0,0.0,0.0,0.0,0.0,0.0,0.0,0.0,-0.9181,-1.1198,-1.1541,-1.1615,-1.1601,-1.1454,-1.0785,-0.9368,0.0,0.0,0.0,0.0,0.0,0.0,0.0,0.0,0.0,0.0,0.0,0.0,0.0,0.0,0.0,0.0,0.0,0.0,0.0,0.0,0.0,0.0,0.0,0.0,0.0,0.0,0.0,0.0,0.0,0.0,0.0,0.0,0.0,0.0,0.0,0.0,0.0,0.0,0.0,0.0,0.0,0.0,0.0,0.0,0.0,0.0,0.0,0.0,0.0,0.0,0.0,0.0,0.0,0.0,0.0,0.0,0.0,0.0,0.0,0.0,0.0,0.0,0.0,0.0,0.0,0.0,0.0,0.0,0.0,0.0,0.0,0.0,0.0,0.0,0.0,0.0,0.0,0.0,0.0,0.0,0.0,0.0,0.0,0.0,0.0,0.0,0.0,0.0,0.0,0.0,0.0,0.0,0.0,0.0,0.0,0.0,0.0,0.0,0.0,0.0,0.0,0.0,0.0,-0.8815,-1.0332,-1.1627,-1.1659,-1.1601,-1.1601,-1.1541,-1.0886,-0.9441,-0.7812,0.0,0.0,0.0,0.0,0.0,0.0,0.0,0.0,0.0,0.0,0.0,0.0,0.0,0.0,0.0,0.0,0.0,0.0,0.0,0.0,0.0,0.0,0.0,0.0,0.0,0.0,0.0,0.0,0.0,0.0,0.0,0.0,0.0,0.0,0.0,0.0,0.0,0.0,0.0,0.0,0.0,0.0,0.0,0.0,0.0,0.0,0.0,0.0,0.0,0.0,0.0,0.0,0.0,0.0,0.0,0.0,0.0,0.0,0.0,0.0,0.0,0.0,0.0,0.0,0.0,0.0,0.0,0.0,0.0,0.0,0.0,0.0,0.0,0.0,0.0,0.0,0.0,0.0,0.0,0.0,0.0,0.0,0.0,0.0,0.0,0.0,0.0,0.0,0.0,0.0,0.0,0.0,0.0,0.0,0.0,0.0,0.0,0.0,0.0,0.0,0.0,0.0,-1.0021,-1.1061,-1.173,-1.1681,-1.1615,-1.1615,-1.1432,-1.077,-0.949,-0.8021,0.0,0.0,0.0,0.0,0.0,0.0,0.0,0.0,0.0,0.0,0.0,0.0,0.0,0.0,0.0,0.0,0.0,0.0,0.0,0.0,0.0,0.0,0.0,0.0,0.0,0.0,0.0,0.0,0.0,0.0,0.0,0.0,0.0,0.0,0.0,0.0,0.0,0.0,0.0,0.0,0.0,0.0,0.0,0.0,0.0,0.0,0.0,0.0,0.0,0.0,0.0,0.0,0.0,0.0,0.0,0.0,0.0,0.0,0.0,0.0,0.0,0.0,0.0,0.0,0.0,0.0,0.0,0.0,0.0,0.0,0.0,0.0,0.0,0.0,0.0,0.0,0.0,0.0,0.0,0.0,0.0,0.0,0.0,0.0,0.0,0.0,0.0,0.0,0.0,0.0,0.0,0.0,0.0,0.0,0.0,0.0,0.0,0.0,0.0,0.0,0.0,0.0,-1.0288,-1.1051,-1.173,-1.1725,-1.1681,-1.1681,-1.1121,-1.0391,-0.9546,-0.7656,0.0,0.0,0.0,0.0,0.0,0.0,0.0,0.0,0.0,0.0,0.0,0.0,0.0,0.0,0.0,0.0,0.0,0.0,0.0,0.0,0.0,0.0,0.0,0.0,0.0,0.0,0.0,0.0,0.0,0.0,0.0,0.0,0.0,0.0,0.0,0.0,0.0,0.0,0.0,0.0,0.0,0.0,0.0,0.0,0.0,0.0,0.0,0.0,0.0,0.0,0.0,0.0,0.0,0.0,0.0,0.0,0.0,0.0,0.0,0.0,0.0,0.0,0.0,0.0,0.0,0.0,0.0,0.0,0.0,0.0,0.0,0.0,0.0,0.0,0.0,0.0,0.0,0.0,0.0,0.0,0.0,0.0,0.0,0.0,0.0,0.0,0.0,0.0,0.0,0.0,0.0,0.0,0.0,0.0,0.0,0.0,0.0,0.0,0.0,0.0,0.0,0.0,-1.0573,-1.1414,-1.1652,-1.1652,-1.1645,-1.1645,-1.0971,-1.0227,-0.9423,0.0,0.0,0.0,0.0,0.0,0.0,0.0,0.0,0.0,0.0,0.0,0.0,0.0,0.0,0.0,0.0,0.0,0.0,0.0,0.0,0.0,0.0,0.0,0.0,0.0,0.0,0.0,0.0,0.0,0.0,0.0,0.0,0.0,0.0,0.0,0.0,0.0,0.0,0.0,0.0,0.0,0.0,0.0,0.0,0.0,0.0,0.0,0.0,0.0,0.0,0.0,0.0,0.0,0.0,0.0,0.0,0.0,0.0,0.0,0.0,0.0,0.0,0.0,0.0,0.0,0.0,0.0,0.0,0.0,0.0,0.0,0.0,0.0,0.0,0.0,0.0,0.0,0.0,0.0,0.0,0.0,0.0,0.0,0.0,0.0,0.0,0.0,0.0,0.0,0.0,0.0,0.0,0.0,0.0,0.0,0.0,0.0,0.0,0.0,0.0,0.0,0.0,-0.9204,-1.0591,-1.1437,-1.1437,-1.1429,-1.1444,-1.1444,-1.0778,-1.0029,-0.9267,0.0,0.0,0.0,0.0,0.0,0.0,0.0,0.0,0.0,0.0,0.0,0.0,0.0,0.0,0.0,0.0,0.0,0.0,0.0,0.0,0.0,0.0,0.0,0.0,0.0,0.0,0.0,0.0,0.0,0.0,0.0,0.0,0.0,0.0,0.0,0.0,0.0,0.0,0.0,0.0,0.0,0.0,0.0,0.0,0.0,0.0,0.0,0.0,0.0,0.0,0.0,0.0,0.0,0.0,0.0,0.0,0.0,0.0,0.0,0.0,0.0,0.0,0.0,0.0,0.0,0.0,0.0,0.0,0.0,0.0,0.0,0.0,0.0,0.0,0.0,0.0,0.0,0.0,0.0,0.0,0.0,0.0,0.0,0.0,0.0,0.0,0.0,0.0,0.0,0.0,0.0,0.0,0.0,0.0,0.0,0.0,0.0,0.0,0.0,0.0,0.0,0.0,-0.8933,-1.0269,-1.1085,-1.1085,-1.1085,-1.1085,-1.1085,-1.0479,-0.9786,0.0,0.0,0.0,0.0,0.0,0.0,0.0,0.0,0.0,0.0,0.0,0.0,0.0,0.0,0.0,0.0,0.0,0.0,0.0,0.0,0.0,0.0,0.0,0.0,0.0,0.0,0.0,0.0,0.0,0.0,0.0,0.0,0.0,0.0,0.0,0.0,0.0,0.0,0.0,0.0,0.0,0.0,0.0,0.0,0.0,0.0,0.0,0.0,0.0,0.0,0.0,0.0,0.0,0.0,0.0,0.0,0.0,0.0,0.0,0.0,0.0,0.0,0.0,0.0,0.0,0.0,0.0,0.0,0.0,0.0,0.0,0.0,0.0,0.0,0.0,0.0,0.0,0.0,0.0,0.0,0.0,0.0,0.0,0.0,0.0,0.0,0.0,0.0,0.0,0.0,0.0,0.0,0.0,0.0,0.0,0.0,0.0,0.0,0.0,0.0,0.0,0.0,0.0,-0.8877,-1.0151,-1.0968,-1.0968,-1.0968,-1.0968,-1.0968,-1.0353,-0.9645,-0.8907,0.0,0.0,0.0,0.0,0.0,0.0,0.0,0.0,0.0,0.0,0.0,0.0,0.0,0.0,0.0,0.0,0.0,0.0,0.0,0.0,0.0,0.0,0.0,0.0,0.0,0.0,0.0,0.0,0.0,0.0,0.0,0.0,0.0,0.0,0.0,0.0,0.0,0.0,0.0,0.0,0.0,0.0,0.0,0.0,0.0,0.0,0.0,0.0,0.0,0.0,0.0,0.0,0.0,0.0,0.0,0.0,0.0,0.0,0.0,0.0,0.0,0.0,0.0,0.0,0.0,0.0,0.0,0.0,0.0,0.0,0.0,0.0,0.0,0.0,0.0,0.0,0.0,0.0,0.0,0.0,0.0,0.0,0.0,0.0,0.0,0.0,0.0,0.0,0.0,0.0,0.0,0.0,0.0,0.0,0.0,0.0,0.0,0.0,0.0,0.0,0.0,0.0,-0.9014,-1.0053,-1.0656,-1.0656,-1.0872,-1.0913,-1.0683,-1.0511,-0.9893,-0.8665,0.0,0.0,0.0,0.0,0.0,0.0,0.0,0.0,0.0,0.0,0.0,0.0,0.0,0.0,0.0,0.0,0.0,0.0,0.0,0.0,0.0,0.0,0.0,0.0,0.0,0.0,0.0,0.0,0.0,0.0,0.0,0.0,0.0,0.0,0.0,0.0,0.0,0.0,0.0,0.0,0.0,0.0,0.0,0.0,0.0,0.0,0.0,0.0,0.0,0.0,0.0,0.0,0.0,0.0,0.0,0.0,0.0,0.0,0.0,0.0,0.0,0.0,0.0,0.0,0.0,0.0,0.0,0.0,0.0,0.0,0.0,0.0,0.0,0.0,0.0,0.0,0.0,0.0,0.0,0.0,0.0,0.0,0.0,0.0,0.0,0.0,0.0,0.0,0.0,0.0,0.0,0.0,0.0,0.0,0.0,0.0,0.0,0.0,0.0,0.0,0.0,0.0,-0.921,-0.9945,-1.0299,-1.0299,-1.0795,-1.0886,-1.0352,-1.0808,-1.0301,-0.8426,0.0,0.0,0.0,0.0,0.0,0.0,0.0,0.0,0.0,0.0,0.0,0.0,0.0,0.0,0.0,0.0,0.0,0.0,0.0,0.0,0.0,0.0,0.0,0.0,0.0,0.0,0.0,0.0,0.0,0.0,0.0,0.0,0.0,0.0,0.0,0.0,0.0,0.0,0.0,0.0,0.0,0.0,0.0,0.0,0.0,0.0,0.0,0.0,0.0,0.0,0.0,0.0,0.0,0.0,0.0,0.0,0.0,0.0,0.0,0.0,-1.0277,-1.0233,0.0,0.0,0.0,0.0,0.0,0.0,0.0,0.0,0.0,0.0,0.0,0.0,0.0,0.0,0.0,0.0,0.0,0.0,0.0,0.0,0.0,0.0,0.0,0.0,0.0,0.0,0.0,0.0,0.0,0.0,0.0,0.0,0.0,0.0,0.0,0.0,0.0,0.0,0.0,0.0,-0.867,-0.9674,-1.0299,-1.0299,-1.0417,-1.0443,-1.0312,-1.0417,-0.9886,-0.8474,-0.764,0.0,0.0,0.0,0.0,0.0,0.0,0.0,0.0,0.0,0.0,0.0,0.0,0.0,0.0,0.0,0.0,0.0,0.0,0.0,0.0,0.0,0.0,0.0,0.0,0.0,0.0,0.0,0.0,0.0,0.0,0.0,0.0,0.0,0.0,0.0,0.0,0.0,0.0,0.0,0.0,0.0,0.0,0.0,0.0,0.0,0.0,0.0,0.0,0.0,0.0,0.0,0.0,0.0,0.0,0.0,0.0,0.0,0.0,0.0,-1.3125,-1.3269,0.0,0.0,0.0,0.0,0.0,0.0,0.0,0.0,0.0,0.0,0.0,0.0,0.0,0.0,0.0,0.0,0.0,0.0,0.0,0.0,0.0,0.0,0.0,0.0,0.0,0.0,0.0,0.0,0.0,0.0,0.0,0.0,0.0,0.0,0.0,0.0,0.0,0.0,0.0,0.0,-0.9309,-1.0207,-1.0638,-1.0339,-1.0795,-1.0899,-1.0352,-1.056,-1.0196,-0.8915,-0.8241,0.0,0.0,0.0,0.0,0.0,0.0,0.0,0.0,0.0,0.0,0.0,0.0,0.0,0.0,0.0,0.0,0.0,0.0,0.0,0.0,0.0,0.0,0.0,0.0,0.0,0.0,0.0,0.0,0.0,0.0,0.0,0.0,0.0,0.0,0.0,0.0,0.0,0.0,0.0,0.0,0.0,0.0,0.0,0.0,0.0,0.0,0.0,0.0,0.0,0.0,0.0,0.0,0.0,-1.693,-1.693,-1.693,-1.693,-1.6622,-1.6153,-1.6091,-1.6367,-1.6571,-1.3384,0.0,0.0,0.0,0.0,0.0,0.0,0.0,0.0,0.0,0.0,0.0,0.0,0.0,0.0,0.0,0.0,0.0,0.0,0.0,0.0,0.0,0.0,-1.5218,-1.4171,-1.3925,-1.3307,-1.1141,0.0,0.0,0.0,0.0,0.0,0.0,0.0,0.0,0.0,0.0,0.0,-1.0245,-1.0952,-1.1188,-1.069,-1.1355,-1.1473,-1.0534,-1.0821,-1.0521,-0.9375,-0.8829,-0.8009,0.0,0.0,0.0,0.0,0.0,0.0,0.0,0.0,0.0,0.0,0.0,0.0,0.0,0.0,0.0,0.0,0.0,0.0,0.0,0.0,0.0,0.0,0.0,0.0,0.0,0.0,0.0,0.0,0.0,0.0,0.0,0.0,-0.5539,-0.8221,0.0,0.0,0.0,0.0,0.0,0.0,0.0,0.0,0.0,0.0,0.0,0.0,0.0,-1.5805,-1.6492,-1.6187,-1.728,-1.9765,-1.9765,-1.9765,-1.9765,-1.9765,-1.9731,-1.963,-1.9271,0.0,-1.8991,-1.571,0.0,0.0,0.0,0.0,0.0,0.0,0.0,0.0,0.0,0.0,0.0,0.0,0.0,0.0,0.0,0.0,0.0,0.0,0.0,0.0,0.0,0.0,-1.4063,-1.3656,-1.3565,-1.3462,-1.3059,-1.2245,-1.1249,-1.0123,-0.9072,-0.8309,0.0,0.0,0.0,0.0,0.0,0.0,-1.0536,-1.1428,-1.2047,-1.1968,-1.1569,-1.1226,-1.1082,-1.0612,-1.0044,-0.9328,-0.9156,-0.8735,-0.7937,-0.7376,0.0,0.0,0.0,0.0,0.0,0.0,0.0,0.0,0.0,0.0,0.0,0.0,0.0,0.0,0.0,0.0,0.0,0.0,0.0,0.0,0.0,0.0,0.0,0.0,0.0,0.0,0.0,0.0,0.0,-0.593,-0.8111,-1.1145,-1.1269,-1.0416,0.0,0.0,0.0,0.0,0.0,0.0,0.0,0.0,0.0,-1.4452,-1.5697,-1.7202,-1.8886,-1.8764,-1.9214,-2.0304,-2.0304,-2.0946,-2.2167,-2.2167,-2.2167,-2.2128,-2.1427,-2.1109,-2.0907,-1.8049,-1.5957,-1.4446,0.0,0.0,0.0,0.0,-1.2841,-1.3011,-1.3011,-1.3011,-1.3233,-1.462,0.0,0.0,0.0,0.0,0.0,0.0,0.0,-1.6435,-1.5983,-1.5481,-1.5051,-1.4888,-1.4645,-1.4327,-1.3839,-1.3402,-1.2835,-1.1927,-1.1015,-1.0459,-1.0652,-1.0326,0.0,0.0,0.0,-1.1696,-1.1616,-1.2283,-1.2608,-1.2232,-1.2173,-1.201,-1.164,-1.1227,-1.0746,-1.0173,-1.0083,-0.9604,-0.8649,-0.8321,-0.7575,0.0,0.0,0.0,0.0,0.0,0.0,0.0,0.0,0.0,0.0,0.0,0.0,0.0,0.0,0.0,0.0,0.0,0.0,0.0,0.0,0.0,0.0,0.0,0.0,0.0,0.0,0.0,0.0,-0.7414,-0.9894,-1.2891,-1.3502,-1.2607,0.0,0.0,0.0,0.0,0.0,0.0,-1.3893,-1.6308,-1.7556,-1.7253,-1.7164,-1.7971,-1.9818,-2.0585,-2.1081,-2.1301,-2.1191,-2.1868,-2.3246,-2.3246,-2.3246,-2.3201,-2.2495,-2.2184,-2.2044,-2.0217,-1.7983,-1.5716,-1.5346,-1.5085,-1.4875,-1.5119,-1.5448,-1.575,-1.575,-1.575,-1.6025,-1.7762,-1.8361,-1.7824,-1.5019,0.0,0.0,0.0,0.0,-1.7625,-1.6831,-1.633,-1.6006,-1.5974,-1.5726,-1.5336,-1.4729,-1.4518,-1.4166,-1.3233,-1.2548,-1.2247,-1.2623,-1.2306,0.0,-1.2525,-1.273,-1.2797,-1.2669,-1.3092,-1.3214,-1.2697,-1.2791,-1.2685,-1.2161,-1.1789,-1.1341,-1.0774,-1.0691,-1.0212,-0.9219,-0.9033,-0.8294,-0.6858,0.0,0.0,0.0,0.0,0.0,0.0,0.0,0.0,0.0,0.0,0.0,0.0,0.0,0.0,0.0,0.0,0.0,0.0,0.0,0.0,0.0,0.0,0.0,0.0,0.0,0.0,0.0,0.0,0.0,-1.2488,-1.4711,0.0,0.0,0.0,0.0,-1.2015,-1.4734,-1.6537,-1.6872,-1.9238,-2.0424,-2.0104,-1.9708,-1.9229,-1.8581,-2.1355,-2.3214,-2.4102,-2.367,-2.3025,-2.2278,-2.2278,-2.2278,-2.2278,-2.2231,-2.2184,-2.217,-2.2044,-2.0555,-1.8257,-1.7851,-1.7706,-1.7706,-1.7706,-1.797,-1.8335,-1.8335,-1.8335,-1.8271,-1.8002,-1.7922,-1.7434,-1.4655,-1.3742,0.0,0.0,-1.7272,-1.7503,-1.745,-1.67,-1.6037,-1.6172,-1.6239,-1.6255,-1.6255,-1.582,-1.4943,-1.3235,-1.2844,-1.2747,-1.272,0.0,-1.2706,-1.2622,-1.3072,-1.3424,-1.3364,-1.3709,-1.3946,-1.3906,-1.3282,-1.2855,-1.2774,-1.2,-1.1253,-1.0659,-1.055,-1.0263,-0.9686,-0.9293,-0.8757,-0.8026,-0.7006,0.0,0.0,0.0,0.0,0.0,0.0,0.0,0.0,0.0,0.0,0.0,0.0,0.0,0.0,0.0,0.0,0.0,0.0,0.0,0.0,0.0,0.0,0.0,0.0,0.0,0.0,0.0,0.0,-1.4922,-1.5346,0.0,-1.5015,-1.4256,-1.3984,-1.4485,-1.5479,-1.699,-1.9045,-1.9997,-2.0289,-1.994,-1.9508,-1.9807,-2.0864,-2.2216,-2.3231,-2.3867,-2.3348,-2.2828,-2.2184,-2.2184,-2.2184,-2.2184,-2.2184,-2.2184,-2.2184,-2.2184,-2.1664,-2.0878,-2.0745,-2.0657,-2.0657,-2.0657,-2.0745,-2.0878,-2.0878,-2.0878,-2.0524,-1.819,-1.8481,-1.9509,-1.8543,-1.8249,-1.8419,-1.9245,-1.9373,-1.8929,-1.7492,-1.6898,-1.6652,-1.6437,-1.6163,-1.5932,-1.5995,-1.5892,-1.5562,-1.4958,-1.431,-1.3896,-1.3984,-1.4058,-1.4058,-1.3954,-1.4059,-1.4118,-1.3975,-1.3977,-1.3967,-1.3927,-1.3644,-1.3441,-1.3264,-1.2743,-1.2004,-1.1117,-1.0828,-1.0355,-0.9601,-0.9564,-0.9292,-0.8755,-0.8072,-0.742,0.0,0.0,0.0,0.0,0.0,0.0,0.0,0.0,0.0,0.0,0.0,0.0,0.0,0.0,0.0,0.0,0.0,0.0,0.0,0.0,0.0,0.0,0.0,0.0,0.0,-1.201,-1.3642,-1.6239,-1.6049,-1.5771,-1.5883,-1.571,-1.5945,-1.6871,-1.6784,-1.7585,-1.96,-1.969,-1.9654,-1.9493,-2.006,-2.1038,-2.2402,-2.2752,-2.3068,-2.3348,-2.2873,-2.2509,-2.2184,-2.2184,-2.2184,-2.2184,-2.2184,-2.2184,-2.2184,-2.2184,-2.2184,-2.2184,-2.2184,-2.2184,-2.2184,-2.2184,-2.2184,-2.2184,-2.2184,-2.2091,-2.1578,-1.9342,-1.9675,-2.0947,-2.0947,-2.0848,-2.0649,-2.0435,-2.0233,-1.9737,-1.8168,-1.7498,-1.7218,-1.6905,-1.6583,-1.6336,-1.6231,-1.6097,-1.6013,-1.6051,-1.5548,-1.5103,-1.5183,-1.5249,-1.5263,-1.5164,-1.5004,-1.4802,-1.4526,-1.4286,-1.4072,-1.3821,-1.3741,-1.3607,-1.3391,-1.3047,-1.2375,-1.1228,-1.0919,-1.0379,-0.9467,-0.9658,-0.9528,-0.9042,-0.8374,-0.7721,-0.7088,0.0,0.0,0.0,0.0,0.0,0.0,0.0,0.0,0.0,0.0,0.0,0.0,0.0,0.0,0.0,0.0,0.0,0.0,0.0,0.0,0.0,0.0,0.0,-1.594,-1.4101,-1.353,-1.6071,-1.6861,-1.6712,-1.5474,-1.6794,-1.8066,-1.9037,-1.8736,-1.8517,-1.8517,-1.8588,-1.8825,-1.9217,-2.1599,-2.2888,-2.2888,-2.2888,-2.2888,-2.2843,-2.2417,-2.2184,-2.2184,-2.2184,-2.2226,-2.2297,-2.2297,-2.2297,-2.2297,-2.2297,-2.2297,-2.2283,-2.2212,-2.2184,-2.2184,-2.2184,-2.2184,-2.2184,-2.2184,-2.1841,-2.1423,-2.1423,-2.1423,-2.1423,-2.1423,-2.1082,-2.0549,-1.9965,-1.9798,-1.9708,-1.946,-1.8499,-1.7614,-1.7529,-1.7543,-1.7485,-1.7093,-1.6578,-1.6257,-1.6402,-1.6311,-1.6213,-1.6172,-1.6244,-1.6208,-1.6028,-1.5821,0.0,-1.4871,-1.4615,-1.424,-1.3672,-1.3527,-1.3391,-1.3094,-1.292,-1.2239,-1.0979,-1.0774,-1.0289,-0.9348,-0.9552,-0.9427,-0.8911,-0.7879,-0.6998,-0.6319,0.0,0.0,0.0,0.0,0.0,0.0,0.0,0.0,0.0,0.0,0.0,0.0,0.0,0.0,0.0,0.0,0.0,0.0,0.0,0.0,0.0,-1.2123,-1.4033,-1.5675,-1.501,-1.4791,-1.5902,-1.6518,-1.6891,-1.705,-1.7228,-1.7826,-1.8999,-1.8988,-1.8812,-1.8517,-2.0513,-2.1758,-2.1845,-2.2526,-2.2752,-2.2417,-2.237,-2.237,-2.237,-2.2278,-2.2184,-2.2184,-2.2184,-2.3168,-2.4868,-2.4868,-2.4868,-2.4868,-2.4868,-2.4868,-2.4699,-2.2887,-2.2184,-2.2184,-2.2184,-2.2184,-2.2184,-2.2184,-2.2091,-2.1996,-2.1996,-2.1996,-2.1996,-2.1996,-2.1375,-2.0498,-1.9512,-1.9198,-1.9186,-1.9146,-1.8729,-1.8227,-1.7877,-1.7501,-1.721,-1.7226,-1.6802,-1.6494,-1.6715,-1.6874,-1.6692,-1.6029,-1.5991,-1.5978,-1.5671,-1.5423,-1.5158,-1.4891,-1.4448,-1.4071,-1.3848,-1.3436,-1.3129,-1.2908,-1.2697,-1.2091,-1.0979,-1.0711,-1.0198,-0.9279,-0.9393,-0.9273,-0.8827,-0.8523,-0.7903,0.0,0.0,0.0,0.0,0.0,0.0,0.0,0.0,0.0,0.0,0.0,0.0,0.0,0.0,0.0,0.0,0.0,0.0,0.0,0.0,0.0,0.0,-1.3031,-1.4717,-1.6186,-1.6023,-1.5762,-1.5755,-1.6646,-1.7368,-1.7569,-1.7817,-1.8303,-1.9043,-2.0103,-2.059,-2.0356,-2.196,-2.2888,-2.2888,-2.2706,-2.2463,-2.2184,-2.2184,-2.2704,-2.3744,-2.3744,-2.3744,-2.3744,-2.3744,-2.4531,-2.5893,-2.5893,-2.5893,-2.5893,-2.5893,-2.5893,-2.5753,0.0,0.0,0.0,0.0,-2.2923,-2.1841,-2.1664,-2.1568,-2.1568,-2.1568,-2.1568,-2.1568,-2.1568,-2.097,-2.0131,-1.9251,-1.8987,-1.8987,-1.8987,-1.8863,-1.8666,-1.8117,-1.78,-1.7506,-1.7368,-1.6934,-1.6596,-1.6829,-1.6888,0.0,-1.6151,-1.631,-1.6426,-1.6153,-1.5823,-1.552,-1.5174,-1.4835,-1.4385,-1.3877,-1.352,-1.313,-1.2709,-1.2544,0.0,0.0,0.0,-1.057,-0.9881,-0.9961,0.0,0.0,0.0,0.0,0.0,-0.7467,0.0,0.0,-0.6282,-0.6335,0.0,0.0,0.0,0.0,0.0,0.0,0.0,0.0,0.0,0.0,0.0,0.0,0.0,0.0,0.0,0.0,-1.3818,-1.5705,-1.6837,-1.6846,-1.6514,-1.5844,-1.7098,-1.7905,-1.7549,-1.8455,-1.9179,-1.9522,-2.1599,-2.2888,-2.2888,-2.2888,0.0,0.0,0.0,-2.2184,-2.2184,-2.2184,-2.3435,-2.5893,-2.5893,-2.5893,-2.5893,-2.5893,-2.5893,-2.5893,-2.5893,-2.5839,-2.5674,-2.566,-2.5605,-2.5605,-2.5839,-2.5893,-2.5893,-2.5893,-2.4124,-2.1592,-2.0791,0.0,0.0,-2.0498,-2.068,-2.0888,-2.0888,-2.0513,-1.9915,-1.9206,-1.8987,-1.8987,-1.8987,-1.8987,-1.8867,-1.8398,-1.8241,-1.8073,-1.7604,-1.7039,-1.6618,-1.6791,-1.6633,-1.6436,-1.6392,-1.6778,-1.7031,-1.6833,-1.6534,-1.6132,-1.562,-1.5426,-1.4943,-1.3863,-1.363,0.0,-1.2508,-1.2401,-1.2083,-1.1354,-1.124,-1.1077,-1.0786,-1.0774,-1.0583,-1.0144,-0.9765,-0.9331,-0.8858,-0.8262,-0.8249,-0.8769,-0.8348,-0.8299,0.0,0.0,0.0,0.0,0.0,0.0,0.0,0.0,0.0,0.0,0.0,0.0,0.0,0.0,0.0,-1.414,-1.4979,-1.54,-1.5647,-1.6477,-1.7156,-1.7325,-1.7519,-1.7777,-1.8224,-1.8617,-1.98,-2.2004,-2.2613,-2.2888,-2.2888,-2.2888,-2.2752,-2.237,-2.2231,-2.2184,-2.2184,-2.2184,-2.3435,-2.5893,-2.5893,0.0,-2.5893,-2.5893,-2.5893,-2.5893,-2.5893,-2.5342,-2.4447,-2.4176,-2.3872,-2.3767,-2.5314,-2.5893,-2.5893,-2.5893,-2.4929,-2.3171,-2.0345,-1.9356,-1.9356,-1.9356,-2.0489,-2.1932,-2.1932,-2.1812,0.0,-1.9534,-1.8987,-1.8987,-1.8987,-1.8987,-1.8963,-1.8867,-1.8506,-1.8169,-1.8073,-1.7291,-1.6618,-1.6791,-1.65,-1.6231,-1.6231,-1.6436,-1.6565,-1.6362,-1.61,-1.5888,-1.5736,-1.535,-1.4802,-1.4101,-1.3619,-1.3067,-1.2329,-1.2246,-1.1966,-1.1354,-1.0952,-1.07,-1.0639,-1.0628,-1.0582,-1.0521,-1.0479,-1.0454,-1.0457,-1.0333,-1.0315,-1.0415,-0.9226,-0.8805,0.0,0.0,0.0,0.0,0.0,0.0,0.0,0.0,0.0,0.0,0.0,-0.9462,-1.1659,0.0,-1.2815,-1.4505,-1.4808,-1.4808,-1.4808,-1.5995,-1.7041,-1.7461,-1.7808,-1.7637,-1.6747,-1.7698,-1.9597,-2.2655,-2.2888,-2.2888,-2.2888,-2.2661,-2.2417,-2.2231,-2.2184,-2.2324,-2.2555,-2.2555,-2.384,-2.634,-2.634,-2.634,-2.634,-2.634,-2.634,-2.6286,-2.5397,-2.4492,-2.3569,-2.3065,-2.2775,-2.2714,-2.3695,-2.4221,-2.4509,-2.4509,-2.4015,-2.3119,-2.125,-2.0586,-2.0586,-2.0586,-2.132,-2.2197,-2.2197,-2.2197,-2.1969,-2.0899,-2.0081,-1.954,-1.954,-1.9263,-1.8987,-1.8987,-1.8794,-1.8602,-1.8602,-1.7772,-1.7015,-1.711,-1.6514,-1.6013,-1.6013,-1.61,-1.6132,-1.61,-1.5925,-1.5792,-1.5792,-1.5564,-1.5193,-1.4612,-1.4006,-1.3406,-1.2751,-1.2361,-1.2034,-1.171,-1.148,-1.1342,-1.1342,-1.1342,-1.1216,-1.0975,-1.0996,-1.0955,-1.0857,-1.0774,-1.0935,-1.1234,-1.031,-0.9914,0.0,0.0,0.0,0.0,0.0,0.0,0.0,-0.7722,-0.8664,-1.1438,-1.1727,-1.1939,-1.3402,-1.3687,-1.3775,-1.4026,-1.4092,-1.4092,-1.4092,-1.5543,-1.6683,-1.7022,-1.7885,-1.7656,-1.5588,-1.6729,-1.9015,-2.2369,-2.231,-2.2156,-2.2156,-2.1969,-2.1888,-2.1888,-2.2062,-2.2283,-2.2677,-2.3122,-2.4375,-2.6447,-2.6447,-2.6447,-2.6447,-2.6447,-2.6447,-2.634,-2.4664,-2.3616,-2.3065,-2.2555,-2.2247,-2.2197,-2.2197,-2.2494,-2.2896,-2.2896,-2.2787,-2.2555,-2.2321,-2.2197,-2.2197,-2.2197,-2.2197,-2.2197,-2.2197,-2.2197,-2.2161,-2.2017,-2.1067,-2.0081,-2.0033,-1.9504,-1.8987,-1.8987,-1.8987,-1.8987,-1.8987,-1.8157,-1.7412,-1.7412,-1.6512,-1.5792,-1.5792,-1.5792,-1.5836,-1.5957,-1.5869,-1.5792,-1.5792,-1.5792,-1.5588,-1.5018,-1.4517,-1.3886,-1.32,-1.2512,-1.2113,-1.2113,-1.2113,-1.2113,-1.2113,-1.2113,-1.1882,-1.1469,-1.1469,-1.1307,-1.1067,-1.0948,-1.1156,-1.1686,-1.133,-1.1052,-0.7345,-0.8713,-1.0276,-1.1005,-1.1038,-1.0723,0.0,-1.0311,-1.1547,-1.4646,-1.4775,-1.4118,-1.3387,-1.3267,-1.3267,-1.3335,-1.3335,-1.3335,-1.3335,-1.5171,-1.6532,-1.6574,-1.7572,-1.8052,-1.7581,-1.7001,-1.8007,-2.1329,-2.0245,-1.9436,-1.9436,-2.0295,-2.0759,-2.0759,-2.1445,-2.1869,-2.1923,-2.3837,-2.4901,-2.5174,-2.5174,-2.5174,-2.5174,-2.5174,-2.5174,-2.5118,-2.378,-2.3185,-2.31,-2.2787,-2.2445,-2.2197,-2.2197,-2.2247,-2.2309,-2.2309,-2.2247,-2.2259,-2.2197,-2.2197,-2.2197,-2.2197,-2.2197,-2.2197,-2.2197,-2.2197,-2.2053,-2.1404,-2.067,-2.0045,-1.9865,-1.9408,-1.8987,-1.8987,-1.8987,-1.8987,-1.8987,-1.8157,-1.7412,-1.7412,-1.6512,-1.5792,-1.5792,-1.5792,-1.5792,-1.5836,-1.5792,-1.5792,-1.5792,-1.5792,-1.5557,-1.4988,-1.4839,-1.4317,-1.3132,-1.245,-1.2113,-1.2113,-1.2113,-1.2113,-1.2113,-1.2113,-1.2079,-1.2021,-1.2021,-1.1998,-1.1941,-1.1941,-1.1975,-1.2033,-1.1864,-1.1729,-0.8874,-0.9826,-1.1023,-1.2106,-1.2326,-1.2265,-1.2122,-1.2901,-1.4074,-1.5502,-1.5418,-1.4825,-1.3993,-1.3674,-1.3472,-1.3232,-1.3198,-1.3649,-1.4926,-1.5944,-1.6522,-1.6522,-1.6934,-1.7199,-1.7073,-1.6723,-1.7606,-2.0291,-1.9552,-1.8987,-1.8987,-1.9552,-2.0217,-2.0806,-2.1174,-2.1567,-2.2036,-2.2899,-2.3365,-2.3365,-2.3365,-2.3543,-2.3897,-2.3897,-2.3721,-2.3365,-2.2787,-2.2665,-2.2836,-2.2604,-2.2371,-2.2197,-2.2197,-2.2197,-2.2197,-2.2197,-2.2197,-2.2197,-2.2197,-2.2197,-2.2197,-2.2197,-2.2197,-2.2197,-2.2197,-2.2197,-2.2125,-2.1825,-2.1091,-2.037,-2.0261,-1.9612,-1.8987,-1.8987,-1.8987,-1.8987,-1.8987,-1.8157,-1.7412,-1.7412,-1.6512,-1.5792,-1.5792,-1.5792,-1.5792,-1.5792,-1.5792,-1.5792,-1.5792,-1.5792,-1.5545,-1.4849,-1.4529,-1.3987,-1.3004,-1.2413,-1.2113,-1.2113,-1.2113,-1.2113,-1.2113,-1.2113,-1.2113,-1.2113,-1.2113,-1.2113,-1.2113,-1.2113,-1.2113,-1.2113,-1.1943,-1.2039,-1.0074,-1.0666,-1.1452,-1.2632,-1.3019,-1.3212,-1.3546,-1.4392,-1.5256,-1.5725,-1.5595,-1.5298,-1.4794,-1.4351,-1.3874,-1.3301,-1.3198,-1.3962,-1.6208,-1.6522,-1.6522,-1.6522,-1.6522,-1.6647,-1.6961,-1.7115,-1.7902,-1.9583,-1.9303,-1.9093,-1.9093,-1.9397,-1.9998,-2.0729,-2.1047,-2.147,-2.203,-2.2175,-2.2309,-2.2309,-2.2432,-2.2665,-2.3078,-2.2957,-2.2764,-2.263,-2.263,-2.2672,-2.2775,-2.2651,-2.2442,-2.2197,-2.2197,-2.2197,-2.2197,-2.2197,-2.2197,-2.2197,-2.2197,-2.2197,-2.2197,-2.2197,-2.2197,-2.2197,-2.2123,-2.2061,-2.2061,-2.1987,-2.1283,-2.0499,-2.0449,-1.9734,-1.9072,-1.8982,-1.8999,-1.8987,-1.8987,-1.8277,-1.7628,-1.7628,-1.6895,-1.6176,-1.6032,-1.6008,-1.596,-1.5816,-1.5792,-1.5792,-1.5792,-1.5792,-1.556,-1.5038,-1.4511,-1.3912,-1.324,-1.2695,-1.2336,-1.2197,-1.215,-1.2138,-1.2138,-1.2113,-1.2113,-1.2113,-1.2113,-1.2113,-1.2113,-1.2113,-1.2113,-1.2113,-1.2164,-1.24,-1.0342,-1.0883,-1.1404,-1.2682,-1.318,-1.3522,-1.4053,-1.4212,-1.4532,-1.559,-1.5799,-1.577,-1.577,-1.5224,-1.4447,-1.3357,-1.3198,-1.3962,-1.6208,-1.6522,-1.6522,-1.6522,-1.6522,-1.6948,-1.8041,-1.8607,-1.9085,-1.9368,-1.9328,-1.9275,-1.9275,-1.9871,-2.0165,-2.0189,-2.1104,-2.1618,-2.1654,-2.2213,-2.2469,-2.2482,-2.2896,-2.3078,-2.3078,-2.2482,-2.2814,-2.3725,-2.3725,-2.3436,-2.2955,-2.2955,-2.2654,-2.2197,-2.2197,-2.2197,-2.2197,-2.2197,-2.2197,-2.2197,-2.2197,-2.2197,-2.2197,-2.2197,-2.2197,-2.2185,-2.1987,-2.1788,-2.1651,-2.1463,-2.0904,-2.0335,-2.0029,-1.9609,-1.9195,-1.8863,-1.8893,-1.8987,-1.8987,-1.8566,-1.8181,-1.8181,-1.7736,-1.7207,-1.669,-1.656,-1.638,-1.5876,-1.5792,-1.5792,-1.5792,-1.576,-1.5703,-1.5691,-1.5085,-1.4469,-1.3912,-1.3423,-1.2943,-1.2401,-1.2258,-1.221,-1.221,-1.2138,-1.2113,-1.2113,-1.2113,-1.2113,-1.2113,-1.2113,-1.2113,-1.2125,-1.2643,-1.2896,-1.1015,-1.1872,-1.2761,-1.3275,-1.3882,-1.4412,-1.4688,-1.4834,-1.5038,-1.5448,-1.558,-1.5639,-1.577,-1.5058,-1.4189,-1.3335,-1.3198,-1.3962,-1.6208,-1.6522,-1.6522,-1.6522,-1.6522,-1.6861,-1.7727,-1.8043,-1.8558,-1.95,-1.938,-1.9434,-1.9733,-2.0025,-2.0452,-2.0955,-2.1377,-2.174,-2.1982,-2.2274,-2.2531,-2.2702,-2.2944,-2.3078,-2.3078,-2.2494,-2.239,-2.2799,-2.4194,-2.4302,-2.3448,-2.2751,-2.2354,-2.2197,-2.2197,-2.2197,-2.2197,-2.2197,-2.2197,-2.2197,-2.2197,-2.2197,-2.2197,-2.2197,-2.2197,-2.2123,-2.1851,-2.1526,-2.125,-2.0921,-2.0254,-1.9599,-1.9411,-1.9136,-1.8916,-1.8743,-1.8839,-1.8987,-1.8987,-1.8578,-1.8205,-1.8205,-1.7772,-1.7352,-1.7183,-1.6859,-1.6404,-1.5876,-1.5792,-1.5792,-1.5792,-1.5792,-1.576,-1.5715,-1.5195,-1.4719,-1.4458,-1.4016,-1.3651,-1.3474,-1.3423,-1.3334,-1.3283,-1.3256,-1.3166,-1.3076,-1.2804,-1.2643,-1.2643,-1.2643,-1.2643,-1.2655,-1.3161,-1.3547,-1.1936,-1.2736,-1.3479,-1.3849,-1.4362,-1.4794,-1.4828,-1.4814,-1.4906,-1.5285,-1.5433,-1.5169,-1.4037,-1.3979,-1.3908,-1.3301,-1.3198,-1.3962,-1.6208,-1.7187,-1.7488,-1.6974,-1.7137,-1.7468,-1.7959,-1.8042,-1.8388,-1.9204,-1.927,-1.9466,-2.0001,-2.0263,-2.0763,-2.1427,-2.1692,-2.1958,-2.2185,-2.2297,-2.2531,-2.2811,-2.3005,-2.3078,-2.3078,-2.2494,-2.2606,-2.3388,-2.4723,-2.4927,-2.4266,-2.358,-2.2859,-2.2197,-2.2197,-2.2197,-2.2197,-2.2197,-2.2197,-2.2197,-2.2197,-2.2197,-2.2197,-2.2197,-2.2197,-2.2123,-2.18,-2.1411,-2.1071,-2.0613,-2.0017,-1.9349,-1.9243,-1.9044,-1.8828,-1.8794,-1.8917,-1.8987,-1.8987,-1.8722,-1.8482,-1.8482,-1.8205,-1.7917,-1.7724,-1.7099,-1.6404,-1.5876,-1.5792,-1.5792,-1.5792,-1.5792,-1.5792,-1.576,-1.5417,-1.5131,-1.4844,-1.4535,-1.4275,-1.4125,-1.4073,-1.3993,-1.39,-1.386,-1.3819,-1.3726,-1.3465,-1.3302,-1.3302,-1.3302,-1.3302,-1.3314,-1.372,-1.4124,-1.2917,-1.3331,-1.3615,-1.4373,-1.4651,-1.47,-1.4515,-1.4176,-1.417,-1.5093,-1.5403,-1.4457,-1.0949,-1.2249,-1.3741,-1.3335,-1.3283,-1.4074,-1.622,-1.8342,-1.9171,-1.7777,-1.8242,-1.8707,-1.8784,-1.8659,-1.8583,-1.8645,-1.9031,-1.9449,-1.9982,-2.0572,-2.1107,-2.1583,-2.1982,-2.2197,-2.2197,-2.2359,-2.2531,-2.2811,-2.3005,-2.3078,-2.3078,-2.2604,-2.3436,-2.5312,-2.5312,-2.5312,-2.5312,-2.5312,-2.4145,-2.2342,-2.2294,-2.227,-2.227,-2.2246,-2.2234,-2.2234,-2.2197,-2.2197,-2.2197,-2.2197,-2.2197,-2.2135,-2.1824,-2.1434,-2.1094,-2.0529,-2.0009,-1.9564,-1.9412,-1.916,-1.9011,-1.908,-1.9057,-1.8987,-1.8987,-1.8987,-1.8987,-1.8987,-1.8987,-1.8819,-1.8253,-1.7327,-1.6428,-1.5876,-1.5792,-1.5792,-1.5792,-1.5792,-1.5792,-1.5792,-1.5792,-1.5588,-1.5085,-1.5049,-1.4833,-1.4397,-1.4265,-1.4196,-1.4185,-1.4116,-1.4075,-1.4075,-1.4052,-1.404,-1.404,-1.404,-1.404,-1.4052,-1.4409,-1.4545,-1.251,-1.3182,-1.3878,-1.3967,-1.404,-1.404,-1.4007,-1.3996,-1.4155,-1.4783,-1.5344,-1.4599,-1.0975,-1.2843,-1.4732,-1.4124,-1.4388,-1.5107,-1.6321,-1.7476,-1.8028,-1.7652,-1.7934,-1.8348,-1.8747,-1.8571,-1.8761,-1.9604,-1.9745,-2.0006,-2.0439,-2.1073,-2.1607,-2.203,-2.2125,-2.2197,-2.2197,-2.2359,-2.2543,-2.2739,-2.2957,-2.3078,-2.3128,-2.4049,-2.4807,-2.5312,-2.5312,-2.5312,-2.5312,-2.5312,-2.4999,-2.4434,-2.3664,-2.3364,-2.3316,-2.2919,-2.2787,-2.2727,-2.233,-2.2197,-2.2197,-2.2197,-2.2197,-2.2123,-2.18,-2.14,-2.1008,-2.0377,-1.9649,-1.9149,-1.902,-1.8851,-1.8665,-1.8897,-1.9003,-1.8987,-1.8987,-1.8987,-1.8987,-1.8987,-1.8987,-1.8698,-1.7772,-1.7388,-1.6907,-1.5936,-1.5792,-1.5792,-1.5792,-1.5792,-1.5792,-1.5792,-1.5792,-1.5732,-1.56,-1.56,-1.5528,-1.544,-1.5396,-1.5353,-1.5267,-1.5278,-1.5223,-1.5124,-1.4747,-1.4516,-1.4516,-1.4516,-1.4516,-1.4516,-1.5034,-1.518,-1.3794,-1.4511,-1.4782,-1.4173,-1.3921,-1.3788,-1.3788,-1.3874,-1.3701,-1.2973,-1.3412,-1.3242,-1.1048,-1.3067,-1.4932,-1.4465,-1.4906,-1.5466,-1.6043,-1.7269,-1.8041,-1.789,-1.8384,-1.8821,-1.9031,-1.9083,-1.9327,-1.9867,-1.9903,-2.0197,-2.0923,-2.1295,-2.1693,-2.2173,-2.2197,-2.2197,-2.2197,-2.2309,-2.2432,-2.2506,-2.2896,-2.2957,-2.2727,-2.4486,-2.5312,-2.5312,-2.5312,-2.5312,-2.5312,-2.5312,-2.5312,-2.5252,-2.4675,-2.4169,-2.3725,-2.3436,-2.3183,-2.2943,-2.2642,-2.239,-2.2197,-2.2197,-2.2197,-2.2123,-2.1851,-2.1588,-2.1198,-2.0495,-1.9781,-1.9267,-1.921,-1.8913,-1.8678,-1.8876,-1.894,-1.8896,-1.8672,-1.8625,-1.8667,-1.8774,-1.8827,-1.8565,-1.7704,-1.7561,-1.7288,-1.6467,-1.6192,-1.6083,-1.614,-1.5936,-1.5792,-1.5792,-1.5792,-1.5792,-1.5792,-1.5792,-1.5792,-1.5792,-1.5792,-1.5792,-1.576,-1.576,-1.5703,-1.5647,-1.5318,-1.5164,-1.5164,-1.5164,-1.5164,-1.5176,-1.5472,-1.5525,-1.5854,-1.6469,-1.5987,-1.4573,-1.4007,-1.3788,-1.3788,-1.3552,-1.2664,-1.0325,-1.039,-1.0907,-1.0982,-1.2801,-1.4282,-1.429,-1.4799,-1.5271,-1.5516,-1.7264,-1.8455,-1.8229,-1.9008,-1.955,-1.9519,-1.9799,-1.9963,-1.9985,-1.9997,-2.0406,-2.1296,-2.1404,-2.1656,-2.2049,-2.2061,-2.2061,-2.2135,-2.2185,-2.2197,-2.2197,-2.2726,-2.2874,-2.2666,-2.4482,-2.5312,-2.5312,-2.5312,-2.5312,-2.53,-2.5087,-2.5087,-2.517,-2.5099,-2.462,-2.3831,-2.3759,-2.3448,-2.3042,-2.2898,-2.2552,-2.2157,-2.2209,-2.2197,-2.2185,-2.1999,-2.1851,-2.1588,-2.0892,-2.0183,-1.9671,-1.9605,-1.9178,-1.8764,-1.8807,-1.8798,-1.8634,-1.8077,-1.803,-1.8127,-1.8452,-1.8506,-1.8342,-1.7826,-1.7733,-1.7557,-1.6991,-1.6668,-1.6503,-1.6584,-1.6116,-1.5792,-1.5792,-1.5792,-1.5792,-1.5792,-1.5792,-1.5792,-1.5792,-1.5792,-1.5792,-1.5792,-1.5792,-1.5792,-1.5792,-1.5792,-1.5792,-1.5792,-1.5792,-1.5792,-1.5792,-1.576,-1.5715,-1.688,-1.761,-1.6977,-1.4517,-1.3854,-1.3788,-1.3788,-1.2311,-1.0247,-0.7965,-0.7606,-0.8263,-1.0116,-1.1033,-1.1843,-1.2927,-1.3644,-1.438,-1.5222,-1.6667,-1.7765,-1.8154,-1.892,-1.9592,-2.0047,-1.9897,-2.0209,-2.1055,-2.1127,-2.114,-2.114,-2.1483,-2.1569,-2.1348,-2.136,-2.1423,-2.1612,-2.1999,-2.2197,-2.2197,-2.2309,-2.3216,-2.4783,-2.5143,-2.5312,-2.5312,-2.5312,-2.5312,-2.5229,-2.3936,-2.3801,-2.4406,-2.4116,-2.4085,-2.4093,-2.3606,-2.3398,-2.3202,-2.2347,-2.2001,-2.1992,-2.2142,-2.2197,-2.2185,-2.2135,-2.2123,-2.1987,-2.1285,-2.0571,-1.9977,-1.9671,-1.8994,-1.8331,-1.8286,-1.8165,-1.7917,-1.7479,-1.7545,-1.7831,-1.8159,-1.817,-1.802,-1.7491,-1.7399,-1.7174,-1.6669,-1.6779,-1.6823,-1.6632,-1.6116,-1.5792,-1.5792,-1.5792,-1.5792,-1.5792,-1.5792,-1.5792,-1.5792,-1.5792,-1.5792,-1.5792,-1.5792,-1.5792,-1.5792,-1.5792,-1.5792,-1.5792,-1.5792,-1.5792,-1.5792,-1.5792,-1.576,-1.6864,-1.7543,-1.6944,-1.4432,-1.3788,-1.3788,-1.3788,-1.1997,-0.9648,-0.7363,-0.6908,-0.7232,-0.8325,-0.9742,-1.0938,-1.1495,-1.2821,-1.3981,-1.4694,-1.6312,-1.7589,-1.8141,-1.892,-1.9629,-2.017,-2.02,-2.0526,-2.1344,-2.1656,-2.1679,-2.1422,-2.1249,-2.0996,-2.0635,-2.0624,-2.0764,-2.1146,-2.1707,-2.2309,-2.3015,-2.3171,-2.3445,-2.3779,-2.3559,-2.3486,-2.3486,-2.3486,-2.3486,-2.3412,-2.2692,-2.2703,-2.315,-2.3001,-2.3213,-2.3548,-2.3313,-2.2983,-2.2704,-2.2224,-2.1889,-2.1643,-2.1731,-2.1897,-2.1975,-2.1757,-2.1863,-2.19,-2.1047,-2.0324,-1.9791,-1.9407,-1.8843,-1.8318,-1.7989,-1.7588,-1.7291,-1.7054,-1.7168,-1.739,-1.7611,-1.7744,-1.7731,-1.7537,-1.7599,-1.7562,-1.7386,-1.738,-1.7426,-1.7435,-1.6943,-1.6404,-1.5852,-1.5792,-1.5792,-1.5792,-1.5792,-1.5792,-1.5792,-1.5792,-1.5792,-1.5792,-1.5792,-1.5792,-1.5792,-1.5792,-1.5792,-1.5792,-1.5792,-1.5792,-1.5792,-1.5792,-1.5792,-1.6731,-1.7365,-1.6929,-1.5122,-1.429,-1.3888,-1.3821,-1.1618,-0.907,-0.7258,-0.6908,-0.6947,-0.7101,-0.8652,-1.0016,-1.0381,-1.1945,-1.3395,-1.4197,-1.598,-1.7451,-1.8129,-1.892,-1.9679,-2.0287,-2.0504,-2.0851,-2.1524,-2.1834,-2.1862,-2.1451,-2.0794,-2.0291,-1.9911,-1.9911,-2.0031,-2.0344,-2.1097,-2.2173,-2.3623,-2.3953,-2.3446,-2.2252,-2.1797,-2.1568,-2.1568,-2.1568,-2.1568,-2.1568,-2.1645,-2.1873,-2.2004,-2.209,-2.2381,-2.2734,-2.2734,-2.2507,-2.2099,-2.1991,-2.1722,-2.1317,-2.121,-2.1493,-2.1731,-2.1334,-2.1413,-2.1429,-2.0588,-1.9943,-1.9396,-1.9075,-1.8674,-1.8261,-1.7821,-1.7144,-1.6694,-1.6694,-1.6797,-1.6899,-1.7011,-1.719,-1.7412,-1.7579,-1.7744,-1.7909,-1.8084,-1.806,-1.8017,-1.8166,-1.7845,-1.7219,-1.6236,-1.6032,-1.596,-1.596,-1.5864,-1.5792,-1.5792,-1.5792,-1.5792,-1.5792,-1.5792,-1.5792,-1.5792,-1.5792,-1.5792,-1.5792,-1.5792,-1.5792,-1.5792,-1.5792,-1.5792,-1.7192,-1.7842,-1.7787,-1.7571,-1.5879,-1.417,-1.3888,-1.0389,-0.7157,-0.6947,-0.6908,-0.7101,-0.7776,-0.7551,-0.7938,-0.9985,-1.0792,-1.1869,-1.3996,-1.5638,-1.6999,-1.8078,-1.892,-1.9826,-2.0858,-2.0746,-2.1031,-2.2041,-2.1588,-2.1146,-2.0719,-2.0237,-1.9736,-1.9198,-1.9198,-1.9131,-1.8911,-1.9744,-2.1126,-2.3091,-2.3475,-2.3001,-2.1807,-2.1031,-2.0722,-2.0722,-2.0722,-2.0722,-2.0722,-2.1252,-2.1482,-2.1482,-2.1721,-2.1883,-2.1873,-2.1873,-2.1852,-2.1759,-2.1333,-2.1156,-2.1053,-2.0627,-2.0945,-2.145,-2.1407,-2.1112,-2.0728,-2.03,-1.9645,-1.8988,-1.8607,-1.8279,-1.7984,-1.7675,-1.6956,-1.6343,-1.6368,-1.6332,-1.64,-1.6368,-1.6616,-1.6965,-1.7213,-1.7512,-1.781,-1.805,-1.834,-1.8431,-1.8214,-1.8157,-1.7905,-1.7327,-1.6834,-1.6512,-1.6512,-1.6068,-1.5792,-1.5792,-1.5792,-1.5792,-1.5792,-1.5792,-1.5792,-1.5792,-1.5792,-1.5792,-1.5792,-1.5792,-1.5792,-1.5792,-1.5792,-1.5792,-1.7578,-1.8282,-1.8282,-1.8282,-1.6258,-1.3826,-1.2082,-0.9201,-0.6908,-0.6908,-0.6908,-0.6999,-0.7284,-0.7358,-0.7802,-0.9074,-1.0187,-1.1474,-1.3063,-1.4841,-1.6446,-1.7576,-1.8437,-1.9319,-2.0287,-2.0349,-2.0677,-2.153,-2.1042,-2.0518,-2.0042,-1.966,-1.9142,-1.8472,-1.8405,-1.8405,-1.8269,-1.9374,-2.0648,-2.1975,-2.2371,-2.2241,-2.1776,-2.1185,-2.0809,-2.0566,-2.0566,-2.0566,-2.0644,-2.0799,-2.0944,-2.0954,-2.1031,-2.1108,-2.1108,-2.1108,-2.1108,-2.1078,-2.0831,-2.0761,-2.0741,-2.0562,-2.0717,-2.0903,-2.0791,-2.0639,-2.0439,-1.99,-1.9291,-1.8664,-1.8405,-1.7949,-1.7536,-1.7615,-1.6956,-1.6363,-1.6285,-1.6228,-1.6171,-1.6093,-1.64,-1.6797,-1.7123,-1.7512,-1.7963,-1.8333,-1.856,-1.8715,-1.871,-1.8674,-1.8602,-1.8386,-1.7604,-1.7099,-1.7099,-1.6907,-1.6654,-1.6284,-1.626,-1.6128,-1.5804,-1.5792,-1.5792,-1.5792,-1.5792,-1.5792,-1.5792,-1.5792,-1.5792,-1.5792,-1.5792,-1.5792,-1.68,-1.72,-1.7125,-1.7125,-1.5414,-1.3108,-1.0834,-0.8704,-0.7218,-0.7218,-0.7065,-0.6908,-0.6908,-0.7384,-0.7966,-0.8513,-0.9904,-1.1309,-1.243,-1.4374,-1.6045,-1.7011,-1.7902,-1.8806,-1.9685,-1.9968,-2.0338,-2.0835,-2.0453,-1.9944,-1.9462,-1.9075,-1.8607,-1.8008,-1.8008,-1.8008,-1.8008,-1.9203,-2.0164,-2.0886,-2.1391,-2.1645,-2.1624,-2.1272,-2.0896,-2.0566,-2.0566,-2.0566,-2.0566,-2.0566,-2.0566,-2.0566,-2.0566,-2.0566,-2.0566,-2.0566,-2.0566,-2.0566,-2.0566,-2.0566,-2.0566,-2.0566,-2.0566,-2.0604,-2.0505,-2.0276,-2.0012,-1.9556,-1.8923,-1.8347,-1.8212,-1.779,-1.7456,-1.7554,-1.7069,-1.6529,-1.6316,-1.6161,-1.5989,-1.5816,-1.6171,-1.6684,-1.7123,-1.7623,-1.8127,-1.8614,-1.8786,-1.8893,-1.8987,-1.8987,-1.8987,-1.8987,-1.8326,-1.782,-1.7664,-1.7496,-1.7255,-1.6835,-1.6859,-1.669,-1.6272,-1.626,-1.626,-1.626,-1.626,-1.626,-1.626,-1.626,-1.626,-1.626,-1.626,-1.626,-1.4378,-1.4112,-1.386,-1.386,-1.3081,-1.1962,-1.0625,-0.91,-0.7998,-0.7998,-0.7415,-0.6908,-0.6908,-0.7507,-0.8122,-0.8539,-0.9904,-1.1309,-1.243,-1.4374,-1.5906,-1.6459,-1.741,-1.8326,-1.9125,-1.9773,-2.0126,-2.0128,-1.9791,-1.9396,-1.9044,-1.8664,-1.8347,-1.8008,-1.8008,-1.8008,-1.8008,-1.9071,-1.9713,-1.9929,-2.0772,-2.1215,-2.1205,-2.0984,-2.0819,-2.0566,-2.0566,-2.0566,-2.0566,-2.0566,-2.0566,-2.0566,-2.0566,-2.0566,-2.0566,-2.0566,-2.0566,-2.0566,-2.0566,-2.0566,-2.0566,-2.0566,-2.0566,-2.0566,-2.0634,-2.0036,-1.9287,-1.9287,-1.8672,-1.8008,-1.8008,-1.7886,-1.7755,-1.7625,-1.7296,-1.6842,-1.6415,-1.6093,-1.5816,-1.5468,-1.5884,-1.6513,-1.709,-1.7678,-1.8302,-1.8881,-1.8987,-1.8987,-1.8987,-1.8987,-1.8987,-1.8987,-1.8987,-1.8758,-1.8241,-1.7712,-1.7412,-1.74,-1.74,-1.74,-1.74,-1.74,-1.74,-1.74,-1.74,-1.74,-1.74,-1.74,-1.74,-1.74,-1.74,-1.74,-1.3568,-1.2716,-1.1395,-1.1395,-1.1764,-1.1583,-0.9582,-0.8539,-0.7854,-0.7349,-0.7065,-0.6908,-0.6908,-0.7384,-0.7979,-0.8513,-0.9904,-1.1181,-1.1938,-1.3841,-1.548,-1.6409,-1.7786,-1.8903,-1.958,-1.942,-1.943,-1.9738,-1.9473,-1.9065,-1.8674,-1.8472,-1.8279,-1.8008,-1.8008,-1.8008,-1.8008,-1.8929,-1.9433,-1.9505,-2.0384,-2.0809,-2.0809,-2.0731,-2.0654,-2.0566,-2.0566,-2.0566,-2.0566,-2.0566,-2.0566,-2.0566,-2.0566,-2.0566,-2.0566,-2.0566,-2.0566,-2.0566,-2.0566,-2.0566,-2.0566,-2.0566,-2.0566,-2.0566,-2.0566,-2.0166,-1.959,-1.9004,-1.8437,-1.8008,-1.8008,-1.7819,-1.7705,-1.7694,-1.7287,-1.6876,-1.6781,-1.6512,-1.6192,-1.6056,-1.6457,-1.6955,-1.7435,-1.7952,-1.8464,-1.8946,-1.8987,-1.8987,-1.8987,-1.8987,-1.8987,-1.8987,-1.8987,-1.8915,-1.8758,-1.859,-1.8338,-1.7977,-1.7953,-1.7796,-1.7436,-1.7412,-1.7412,-1.7412,-1.7412,-1.7412,-1.7412,-1.7412,-1.7412,-1.7412,-1.7412,-1.7616,-1.1528,-1.1213,-1.0299,-1.0299,-1.1003,-1.1264,-0.9621,-0.8709,-0.8037,-0.7332,-0.7035,-0.6973,-0.7166,-0.7671,-0.824,-0.8848,-1.0238,-1.1436,-1.2015,-1.3869,-1.5674,-1.714,-1.8312,-1.9178,-1.9692,-1.9385,-1.9225,-1.9344,-1.9065,-1.8674,-1.8347,-1.8212,-1.8144,-1.8008,-1.8008,-1.8008,-1.8008,-1.8857,-1.9287,-1.9297,-2.0156,-2.0566,-2.0566,-2.0566,-2.0566,-2.0566,-2.0566,-2.0566,0.0,-2.0566,-2.0566,-2.0566,-2.0566,-2.0566,-2.0566,-2.0566,-2.0566,-2.0566,-2.0566,-2.0566,-2.0566,-2.0566,-2.0566,-2.0566,-2.0566,-2.0146,-1.9531,-1.8838,-1.833,-1.8008,-1.8008,-1.787,-1.7757,-1.7665,-1.7453,-1.7195,-1.7038,-1.6926,-1.6791,-1.6648,-1.7011,-1.739,-1.7776,-1.8182,-1.8572,-1.8934,-1.8987,-1.8987,-1.8987,-1.8987,-1.8987,-1.8987,-1.8987,-1.8987,-1.8987,-1.8987,-1.8855,-1.8518,-1.8506,-1.835,-1.8025,-1.8001,-1.8001,-1.8001,-1.8001,-1.8001,-1.8001,-1.8001,-1.8001,-1.8001,-1.8001,-1.8181,0.0,-0.9658,-1.0234,-1.0286,-1.073,-1.0965,-1.0325,-0.9361,0.0,-0.7783,-0.7266,-0.7114,-0.7601,-0.8266,-0.8891,-0.9449,-1.0883,-1.2091,-1.2571,-1.4362,-1.6374,-1.8412,-1.8879,-1.9238,-1.9738,-1.9666,-1.9392,-1.9013,-1.8664,-1.8347,-1.8008,-1.8008,-1.8008,-1.8008,-1.8008,-1.8008,-1.8008,-1.8857,-1.9287,-1.9297,-2.0156,-2.0566,-2.0566,-2.0566,-2.0566,-2.0566,-2.0566,-2.0566,-2.0566,-2.0566,-2.0566,-2.0566,-2.0566,-2.0566,-2.0566,-2.0566,-2.0566,-2.0566,-2.0566,-2.0566,-2.0566,-2.0566,-2.0566,-2.0557,-2.0527,-1.9941,-1.9209,-1.8799,-1.8359,-1.8008,-1.8008,-1.8008,-1.791,-1.7519,-1.7645,-1.7762,-1.7224,-1.7284,-1.7466,-1.7288,-1.7512,-1.7776,-1.8038,-1.8387,-1.8667,-1.8934,-1.8987,-1.8987,-1.8987,-1.8987,-1.8987,-1.8987,-1.8987,-1.8987,-1.8987,-1.8987,-1.8987,-1.8987,-1.8987,-1.8987,-1.8987,-1.8987,-1.8987,-1.8987,-1.8987,-1.8987,-1.8987,-1.8987,-1.8987,-1.8987,-1.8987,-1.8987,-0.7854,0.0,-0.9606,-1.0156,-1.0404,-1.0247,0.0,-0.88,-0.8305,-0.7297,0.0,-0.7549,-0.7679,-0.8904,-0.9923,-1.0017,-1.1767,-1.3106,-1.312,-1.5237,-1.7387,-1.9027,-1.9317,-1.966,-2.0342,-1.9829,-1.935,-1.91,-1.8741,-1.8347,-1.8008,-1.8008,-1.8008,-1.8008,-1.8008,-1.8008,-1.8008,-1.8857,-1.9287,-1.9297,-2.0156,-2.0566,-2.0566,-2.0566,-2.0566,-2.0566,-2.0566,-2.0566,-2.0566,-2.0566,-2.0566,-2.0566,-2.0566,-2.0566,-2.0566,-2.0566,-2.0566,-2.0566,-2.0566,-2.0566,-2.0566,-2.0566,-2.0566,-2.0498,-2.0166,-1.9697,-1.9268,-1.916,-1.8594,-1.8008,-1.8008,-1.8008,-1.7988,-1.7881,-1.7873,-1.79,-1.807,-1.7777,-1.7536,-1.7777,-1.7733,-1.781,-1.8073,-1.8398,-1.8667,-1.8934,-1.8987,-1.8987,-1.8987,-1.8987,-1.8987,-1.8987,-1.8987,-1.8987,-1.8987,-1.8987,-1.8987,-1.8987,-1.8987,-1.8987,-1.8987,-1.8987,-1.8987,-1.8987,-1.8987,-1.8987,-1.8987,-1.8987,-1.8987,-1.8987,-1.8987,-1.8987,-0.7888,-0.8717,-0.9446,-0.9828,-1.0338,-1.0416,-0.9279,-0.9018,0.0,0.0,0.0,-0.8279,-0.88,-0.965,-1.0483,-1.1217,-1.2513,-1.3791,-1.4926,-1.6729,-1.8363,-1.9536,-1.9773,-2.0006,-2.043,-2.0035,-1.9512,-1.911,-1.8741,-1.8347,-1.8008,-1.8008,-1.8008,-1.8008,-1.8008,-1.8008,-1.8008,-1.8857,-1.9287,-1.9297,-2.0156,-2.0566,-2.0566,-2.0566,-2.0566,-2.0566,-2.0566,-2.0566,-2.0566,-2.0566,-2.0566,-2.0566,-2.0566,-2.0566,-2.0566,-2.0566,-2.0566,-2.0566,-2.0566,-2.0566,-2.0566,-2.0566,-2.0566,-2.0518,-2.0283,-1.9775,-1.9248,-1.9043,-1.8516,-1.8008,-1.8008,-1.8008,-1.8008,-1.8008,-1.8101,-1.8213,-1.8325,-1.8197,-1.807,-1.7995,-1.7988,-1.8014,-1.8107,-1.8398,-1.8667,-1.8934,-1.8987,-1.8987,-1.8987,-1.8987,-1.8987,-1.8987,-1.8987,-1.8987,-1.8987,-1.8987,-1.8987,-1.8987,-1.8987,-1.8987,-1.8987,-1.8987,-1.8987,-1.8987,-1.8987,-1.8987,-1.8987,-1.8987,-1.8987,-1.8987,-1.8987,-1.9119,-0.8279,-0.9109,-0.9629,-0.9629,-1.0428,-1.0913,-0.976,0.0,0.0,0.0,0.0,0.0,-1.0117,-1.0444,-1.1075,-1.2563,-1.3378,-1.4638,-1.7095,-1.8177,-1.9066,-1.9849,-2.0034,-2.0146,-2.0148,-2.0068,-1.9704,-1.8988,-1.8664,-1.8347,-1.8008,-1.8008,-1.8008,-1.8008,-1.8008,-1.8008,-1.8008,-1.8789,-1.9189,-1.9199,-2.0059,-2.0469,-2.0469,-2.0537,-2.0566,-2.0566,-2.0566,-2.0566,-2.0566,-2.0566,-2.0566,-2.0566,-2.0566,-2.0566,-2.0566,-2.0566,-2.0566,-2.0566,-2.0566,-2.0566,-2.0566,-2.0566,-2.0566,-2.0547,-2.0469,-1.999,-1.9346,-1.8721,-1.8281,-1.8008,-1.8008,-1.8008,-1.8008,-1.8008,-1.8212,-1.8439,-1.8383,-1.855,-1.8617,-1.8126,-1.8119,-1.8224,-1.8237,-1.8565,-1.8915,-1.9186,-1.9191,-1.9155,-1.9155,-1.9059,-1.8987,-1.8987,-1.8987,-1.8987,-1.8987,-1.8987,-1.8987,-1.8987,-1.8987,-1.8987,-1.8987,-1.8987,-1.8987,-1.8987,-1.8987,-1.8987,-1.8987,-1.8987,-1.8987,-1.8987,-1.8987,-1.9275,-0.8279,-0.9374,-1.0182,-1.0182,-1.069,-1.0913,-0.976,0.0,0.0,0.0,0.0,0.0,0.0,-1.1402,-1.2537,-1.3275,-1.4866,-1.6604,-1.83,-1.8511,-1.877,-1.9562,-1.9552,-1.9467,-1.9552,-1.9501,-1.9177,-1.8607,-1.8405,-1.8212,-1.8008,-1.8008,-1.8008,-1.8008,-1.8008,-1.8008,-1.8008,-1.8496,-1.874,-1.875,-1.96,-2.0019,-2.0029,-2.04,-2.0566,-2.0566,-2.0566,-2.0566,-2.0566,-2.0566,-2.0566,-2.0566,-2.0566,-2.0566,-2.0566,-2.0566,-2.0566,-2.0566,-2.0566,-2.0566,-2.0566,-2.0566,-2.0566,-2.0478,-2.001,-2.0098,-2.0059,-1.8535,-1.8057,-1.8008,-1.8008,-1.8008,-1.8008,-1.8008,-1.8008,-1.8192,-1.8572,-1.8562,-1.8522,-1.8568,-1.8103,-1.7992,-1.877,-1.9355,-1.9842,-2.0313,-2.0105,-1.9925,-1.9925,-1.9372,-1.8987,-1.8987,-1.8987,-1.8987,-1.8987,-1.8987,-1.8987,-1.8987,-1.8987,-1.8987,-1.8987,-1.8987,-1.8987,-1.8987,-1.8987,-1.8987,-1.8987,-1.8987,-1.8987,-1.8987,-1.8987,-1.9275,-0.7546,-0.8678,-1.0011,-1.1252,-1.1827,-1.1893,-1.1043,-1.086,0.0,0.0,0.0,0.0,0.0,-1.2088,-1.3121,-1.4828,-1.6413,-1.7743,-1.8647,-1.9062,-1.9239,-1.9289,-1.9363,-1.9258,-1.8818,-1.8861,-1.8664,-1.8279,-1.8144,-1.8076,-1.8008,-1.8008,-1.8008,-1.8008,-1.8008,-1.8008,-1.8008,-1.8203,-1.8408,-1.8582,-1.9502,-1.9912,-1.9932,-2.0361,-2.0566,-2.0566,-2.0566,-2.0566,-2.0566,-2.0566,-2.0566,-2.0566,-2.0566,-2.0566,-2.0566,-2.0566,-2.0566,-2.0566,-2.0566,-2.0566,-2.0566,-2.0566,-2.0566,-2.0518,-2.0264,-2.0361,-2.0205,-1.8496,-1.8008,-1.8008,-1.8008,-1.8008,-1.8008,-1.8008,-1.8008,-1.8076,-1.8269,-1.8269,-1.8279,-1.8337,-1.8283,-1.8365,-1.8802,-1.9335,-1.9936,-2.0495,-2.031,-2.0081,-2.0081,-1.9444,-1.8987,-1.8987,-1.8987,-1.8987,-1.8987,-1.8987,-1.8987,-1.8987,-1.8987,-1.8987,-1.8987,-1.8987,-1.8987,-1.8987,-1.8987,-1.8987,-1.8987,-1.8987,-1.8987,-1.8999,-1.9396,-1.9708,-0.6908,-0.8031,-0.9658,-1.1592,0.0,-1.2546,-1.1994,-1.1877,0.0,0.0,0.0,0.0,0.0,-1.2832,-1.396,-1.6346,-1.753,-1.8334,-1.8834,-1.9283,-1.9349,-1.8862,-1.8988,-1.888,-1.8253,-1.8354,-1.8347,-1.8008,-1.8008,-1.8008,-1.8008,-1.8008,-1.8008,-1.8008,-1.8008,-1.8008,-1.8008,-1.8008,-1.8164,-1.8496,-1.9355,-1.9766,-1.9785,-2.0322,-2.0566,-2.0566,-2.0566,-2.0566,-2.0566,-2.0566,-2.0566,-2.0566,-2.0566,-2.0566,-2.0566,-2.0566,-2.0566,-2.0566,-2.0566,-2.0566,-2.0566,-2.0566,-2.0566,-2.0566,-2.0566,-2.0566,-2.0205,-1.8496,-1.8008,-1.8008,-1.8008,-1.8008,-1.8008,-1.8008,-1.8008,-1.8008,-1.8008,-1.8008,-1.8008,-1.8008,-1.8259,-1.8573,-1.8773,-1.9432,-2.0226,-2.0854,-2.0754,-2.0574,-2.0574,-1.9648,-1.8987,-1.8987,-1.8987,-1.8987,-1.8987,-1.8987,-1.8987,-1.8987,-1.8987,-1.8987,-1.8987,-1.8987,-1.8987,-1.8987,-1.8987,-1.8987,-1.8987,-1.8987,-1.8987,-1.8999,-1.9564,-1.9973,-0.6908,-0.8031,-0.9397,-1.0247,-1.1277,0.0,-1.162,-1.1528,0.0,-1.1929,0.0,0.0,-1.2046,-1.3873,-1.5856,-1.7275,-1.7809,-1.8301,-1.9083,-1.8709,-1.8334,-1.8178,-1.8104,-1.7978,-1.7835,-1.8145,-1.8212,-1.8008,-1.8008,-1.8008,-1.8008,-1.8008,-1.8008,-1.8008,-1.8008,-1.8008,-1.8008,-1.8008,-1.8027,-1.8066,-1.8926,-1.9336,-1.9365,-2.0185,-2.0566,-2.0566,-2.0566,-2.0566,-2.0566,-2.0566,-2.0566,-2.0566,-2.0566,-2.0566,-2.0566,-2.0566,-2.0566,-2.0566,-2.0566,-2.0566,-2.0566,-2.0566,-2.0566,-2.0566,-2.0566,-2.0566,-2.0205,-1.8496,-1.8008,-1.8008,-1.8008,-1.8008,-1.8008,-1.8008,-1.8008,-1.8008,-1.8008,-1.8008,-1.8008,-1.8008,-1.8008,-1.825,-1.8982,-2.0202,-2.1307,-2.1954,-2.2053,-2.2041,-2.2041,-2.0249,-1.8987,-1.8987,-1.8987,-1.8987,-1.8987,-1.8987,-1.8987,-1.8987,-1.8987,-1.8987,-1.8987,-1.8987,-1.8987,-1.8987,-1.8987,-1.8987,-1.8987,-1.8987,-1.8987,-1.8987,-1.9047,-1.9612,-0.6908,-0.7328,-0.8188,-0.9869,-1.0625,0.0,0.0,-1.2559,-1.3179,-1.401,-1.418,-1.4158,-1.402,-1.5769,-1.7446,-1.8166,-1.8324,-1.8448,-1.8749,-1.8533,-1.8136,-1.7504,-1.7719,-1.7813,-1.755,-1.7888,-1.8076,-1.8008,-1.8008,-1.8008,-1.8008,-1.8008,-1.8008,-1.8008,-1.8008,-1.8008,-1.8008,-1.8008,-1.8144,-1.8408,-1.9004,-1.9424,-1.9697,-2.0293,-2.0566,-2.0566,-2.0566,-2.0566,-2.0566,-2.0566,-2.0566,-2.0566,-2.0566,-2.0566,-2.0566,-2.0566,-2.0566,-2.0566,-2.0566,-2.0566,-2.0566,-2.0566,-2.0566,-2.0566,-2.0566,-2.0566,-2.043,-1.9785,-1.8838,-1.8008,-1.8008,-1.8008,-1.8008,-1.8008,-1.8008,-1.8008,-1.8008,-1.8008,-1.8008,-1.8008,-1.8674,-1.9341,-1.9407,-2.0388,-2.1423,-2.2123,-2.2197,-2.2197,-2.2197,-2.1488,-2.0983,-2.0983,-2.0983,-2.0983,-2.0983,-1.9756,-1.8987,-1.8987,-1.8987,-1.8987,-1.8987,-1.8987,-1.8987,-1.8987,-1.8987,-1.8987,-1.8987,-1.8987,-1.8987,-1.9023,-2.0358,-2.1199,-0.7978,-0.7978,-0.8338,-0.9908,0.0,0.0,-1.1736,-1.2873,-1.4219,-1.5722,-1.5919,-1.5749,-1.5643,-1.6936,-1.8174,-1.8474,-1.8424,-1.831,-1.824,-1.8014,-1.7608,-1.6935,-1.7326,-1.7531,-1.7439,-1.7764,-1.8008,-1.8008,-1.8008,-1.8008,-1.8008,-1.8008,-1.8008,-1.8008,-1.8008,-1.8008,-1.8008,-1.8008,-1.8291,-1.8848,-1.915,-1.9512,-1.9932,-2.0361,-2.0566,-2.0566,-2.0566,-2.0566,-2.0566,-2.0566,-2.0566,-2.0566,-2.0566,-2.0566,-2.0566,-2.0566,-2.0566,-2.0566,-2.0566,-2.0566,-2.0566,-2.0566,-2.0566,-2.0566,-2.0566,-2.0566,-2.0566,-2.0566,-1.9727,-1.8691,-1.8144,-1.8008,-1.8008,-1.8008,-1.8008,-1.8008,-1.8008,-1.8008,-1.8144,-1.8607,-1.9802,-2.0722,-2.0453,-2.1031,-2.1675,-2.2123,-2.2197,-2.2197,-2.2197,-2.2197,-2.2197,-2.2197,-2.2197,-2.2247,-2.2494,-2.1116,-1.997,-1.9287,-1.9239,-1.9198,-1.8987,-1.8987,-1.8987,-1.8987,-1.8987,-1.8987,-1.8987,-1.8987,-1.9348,-2.0033,-2.1512,-2.2197,-1.0299,-1.0299,-1.0299,-1.0299,0.0,0.0,-1.0625,-1.2154,-1.4441,-1.6728,-1.6833,-1.6547,-1.6534,-1.721,-1.7885,-1.8154,-1.7921,-1.7676,-1.7709,-1.719,-1.6702,-1.6507,-1.6765,-1.7086,-1.7399,-1.7764,-1.8008,-1.8008,-1.8008,-1.8008,-1.8008,-1.8008,-1.8008,-1.8008,-1.8008,-1.8008,-1.8008,-1.8008,-1.8437,-1.9277,-1.9287,-1.9512,-1.9932,-2.0371,-2.0566,-2.0566,-2.0566,-2.0566,-2.0566,-2.0566,-2.0566,-2.0566,-2.0566,-2.0566,-2.0566,-2.0566,-2.0566,-2.0566,-2.0566,-2.0566,-2.0566,-2.0566,-2.0566,-2.0566,-2.0566,-2.0566,-2.0566,-2.0566,-2.0566,-2.0176,-1.8477,-1.8018,-1.8008,-1.8008,-1.8008,-1.8008,-1.8008,-1.8008,-1.8405,-1.9813,-2.1233,-2.2197,-2.2197,-2.2197,-2.2197,-2.2197,-2.2197,-2.2197,-2.2197,-2.2197,-2.2197,-2.2197,-2.2197,-2.2432,-2.3078,-2.3078,-2.2126,-1.9974,-1.9836,-1.9577,-1.904,-1.8987,-1.8999,-1.8987,-1.9011,-1.9023,-1.9023,-1.9023,-2.0117,-2.2197,-2.2197,-2.2197,-1.0299,-1.0299,0.0,-1.0299,0.0,0.0,0.0,-1.4195,0.0,0.0,-1.806,-1.8593,-1.784,-1.7577,-1.7593,-1.7912,-1.7926,-1.7607,-1.6978,-1.656,-1.6165,-1.5772,-1.6341,-1.6841,-1.6914,-1.7578,-1.8008,-1.8008,-1.8008,-1.8008,-1.8008,-1.8008,-1.794,-1.7784,-1.7784,-1.7725,-1.7676,-1.7676,-1.7944,-1.8481,-1.8768,-1.9435,-2.0381,-2.0508,-2.0566,-2.0566,-2.0566,-2.0566,-2.0566,-2.0566,-2.0566,-2.0566,-2.0566,-2.0566,-2.0566,-2.0566,-2.0566,-2.0566,-2.0566,-2.0566,-2.0566,-2.0566,-2.0566,-2.0566,-2.0566,-2.0566,-2.0566,-2.0566,-2.0566,-2.0449,-1.9941,-1.8916,-1.8008,-1.8008,-1.8008,-1.8008,-1.8008,-1.8008,-1.8144,-1.8539,-2.056,-2.2197,-2.2197,-2.2197,-2.2197,-2.2197,-2.2197,-2.2197,-2.2197,-2.2197,-2.2197,-2.2197,-2.2604,-2.2896,-2.3065,-2.3078,-2.279,-2.2184,-2.2146,-2.1331,-1.9614,-1.9552,-1.9396,-1.8987,-2.0478,-2.1235,-2.1235,-2.1235,-2.1572,-2.2197,-2.2197,-2.2197,-1.0299,-1.0299,0.0,-1.1447,-1.2618,-1.3864,-1.4953,0.0,-1.4703,-1.7917,-1.9223,-1.9559,-1.8821,-1.8238,-1.7796,-1.7674,-1.7611,-1.7279,-1.6539,-1.6161,-1.5826,-1.541,-1.6035,-1.6533,-1.6655,-1.7353,-1.7832,-1.7998,-1.8008,-1.8008,-1.8008,-1.794,-1.7862,-1.7706,-1.7647,-1.7588,-1.747,-1.747,-1.7678,-1.8086,-1.8322,-1.9113,-2.0245,-2.042,-2.0489,-2.0566,-2.0566,-2.0566,-2.0566,-2.0566,-2.0566,-2.0566,-2.0566,-2.0566,-2.0566,-2.0566,-2.0566,-2.0566,-2.0566,-2.0566,-2.0566,-2.0566,-2.0566,-2.0566,-2.0566,-2.0566,-2.0566,-2.0566,-2.0566,-2.0566,-2.0566,-1.9297,-1.8008,-1.8008,-1.8008,-1.8008,-1.8008,-1.8008,-1.8144,-1.8741,-2.0635,-2.2197,-2.2197,-2.2197,-2.2197,-2.2197,-2.2432,-2.2543,-2.2543,-2.2543,-2.2543,-2.2543,-2.2896,-2.3078,-2.3078,-2.3078,-2.3078,-2.3078,-2.3078,-2.2418,-2.0804,-2.0754,-2.0587,-2.0261,-2.1536,-2.2197,-2.2197,-2.2197,-2.2197,-2.2197,-2.2197,-2.2197,-1.0299,-1.0456,-1.1121,-1.3233,-1.3472,-1.3248,-1.3448,-1.3932,-1.5553,-1.9738,-2.0118,-1.9656,-1.9303,-1.8827,-1.8235,-1.7379,-1.7093,-1.6775,-1.6312,-1.5884,-1.5604,-1.541,-1.5791,-1.624,-1.6689,-1.7129,-1.7559,-1.7969,-1.794,-1.794,-1.7949,-1.7794,-1.7638,-1.7638,-1.7529,-1.7461,-1.747,-1.747,-1.765,-1.8019,-1.8057,-1.8556,-1.9553,-2.0005,-2.0382,-2.0566,-2.0566,-2.0566,-2.0566,-2.0566,-2.0566,-2.0566,-2.0566,-2.0566,-2.0566,-2.0566,-2.0566,-2.0566,-2.0566,-2.0566,-2.0566,-2.0566,-2.0566,-2.0566,-2.0566,-2.0566,-2.0566,-2.0566,-2.0566,-2.0566,-2.0566,-1.9297,-1.8008,-1.8008,-1.8008,-1.8008,-1.8076,-1.8144,-1.8607,-1.9944,-2.1296,-2.2197,-2.2197,-2.2197,-2.2185,-2.2247,-2.2726,-2.3078,-2.3078,-2.3078,-2.3078,-2.3078,-2.3078,-2.3078,-2.3078,-2.3078,-2.3078,-2.3078,-2.3078,-2.2836,-2.2185,-2.2197,-2.2197,-2.2197,-2.2197,-2.2197,-2.2197,-2.2197,-2.2197,-2.2197,-2.2197,-2.2247,-1.0299,-1.1629,0.0,-1.3289,-1.3267,-1.3649,-1.5377,-1.7194,-1.8801,-1.9813,-1.9552,-1.8922,-1.8213,-1.7963,-1.7655,-1.7026,-1.6768,-1.6446,-1.569,-1.5526,-1.5478,-1.541,-1.5791,-1.624,-1.6689,-1.7129,-1.7482,-1.7755,-1.7784,-1.7716,-1.7608,-1.7598,-1.7451,-1.7304,-1.7304,-1.7176,-1.7047,-1.7047,-1.7093,-1.7176,-1.7491,-1.7956,-1.8451,-1.9437,-2.011,-2.0566,-2.0566,-2.0566,-2.0566,-2.0566,-2.0566,-2.0566,-2.0566,-2.0566,-2.0566,-2.0566,-2.0566,-2.0566,-2.0566,-2.0566,-2.0566,-2.0566,-2.0566,-2.0566,-2.0566,-2.0566,-2.0566,-2.0566,-2.0566,-2.0566,-2.0566,-1.9297,-1.8008,-1.8008,-1.8008,-1.8144,-1.8741,-1.9274,-1.9933,-2.0775,-2.1612,-2.2197,-2.2197,-2.2197,-2.2371,-2.2848,-2.3017,-2.3078,-2.3078,-2.3078,-2.3078,-2.3078,-2.3078,-2.3078,-2.3078,-2.3078,-2.3078,-2.3078,-2.3078,-2.2836,-2.2185,-2.2197,-2.2197,-2.2197,-2.2197,-2.2197,-2.2197,-2.2197,-2.2197,-2.2197,-2.2197,-2.242,-1.0,0.0,0.0,-1.4626,0.0,-1.3702,-1.5726,-1.7203,-1.8147,-1.8147,-1.7941,-1.7689,-1.7512,-1.7312,-1.7088,-1.6729,-1.6581,-1.6239,-1.5526,-1.541,-1.541,-1.541,-1.5615,-1.5957,-1.6465,-1.6782,-1.7118,-1.7658,-1.7647,-1.7598,-1.747,-1.7392,-1.7314,-1.7166,-1.7107,-1.7038,-1.6908,-1.6908,-1.6908,-1.6908,-1.711,-1.7524,-1.8095,-1.9116,-1.9788,-2.0254,-2.0254,-2.0371,-2.0566,-2.0566,-2.0566,-2.0566,-2.0566,-2.0566,-2.0566,-2.0566,-2.0566,-2.0566,-2.0566,-2.0566,-2.0566,-2.0566,-2.0566,-2.0566,-2.0566,-2.0566,-2.0566,-2.0566,-2.0566,-2.0566,-2.0566,-1.9297,-1.8008,-1.8008,-1.8008,-1.8279,-1.9341,-2.0388,-2.1233,-2.1612,-2.1937,-2.2197,-2.2197,-2.2432,-2.2726,-2.3078,-2.3078,-2.3078,-2.3078,-2.3078,-2.3078,-2.3078,-2.3078,-2.3078,-2.3078,-2.3078,-2.3078,-2.3078,-2.3078,-2.2957,-2.2665,-2.2604,-2.2494,-2.2197,-2.2197,-2.2197,-2.2197,-2.2197,-2.2197,-2.2197,-2.2494,-2.3406,-0.9674,0.0,-1.4162,-1.6011,-1.5101,0.0,-1.5483,-1.5859,-1.5991,-1.6312,-1.6384,-1.6545,-1.6976,-1.6818,-1.6602,-1.6524,-1.6363,-1.6077,-1.5478,-1.541,-1.541,-1.541,-1.541,-1.5605,-1.6084,-1.6336,-1.6795,-1.759,-1.752,-1.7401,-1.7401,-1.7245,-1.7166,-1.7166,-1.6968,-1.6908,-1.6908,-1.6908,-1.6908,-1.6908,-1.6978,-1.7362,-1.8052,-1.8763,-1.9375,-1.9912,-1.9912,-2.0166,-2.0566,-2.0566,-2.0566,-2.0566,-2.0566,-2.0566,-2.0566,-2.0566,-2.0566,-2.0566,-2.0566,-2.0566,-2.0566,-2.0566,-2.0566,-2.0566,-2.0566,-2.0566,-2.0566,-2.0566,-2.0566,-2.0566,-2.0566,-1.9297,-1.8008,-1.8008,-1.8008,-1.8347,-1.9681,-2.0914,-2.1874,-2.1999,-2.2185,-2.2371,-2.2371,-2.2775,-2.3078,-2.3078,-2.3078,-2.3078,-2.3078,-2.3078,-2.3078,-2.3078,-2.3078,-2.3288,-2.3678,-2.3703,-2.3703,-2.3703,-2.3703,-2.3703,-2.3703,-2.3703,-2.3468,-2.2929,-2.2929,-2.2929,-2.2929,-2.2929,-2.2929,-2.2916,-2.3468,-2.4695,-0.9674,0.0,-1.3795,0.0,-1.6296,-1.5989,-1.5852,-1.484,-1.4438,-1.6042,-1.6384,-1.6431,-1.6488,-1.6488,-1.6316,-1.6029,-1.5972,-1.5846,-1.5478,-1.541,-1.541,-1.541,-1.541,-1.5439,-1.5518,-1.6287,-1.6949,-1.7345,-1.7245,-1.7176,-1.6978,-1.6978,-1.6968,-1.6968,-1.6908,-1.6908,-1.6908,-1.6908,-1.6908,-1.6908,-1.7254,-1.7499,-1.7615,-1.8017,-1.8818,-1.9912,-1.9912,-2.0166,-2.0566,-2.0566,-2.0566,-2.0566,-2.0566,-2.0566,-2.0566,-2.0566,-2.0566,-2.0566,-2.0566,-2.0566,-2.0566,-2.0566,-2.0566,-2.0566,-2.0566,-2.0566,-2.0566,-2.0566,-2.0566,-2.0566,-2.0566,-1.9297,-1.8008,-1.8008,-1.8008,-1.8212,-1.9065,-1.9868,-2.0593,-2.1233,-2.2211,-2.2957,-2.2957,-2.3078,-2.3078,-2.3078,-2.3078,-2.3078,-2.3078,-2.3078,-2.3078,-2.3078,-2.3078,-2.3916,-2.585,-2.6013,-2.6013,-2.6013,-2.6013,-2.6013,-2.6013,-2.6013,-2.6013,-2.5945,-2.5958,-2.5958,-2.5958,-2.5958,-2.5958,-2.5945,-2.6013,-2.6176,-0.9495,-1.1597,-1.3436,0.0,-1.5565,-1.6392,-1.5925,-1.4686,-1.3993,-1.5328,-1.6011,-1.6384,-1.6384,-1.6306,-1.6134,-1.5914,-1.5846,-1.571,-1.541,-1.541,-1.541,-1.541,-1.541,-1.5791,-1.6777,-1.6638,-1.6703,-1.7276,-1.7116,-1.6968,-1.6908,-1.6908,-1.6908,-1.6908,-1.6908,-1.6908,-1.6908,-1.6908,-1.6908,-1.6908,-1.7332,-1.747,-1.7539,-1.7872,-1.8574,-1.9561,-1.9561,-1.9941,-2.0566,-2.0566,-2.0566,-2.0566,-2.0566,-2.0566,-2.0566,-2.0566,-2.0566,-2.0566,-2.0566,-2.0566,-2.0566,-2.0566,-2.0566,-2.0566,-2.0566,-2.0566,-2.0566,-2.0566,-2.0566,-2.0566,-2.0566,-2.001,-1.9344,-1.8771,-1.8875,-1.9285,-1.9605,-1.9274,-1.9584,-2.1827,-2.2702,-2.3078,-2.3078,-2.3078,-2.3078,-2.3078,-2.3078,-2.3078,-2.3078,-2.3078,-2.3078,-2.3078,-2.4255,-2.5398,-2.6445,-2.6533,-2.6533,-2.6533,-2.6533,-2.6533,-2.6533,-2.6533,-2.6533,-2.6533,-2.6533,-2.6533,-2.6533,-2.6533,-2.6533,-2.6533,-2.6533,-2.6533,-0.9351,-1.1507,-1.3198,-1.3198,-1.4851,-1.6392,-1.5925,-1.4686,-1.3807,-1.45,-1.5566,-1.6374,-1.6316,-1.6181,-1.6056,-1.5856,-1.5768,-1.5633,-1.541,-1.541,-1.541,-1.541,-1.541,-1.6094,-1.7842,-1.7035,-1.6599,-1.7139,-1.7047,-1.6908,-1.6908,-1.6908,-1.6908,-1.6908,-1.6908,-1.6908,-1.6908,-1.6908,-1.6908,-1.6908,-1.7332,-1.747,-1.7539,-1.7872,-1.8477,-1.9287,-1.9287,-1.9775,-2.0566,-2.0566,-2.0566,-2.0566,-2.0566,-2.0566,-2.0566,-2.0566,-2.0566,-2.0566,-2.0566,-2.0566,-2.0566,-2.0566,-2.0566,-2.0566,-2.0566,-2.0566,-2.0566,-2.0566,-2.0566,-2.0566,-2.0566,-2.0566,-2.0539,-2.0149,-2.0346,-2.0529,-2.0205,-1.9407,-1.9628,-2.2555,-2.3078,-2.3078,-2.3078,-2.3078,-2.3078,-2.3078,-2.3078,-2.3078,-2.3078,-2.3078,-2.3351,-2.3916,-2.5473,-2.6533,-2.6533,-2.6533,-2.6533,-2.6533,-2.6533,-2.6533,-2.6533,-2.6533,-2.6533,-2.6533,-2.6533,-2.6533,-2.6533,-2.6533,-2.6533,-2.6533,-2.6533,-2.6533,-0.9303,-1.1507,-1.3198,-1.3198,-1.4851,-1.6392,-1.5925,-1.4686,-1.3631,-1.3683,-1.5121,-1.6316,-1.6077,-1.6066,-1.5999,-1.573,-1.571,-1.5633,-1.541,-1.541,-1.541,-1.541,-1.541,-1.6094,-1.7842,-1.7285,-1.6862,-1.6899,-1.6908,-1.6908,-1.6908,-1.6908,-1.6908,-1.6908,-1.6908,-1.6908,-1.6908,-1.6908,-1.6908,-1.6908,-1.7332,-1.747,-1.7539,-1.7872,-1.8477,-1.9287,-1.9287,-1.9775,-2.0566,-2.0566,-2.0566,-2.0566,-2.0566,-2.0566,-2.0566,-2.0566,-2.0566,-2.0566,-2.0566,-2.0566,-2.0566,-2.0566,-2.0566,-2.0566,-2.0566,-2.0566,-2.0566,-2.0566,-2.0566,-2.0566,-2.0566,-2.0566,-2.1001,-2.2424,-2.2423,-2.1749,-2.0399,-2.0593,-2.1463,-2.2823,-2.3078,-2.3078,-2.3078,-2.3078,-2.3078,-2.3078,-2.3078,-2.3078,-2.3078,-2.3078,-2.3941,-2.6063,-2.6458,-2.6533,-2.6533,-2.6533,-2.6533,-2.6533,-2.6533,-2.6533,-2.6533,-2.6533,-2.6533,-2.6533,-2.6533,-2.6533,-2.6533,-2.6533,-2.6533,-2.6533,-2.6533,-2.6533,-0.7372,-0.9169,-1.0831,-1.0831,-1.2479,-1.3869,-1.3179,-1.3346,-1.3621,-1.3621,-1.509,-1.6316,-1.6077,-1.5884,-1.5826,-1.573,-1.5594,-1.5468,-1.541,-1.541,-1.541,-1.541,-1.541,-1.6094,-1.7842,-1.7735,-1.7461,-1.7185,-1.7185,-1.7047,-1.6908,-1.6908,-1.6908,-1.6908,-1.6908,-1.6908,-1.6908,-1.6908,-1.6908,-1.6908,-1.7332,-1.747,-1.7539,-1.7872,-1.833,-1.8887,-1.916,-1.9775,-2.0566,-2.0566,-2.0566,-2.0566,-2.0566,-2.0566,-2.0566,-2.0566,-2.0566,-2.0566,-2.0566,-2.0566,-2.0566,-2.0566,-2.0566,-2.0566,-2.0566,-2.0566,-2.0566,-2.0566,-2.0566,-2.0566,-2.0566,-2.0566,-2.1242,-2.3841,-2.4318,-2.4058,-2.3569,-2.3638,-2.3585,-2.2688,-2.2543,-2.2543,-2.2543,-2.3615,-2.4518,-2.4518,-2.4518,-2.4518,-2.4518,-2.4518,-2.5013,-2.6377,-2.6533,-2.6314,-2.5734,-2.5746,-2.5955,-2.6452,-2.6533,-2.6533,-2.6533,-2.6533,-2.6533,-2.6533,-2.6533,-2.6533,-2.6533,-2.6533,-2.6533,-2.6533,-2.6533,-2.6533,-0.6027,-0.7068,-0.8156,-0.8156,-0.9701,-1.1217,-1.1296,-1.2488,-1.3621,-1.3621,-1.4593,-1.5584,-1.5908,-1.5768,-1.5584,-1.5604,-1.5478,-1.541,-1.541,-1.541,-1.541,-1.541,-1.5674,-1.6426,-1.7871,-1.8008,-1.7803,-1.7332,-1.7332,-1.7185,-1.6908,-1.6908,-1.6908,-1.6908,-1.6908,-1.6908,-1.6908,-1.6908,-1.6908,-1.6908,-1.7332,-1.747,-1.7539,-1.7872,-1.8242,-1.8652,-1.9004,-1.958,-2.0303,-2.0488,-2.0566,-2.0566,-2.0566,-2.0566,-2.0566,-2.0566,-2.0566,-2.0566,-2.0566,-2.0566,-2.0566,-2.0566,-2.0566,-2.0566,-2.0566,-2.0566,-2.0566,-2.0566,-2.0566,-2.0566,-2.0566,-2.1021,-2.2069,-2.4647,-2.5312,-2.5312,-2.5312,-2.5312,-2.4891,-2.3508,-2.3232,-2.3232,-2.3232,-2.4386,-2.5312,-2.5312,-2.5312,-2.5312,-2.5312,-2.5312,-2.5594,-2.6383,-2.6245,-2.5886,-2.5382,-2.5312,-2.5664,-2.6465,-2.6533,-2.6533,-2.6533,-2.6533,-2.6533,-2.6533,-2.6533,-2.6533,-2.6533,-2.6533,-2.6533,-2.6533,-2.6533,-2.6533,0.0,0.0,0.0,-0.5492,-0.6855,-0.8673,-1.0469,-1.2275,-1.3548,-1.3563,-1.3573,-1.407,-1.5542,-1.5565,-1.5391,-1.5391,-1.54,-1.541,-1.541,-1.541,-1.541,-1.541,-1.6172,-1.7031,-1.7881,-1.7959,-1.7765,-1.7304,-1.7314,-1.7176,-1.6908,-1.6908,-1.6908,-1.6908,-1.6908,-1.6908,-1.6908,-1.6908,-1.6908,-1.6908,-1.7332,-1.747,-1.7539,-1.7872,-1.8232,-1.8623,-1.8809,-1.9189,-1.9727,-2.0322,-2.0566,-2.0566,-2.0566,-2.0566,-2.0566,-2.0566,-2.0566,-2.0566,-2.0566,-2.0566,-2.0566,-2.0566,-2.0566,-2.0566,-2.0566,-2.0566,-2.0566,-2.0566,-2.0566,-2.0566,-2.0566,-2.1787,-2.3361,-2.4874,-2.5241,-2.5241,-2.5312,-2.5312,-2.5312,-2.5312,-2.5312,-2.5312,-2.5312,-2.5312,-2.5312,-2.5312,-2.5312,-2.5312,-2.5312,-2.5312,-2.5594,-2.6383,-2.5746,-2.5312,-2.5312,-2.5312,-2.5594,-2.6383,-2.6452,-2.6465,-2.6533,-2.6533,-2.6533,-2.6533,-2.6533,-2.6533,-2.6533,-2.6533,-2.6533,-2.6533,-2.6533,-2.6533,-0.5492,0.0,0.0,0.0,0.0,0.0,-1.0469,-1.1273,-1.1953,-1.3097,-1.3314,-1.351,-1.4202,-1.4586,-1.4834,-1.4941,-1.5215,-1.541,-1.541,-1.541,-1.541,-1.541,-1.5625,-1.6035,-1.6699,-1.6641,-1.667,-1.6911,-1.6882,-1.68,-1.689,-1.6908,-1.6908,-1.6908,-1.6908,-1.6908,-1.6908,-1.6908,-1.6908,-1.6908,-1.7332,-1.747,-1.7539,-1.7872,-1.8076,-1.8213,-1.8682,-1.874,-1.8594,-1.999,-2.0566,-2.0566,-2.0566,-2.0566,-2.0566,-2.0566,-2.0566,-2.0566,-2.0566,-2.0566,-2.0566,-2.0566,-2.0566,-2.0566,-2.0566,-2.0566,-2.0566,-2.0566,-2.0566,-2.0566,-2.0566,-2.1328,-2.2402,-2.3434,-2.4093,-2.4683,-2.517,-2.5312,-2.5312,-2.5312,-2.5312,-2.5312,-2.5312,-2.5312,-2.5312,-2.5312,-2.5312,-2.5312,-2.5312,-2.5312,-2.5382,-2.5594,-2.5453,-2.5312,-2.5312,-2.5312,-2.5382,-2.5594,-2.5594,-2.5886,-2.6465,-2.6533,-2.6533,-2.6533,-2.6533,-2.6533,-2.6533,-2.6533,-2.6533,-2.6533,-2.6533,-2.6533,-0.5492,-0.6055,-0.6616,-0.6616,0.0,0.0,-0.9543,-1.0345,-1.1141,-1.205,-1.2468,-1.2779,-1.3105,-1.3629,-1.4051,-1.4326,-1.46,-1.5,-1.5361,-1.541,-1.541,-1.541,-1.5566,-1.582,-1.604,-1.6181,-1.6271,-1.6421,-1.6543,-1.668,-1.6881,-1.6908,-1.6908,-1.6908,-1.6908,-1.6908,-1.6908,-1.6908,-1.6908,-1.6908,-1.7332,-1.747,-1.7539,-1.7872,-1.8008,-1.8027,-1.8369,-1.832,-1.8144,-1.9853,-2.0566,-2.0566,-2.0566,-2.0566,-2.0566,-2.0566,-2.0566,-2.0566,-2.0566,-2.0566,-2.0566,-2.0566,-2.0566,-2.0566,-2.0566,-2.0566,-2.0566,-2.0566,-2.0566,-2.0566,-2.0566,-2.0954,-2.1415,-2.1863,-2.2841,-2.3959,-2.5099,-2.5312,-2.5312,-2.5312,-2.5312,-2.5312,-2.5312,-2.5312,-2.5312,-2.5312,-2.5312,-2.5312,-2.5312,-2.5312,-2.5312,-2.5312,-2.5312,-2.5312,-2.5312,-2.5312,-2.5312,-2.5312,-2.5312,-2.5664,-2.6452,-2.6533,-2.6533,-2.6533,-2.6533,-2.6533,-2.6533,-2.6533,-2.6533,-2.6533,-2.6533,-2.6533,-0.5795,-0.6969,-0.8187,-0.8187,-0.8187,0.0,-0.8187,-0.945,-1.0623,-1.0778,-1.1247,-1.182,-1.2206,-1.2623,-1.3075,-1.3501,-1.3864,-1.4365,-1.5225,-1.5342,-1.5361,-1.54,-1.5752,-1.5936,-1.5763,-1.611,-1.6224,-1.5963,-1.6272,-1.6615,-1.6817,-1.6844,-1.6862,-1.6908,-1.6908,-1.6908,-1.6908,-1.6908,-1.6908,-1.6908,-1.7254,-1.747,-1.7539,-1.7872,-1.8008,-1.8008,-1.8008,-1.8008,-1.8125,-1.9648,-2.0391,-2.0566,-2.0566,-2.0566,-2.0566,-2.0566,-2.0566,-2.0566,-2.0566,-2.0566,-2.0566,-2.0566,-2.0566,-2.0566,-2.0566,-2.0566,-2.0566,-2.0566,-2.0566,-2.0566,-2.0566,-2.0566,-2.0566,-2.0566,-2.1863,-2.3434,-2.4957,-2.5312,-2.5312,-2.5312,-2.5312,-2.5312,-2.5312,-2.5312,-2.5312,-2.5312,-2.5312,-2.5312,-2.5312,-2.5312,-2.5312,-2.5312,-2.5312,-2.5312,-2.5312,-2.5312,-2.5312,-2.5312,-2.5312,-2.5664,-2.6452,-2.6533,-2.6533,-2.6533,-2.6533,-2.6533,-2.6533,-2.6533,-2.6533,-2.6533,-2.6533,-2.6533,-0.7686,-0.7945,-0.8187,-0.8187,-0.8187,0.0,-0.8187,-0.8466,-0.9004,-0.9955,-1.0284,-1.0601,-1.1296,-1.1774,-1.2198,-1.2599,-1.3283,-1.4041,-1.4785,-1.4902,-1.5029,-1.5371,-1.5488,-1.5488,-1.533,-1.5288,-1.5359,-1.5452,-1.5716,-1.6057,-1.6413,-1.6431,-1.6578,-1.6899,-1.6908,-1.6908,-1.6908,-1.6908,-1.6908,-1.6908,-1.7185,-1.7401,-1.7539,-1.7872,-1.8008,-1.8008,-1.8008,-1.8008,-1.8037,-1.8369,-1.9316,-2.0566,-2.0566,-2.0566,-2.0566,-2.0566,-2.0566,-2.0566,-2.0566,-2.0566,-2.0566,-2.0566,-2.0566,-2.0566,-2.0566,-2.0566,-2.0566,-2.0566,-2.0566,-2.0566,-2.0566,-2.0566,-2.0566,-2.0566,-2.1863,-2.3434,-2.4957,-2.5312,-2.5312,-2.5312,-2.5312,-2.5312,-2.5312,-2.5312,-2.5312,-2.5312,-2.5312,-2.5312,-2.5312,-2.5312,-2.5312,-2.5312,-2.5312,-2.5312,-2.5312,-2.5312,-2.5312,-2.5312,-2.5312,-2.5664,-2.6452,-2.6533,-2.6533,-2.6533,-2.6533,-2.6533,-2.6533,-2.6533,-2.6533,-2.6533,-2.6533,-2.6533,-0.9553,-0.9553,-0.9553,-0.9553,-0.887,0.0,0.0,-0.8187,-0.8383,-0.8971,-0.944,-0.9929,-1.0504,-1.1004,-1.1449,-1.1764,-1.2302,-1.287,-1.3418,-1.4062,-1.4541,-1.4746,-1.4971,-1.505,-1.4878,-1.5022,-1.515,-1.5321,-1.5348,-1.5579,-1.5982,-1.6202,-1.6376,-1.6505,-1.6771,-1.6908,-1.6908,-1.6908,-1.6908,-1.6908,-1.7185,-1.7392,-1.7539,-1.7872,-1.8008,-1.8008,-1.8008,-1.8008,-1.8008,-1.8008,-1.9023,-2.0566,-2.0566,-2.0566,-2.0566,-2.0566,-2.0566,-2.0566,-2.0566,-2.0566,-2.0566,-2.0566,-2.0566,-2.0566,-2.0566,-2.0566,-2.0566,-2.0566,-2.0566,-2.0566,-2.0566,-2.0566,-2.0566,-2.0566,-2.1863,-2.3434,-2.4957,-2.5312,-2.5312,-2.5312,-2.5312,-2.5312,-2.5312,-2.5312,-2.5312,-2.5312,-2.5312,-2.5312,-2.5312,-2.5312,-2.5312,-2.5312,-2.5312,-2.5312,-2.5312,-2.5312,-2.5312,-2.5312,-2.5312,-2.5664,-2.6452,-2.6533,-2.6533,-2.6533,-2.6533,-2.6533,-2.6533,-2.6533,-2.6533,-2.6533,-2.6533,-2.6533,-1.0891,-1.1139,-1.1354,-1.0974,-0.9543,-0.8239,0.0,0.0,0.0,-0.8187,-0.888,-0.9602,-0.9936,-1.0412,-1.0822,-1.1035,-1.1372,-1.166,-1.1924,-1.289,-1.373,-1.3984,-1.4394,-1.4603,-1.4492,-1.4697,-1.4876,-1.4976,-1.4888,-1.5038,-1.5441,-1.5927,-1.6221,-1.6257,-1.6679,-1.6908,-1.6908,-1.6908,-1.6908,-1.6908,-1.7116,-1.7332,-1.7539,-1.7872,-1.8008,-1.8008,-1.8008,-1.8008,-1.8037,-1.8359,-1.9316,-2.0566,-2.0566,-2.0566,-2.0566,-2.0566,-2.0566,-2.0566,-2.0566,-2.0566,-2.0566,-2.0566,-2.0566,-2.0566,-2.0566,-2.0566,-2.0566,-2.0566,-2.0566,-2.0566,-2.0566,-2.0566,-2.0566,-2.0566,-2.1863,-2.3535,-2.5467,-2.56,-2.5312,-2.5312,-2.5312,-2.5312,-2.5312,-2.5312,-2.5312,-2.5312,-2.5312,-2.5312,-2.5312,-2.5312,-2.5312,-2.5312,-2.5312,-2.5312,-2.5312,-2.5312,-2.5312,-2.5312,-2.5312,-2.5664,-2.6452,-2.6533,-2.6533,-2.6533,-2.6533,-2.6533,-2.6533,-2.6314,-2.6383,-2.6533,-2.6533,-2.6533,-1.0891,-1.2057,-1.2927,-1.1283,-0.9543,-0.8404,-0.9169,0.0,-0.8187,-0.8187,0.0,-0.9602,-0.9936,0.0,0.0,-1.0601,-1.0985,-1.1203,-1.1055,-1.1514,-1.2285,-1.3437,-1.3955,-1.4155,-1.3984,-1.3834,-1.3672,-1.3718,-1.3931,-1.4203,-1.4625,-1.5359,-1.6083,-1.6798,-1.6872,-1.6908,-1.6908,-1.6908,-1.6908,-1.6908,-1.6908,-1.7116,-1.7539,-1.7872,-1.8008,-1.8008,-1.8008,-1.8008,-1.8125,-1.9648,-2.0391,-2.0566,-2.0566,-2.0566,-2.0566,-2.0566,-2.0566,-2.0566,-2.0566,-2.0566,-2.0566,-2.0566,-2.0566,-2.0566,-2.0566,-2.0566,-2.0566,-2.0566,-2.0566,-2.0566,-2.0566,-2.0566,-2.0566,-2.0566,-2.1863,-2.3913,-2.7418,-2.6647,-2.5312,-2.5312,-2.5312,-2.5312,-2.5312,-2.5312,-2.5312,-2.5312,-2.5312,-2.5312,-2.5312,-2.5312,-2.5312,-2.5312,-2.5312,-2.5312,-2.5312,-2.5312,-2.5312,-2.5312,-2.5312,-2.5664,-2.6452,-2.6533,-2.6533,-2.6533,-2.6533,-2.6533,-2.6533,-2.5816,-2.5804,-2.6533,-2.6533,-2.6533,-1.2492,-1.3041,-1.3186,-1.1335,-1.035,-0.9884,-1.0221,-1.0015,-0.9781,-0.9781,0.0,0.0,0.0,0.0,0.0,0.0,-1.0782,-1.0775,-1.0587,-1.0703,-1.1253,-1.2256,-1.2988,-1.3445,-1.3636,-1.3518,-1.3361,-1.3361,-1.3523,-1.3821,-1.4237,-1.497,-1.5689,-1.6422,-1.6743,-1.6908,-1.6908,-1.6908,-1.6908,-1.6908,-1.7116,-1.7461,-1.7803,-1.794,-1.8008,-1.8008,-1.8008,-1.8008,-1.8144,-1.9853,-2.0566,-2.0566,-2.0566,-2.0566,-2.0566,-2.0566,-2.0566,-2.0566,-2.0566,-2.0566,-2.0566,-2.0566,-2.0566,-2.0566,-2.0566,-2.0566,-2.0566,-2.0566,-2.0566,-2.0566,-2.0566,-2.0566,-2.0566,-2.0566,-2.2683,-2.5383,-2.7909,-2.7801,-2.6803,-2.5552,-2.5312,-2.5312,-2.5312,-2.5312,-2.5312,-2.5312,-2.5312,-2.5312,-2.5312,-2.5312,-2.5312,-2.5312,-2.5312,-2.5312,-2.5312,-2.5312,-2.5312,-2.5312,-2.5734,-2.6164,-2.6465,-2.6533,-2.6533,-2.6533,-2.6533,-2.6245,-2.5804,-2.5453,-2.5453,-2.5804,-2.5804,-2.5804,-1.3621,-1.3621,-1.3186,-1.1335,-1.0891,-1.0891,-1.0891,-1.0891,-1.0891,-1.0891,-1.0891,0.0,0.0,0.0,-1.0905,-1.0931,0.0,-1.0592,-1.0322,-1.0283,-1.0605,-1.1498,-1.239,-1.2939,-1.3086,-1.2919,-1.285,-1.2937,-1.3204,-1.3496,-1.3923,-1.4657,-1.5322,-1.5817,-1.6431,-1.6798,-1.6908,-1.6908,-1.6908,-1.6908,-1.7185,-1.7598,-1.8008,-1.8008,-1.8008,-1.8008,-1.8008,-1.8008,-1.8144,-1.9853,-2.0566,-2.0566,-2.0566,-2.0566,-2.0566,-2.0566,-2.0566,-2.0566,-2.0566,-2.0566,-2.0566,-2.0566,-2.0566,-2.0566,-2.0566,-2.0566,-2.0566,-2.0566,-2.0566,-2.0674,-2.1152,-2.1269,-2.1269,-2.1269,-2.3639,-2.6396,-2.8099,-2.851,-2.8053,-2.649,-2.5709,-2.5312,-2.5312,-2.5312,-2.5312,-2.5312,-2.5312,-2.5312,-2.5312,-2.5312,-2.5312,-2.5312,-2.5312,-2.5312,-2.5312,-2.5312,-2.5312,-2.5312,-2.5886,-2.6176,-2.6176,-2.6383,-2.6533,-2.6533,-2.6314,-2.5886,-2.5312,-2.5312,-2.5312,-2.5312,-2.5312,-2.5312,-1.3621,-1.3621,-1.3186,-1.1335,-1.0891,-1.0891,-1.0891,-1.0891,-1.0891,-1.0891,-1.0891,-1.1188,-1.21,-1.1509,-1.1038,-1.1511,-1.1173,0.0,0.0,-1.0283,-1.0605,-1.1498,-1.239,-1.2666,-1.2109,-1.1797,-1.1738,-1.2031,-1.2698,-1.3224,-1.3523,-1.451,-1.5111,-1.5129,-1.5918,-1.6523,-1.6899,-1.6908,-1.6908,-1.6908,-1.6908,-1.7323,-1.8008,-1.8008,-1.8008,-1.8008,-1.8008,-1.8008,-1.8144,-1.9853,-2.0566,-2.0566,-2.0566,-2.0566,-2.0566,-2.0566,-2.0566,-2.0566,-2.0566,-2.0566,-2.0566,-2.0566,-2.0566,-2.0566,-2.0566,-2.0566,-2.0566,-2.0566,-2.0566,-2.0947,-2.2627,-2.3057,-2.3057,-2.3057,-2.4478,-2.6396,-2.8099,-2.851,-2.8486,-2.8426,-2.6731,-2.5312,-2.5312,-2.5312,-2.5312,-2.5312,-2.5312,-2.5312,-2.5312,-2.5312,-2.5312,-2.5312,-2.5312,-2.5312,-2.5312,-2.5312,-2.5312,-2.5312,-2.5312,-2.5312,-2.5312,-2.6094,-2.6533,-2.6533,-2.5734,-2.5312,-2.5312,-2.5312,-2.5312,-2.5312,-2.5312,-2.5312,-1.3621,-1.3621,-1.3186,-1.1335,-1.0891,-1.0891,-1.0891,-1.0891,-1.0891,-1.0891,-1.183,-1.2793,-1.3103,-1.2906,-1.2335,-1.1305,-1.1015,-1.0843,0.0,-1.0487,-1.0391,-1.0714,-1.1309,-1.1953,-1.2529,-1.2008,-1.141,-1.0898,-1.1659,-1.255,-1.3565,-1.431,-1.4708,-1.4708,-1.523,-1.5835,-1.6514,-1.664,-1.6847,-1.7185,-1.7254,-1.7529,-1.8008,-1.8008,-1.8008,-1.8008,-1.8008,-1.8008,-1.8144,-1.9853,-2.0566,-2.0566,-2.0566,-2.0566,-2.0566,-2.0566,-2.0566,-2.0566,-2.0566,-2.0566,-2.0566,-2.0566,-2.0566,-2.0566,-2.0566,-2.1357,-2.2266,-2.2266,-2.2266,-2.2402,-2.2988,-2.3135,-2.3135,-2.3135,-2.4519,-2.6396,-2.8099,-2.851,-2.851,-2.851,-2.7921,-2.6983,-2.5552,-2.5312,-2.5312,-2.5312,-2.5312,-2.5312,-2.5312,-2.5312,-2.5312,-2.5312,-2.5312,-2.5312,-2.5312,-2.5312,-2.5312,-2.5312,-2.5312,-2.5312,-2.5312,-2.6094,-2.6245,-2.5746,-2.5453,-2.5312,-2.5312,-2.5312,-2.5312,-2.5336,-2.6767,-2.7428,-1.3796,-1.3621,-1.3331,-1.2172,-1.184,-1.1675,-1.1036,-1.0891,-1.1067,-1.1706,-1.3331,-1.4593,-1.4593,-1.4593,-1.4003,-1.2182,-1.1304,-1.0843,0.0,-1.0448,-1.0283,-1.0283,-1.1152,-1.1807,-1.1943,-1.1489,-1.1175,-1.1201,-1.1763,-1.2472,-1.3394,-1.4194,-1.4565,-1.4515,-1.49,-1.5423,-1.6083,-1.6429,-1.6842,-1.7392,-1.747,-1.7676,-1.8008,-1.8008,-1.8008,-1.8008,-1.8008,-1.8008,-1.8144,-1.9853,-2.0566,-2.0566,-2.0566,-2.0566,-2.0566,-2.0566,-2.0566,-2.0566,-2.0566,-2.0566,-2.0566,-2.0566,-2.0566,-2.0566,-2.0566,-2.1768,-2.3135,-2.3135,-2.3135,-2.3135,-2.3135,-2.3135,-2.3135,-2.3135,-2.4262,-2.5801,-2.729,-2.7788,-2.8111,-2.8431,-2.851,-2.8077,-2.6683,-2.6454,-2.619,-2.542,-2.5961,-2.6166,-2.5408,-2.5312,-2.5312,-2.5312,-2.5312,-2.5312,-2.5312,-2.5312,-2.5312,-2.5312,-2.5312,-2.5312,-2.5312,-2.5816,-2.5816,-2.5312,-2.5312,-2.5312,-2.5312,-2.5312,-2.5697,-2.6478,-2.7861,-2.851]}]]